<?xml version="1.0" encoding="UTF-8" standalone="no" ?>
<gpx xmlns="http://www.topografix.com/GPX/1/1" xmlns:xsi="http://www.w3.org/2001/XMLSchema-instance" xsi:schemaLocation="http://www.topografix.com/GPX/1/1 http://www.topografix.com/GPX/1/1/gpx.xsd" version="1.1" creator="VisuGPX - https://www.visugpx.com">
  <metadata>
    <name>entrainement Trail Bouconne 18012015</name>
    <desc><![CDATA[entrainement Trail Bouconne 18012015]]></desc>
  </metadata>
  <trk>
    <name><![CDATA[Pujaudran Course à pied]]></name>
    <trkseg>
      <trkpt lat="43.5985" lon="1.1865">
        <ele>253</ele>
        <time>2015-01-18T07:38:30.000Z</time>
      </trkpt>
      <trkpt lat="43.59848" lon="1.18631">
        <ele>253</ele>
        <time>2015-01-18T07:38:39.000Z</time>
      </trkpt>
      <trkpt lat="43.59849" lon="1.18628">
        <ele>253.19999694824</ele>
        <time>2015-01-18T07:38:40.000Z</time>
      </trkpt>
      <trkpt lat="43.59843" lon="1.18619">
        <ele>253.19999694824</ele>
        <time>2015-01-18T07:38:45.000Z</time>
      </trkpt>
      <trkpt lat="43.59824" lon="1.18599">
        <ele>252.80000305176</ele>
        <time>2015-01-18T07:38:55.000Z</time>
      </trkpt>
      <trkpt lat="43.59816" lon="1.18592">
        <ele>252.80000305176</ele>
        <time>2015-01-18T07:38:59.000Z</time>
      </trkpt>
      <trkpt lat="43.59805" lon="1.18583">
        <ele>252.60000610352</ele>
        <time>2015-01-18T07:39:04.000Z</time>
      </trkpt>
      <trkpt lat="43.5979" lon="1.18571">
        <ele>252.39999389648</ele>
        <time>2015-01-18T07:39:11.000Z</time>
      </trkpt>
      <trkpt lat="43.59779" lon="1.18559">
        <ele>252.39999389648</ele>
        <time>2015-01-18T07:39:17.000Z</time>
      </trkpt>
      <trkpt lat="43.59769" lon="1.1855">
        <ele>252.39999389648</ele>
        <time>2015-01-18T07:39:22.000Z</time>
      </trkpt>
      <trkpt lat="43.59755" lon="1.18539">
        <ele>252.19999694824</ele>
        <time>2015-01-18T07:39:28.000Z</time>
      </trkpt>
      <trkpt lat="43.59745" lon="1.18529">
        <ele>252</ele>
        <time>2015-01-18T07:39:33.000Z</time>
      </trkpt>
      <trkpt lat="43.59734" lon="1.1852">
        <ele>251.80000305176</ele>
        <time>2015-01-18T07:39:38.000Z</time>
      </trkpt>
      <trkpt lat="43.59725" lon="1.18514">
        <ele>251.60000610352</ele>
        <time>2015-01-18T07:39:42.000Z</time>
      </trkpt>
      <trkpt lat="43.59712" lon="1.185">
        <ele>251.60000610352</ele>
        <time>2015-01-18T07:39:48.000Z</time>
      </trkpt>
      <trkpt lat="43.59706" lon="1.18486">
        <ele>251.80000305176</ele>
        <time>2015-01-18T07:39:53.000Z</time>
      </trkpt>
      <trkpt lat="43.59705" lon="1.18484">
        <ele>251.80000305176</ele>
        <time>2015-01-18T07:39:54.000Z</time>
      </trkpt>
      <trkpt lat="43.59707" lon="1.18462">
        <ele>251.19999694824</ele>
        <time>2015-01-18T07:40:00.000Z</time>
      </trkpt>
      <trkpt lat="43.59709" lon="1.18447">
        <ele>250.60000610352</ele>
        <time>2015-01-18T07:40:05.000Z</time>
      </trkpt>
      <trkpt lat="43.59714" lon="1.18435">
        <ele>250.39999389648</ele>
        <time>2015-01-18T07:40:09.000Z</time>
      </trkpt>
      <trkpt lat="43.59714" lon="1.18432">
        <ele>250.19999694824</ele>
        <time>2015-01-18T07:40:10.000Z</time>
      </trkpt>
      <trkpt lat="43.59716" lon="1.18422">
        <ele>250.19999694824</ele>
        <time>2015-01-18T07:40:14.000Z</time>
      </trkpt>
      <trkpt lat="43.59717" lon="1.18415">
        <ele>250.39999389648</ele>
        <time>2015-01-18T07:40:16.000Z</time>
      </trkpt>
      <trkpt lat="43.59719" lon="1.18409">
        <ele>250.80000305176</ele>
        <time>2015-01-18T07:40:18.000Z</time>
      </trkpt>
      <trkpt lat="43.59725" lon="1.18396">
        <ele>251.80000305176</ele>
        <time>2015-01-18T07:40:24.000Z</time>
      </trkpt>
      <trkpt lat="43.5973" lon="1.18383">
        <ele>252.39999389648</ele>
        <time>2015-01-18T07:40:29.000Z</time>
      </trkpt>
      <trkpt lat="43.59735" lon="1.18363">
        <ele>253</ele>
        <time>2015-01-18T07:40:35.000Z</time>
      </trkpt>
      <trkpt lat="43.59738" lon="1.1834">
        <ele>254</ele>
        <time>2015-01-18T07:40:42.000Z</time>
      </trkpt>
      <trkpt lat="43.59739" lon="1.1832">
        <ele>254.60000610352</ele>
        <time>2015-01-18T07:40:48.000Z</time>
      </trkpt>
      <trkpt lat="43.59738" lon="1.18304">
        <ele>255.19999694824</ele>
        <time>2015-01-18T07:40:53.000Z</time>
      </trkpt>
      <trkpt lat="43.59738" lon="1.18281">
        <ele>256.39999389648</ele>
        <time>2015-01-18T07:41:00.000Z</time>
      </trkpt>
      <trkpt lat="43.59738" lon="1.18278">
        <ele>256.60000610352</ele>
        <time>2015-01-18T07:41:01.000Z</time>
      </trkpt>
      <trkpt lat="43.5974" lon="1.18266">
        <ele>257.20001220703</ele>
        <time>2015-01-18T07:41:05.000Z</time>
      </trkpt>
      <trkpt lat="43.5974" lon="1.18263">
        <ele>257.39999389648</ele>
        <time>2015-01-18T07:41:06.000Z</time>
      </trkpt>
      <trkpt lat="43.59744" lon="1.18241">
        <ele>258.60000610352</ele>
        <time>2015-01-18T07:41:14.000Z</time>
      </trkpt>
      <trkpt lat="43.59747" lon="1.18227">
        <ele>259.39999389648</ele>
        <time>2015-01-18T07:41:19.000Z</time>
      </trkpt>
      <trkpt lat="43.59749" lon="1.18209">
        <ele>261</ele>
        <time>2015-01-18T07:41:25.000Z</time>
      </trkpt>
      <trkpt lat="43.59755" lon="1.18192">
        <ele>261.60000610352</ele>
        <time>2015-01-18T07:41:31.000Z</time>
      </trkpt>
      <trkpt lat="43.59757" lon="1.18188">
        <ele>261.79998779297</ele>
        <time>2015-01-18T07:41:33.000Z</time>
      </trkpt>
      <trkpt lat="43.59756" lon="1.18178">
        <ele>261.79998779297</ele>
        <time>2015-01-18T07:41:37.000Z</time>
      </trkpt>
      <trkpt lat="43.59753" lon="1.18157">
        <ele>262</ele>
        <time>2015-01-18T07:41:45.000Z</time>
      </trkpt>
      <trkpt lat="43.5975" lon="1.18126">
        <ele>262.60000610352</ele>
        <time>2015-01-18T07:41:55.000Z</time>
      </trkpt>
      <trkpt lat="43.59749" lon="1.18121">
        <ele>262.60000610352</ele>
        <time>2015-01-18T07:41:57.000Z</time>
      </trkpt>
      <trkpt lat="43.59747" lon="1.18102">
        <ele>262.39999389648</ele>
        <time>2015-01-18T07:42:03.000Z</time>
      </trkpt>
      <trkpt lat="43.59744" lon="1.18087">
        <ele>262.39999389648</ele>
        <time>2015-01-18T07:42:08.000Z</time>
      </trkpt>
      <trkpt lat="43.5974" lon="1.18074">
        <ele>262.39999389648</ele>
        <time>2015-01-18T07:42:12.000Z</time>
      </trkpt>
      <trkpt lat="43.59737" lon="1.18054">
        <ele>262.60000610352</ele>
        <time>2015-01-18T07:42:18.000Z</time>
      </trkpt>
      <trkpt lat="43.59736" lon="1.18041">
        <ele>263</ele>
        <time>2015-01-18T07:42:22.000Z</time>
      </trkpt>
      <trkpt lat="43.59736" lon="1.18028">
        <ele>263.39999389648</ele>
        <time>2015-01-18T07:42:26.000Z</time>
      </trkpt>
      <trkpt lat="43.59737" lon="1.18015">
        <ele>263.39999389648</ele>
        <time>2015-01-18T07:42:31.000Z</time>
      </trkpt>
      <trkpt lat="43.59737" lon="1.18012">
        <ele>263.39999389648</ele>
        <time>2015-01-18T07:42:32.000Z</time>
      </trkpt>
      <trkpt lat="43.59736" lon="1.18">
        <ele>263.39999389648</ele>
        <time>2015-01-18T07:42:36.000Z</time>
      </trkpt>
      <trkpt lat="43.59736" lon="1.17977">
        <ele>263.39999389648</ele>
        <time>2015-01-18T07:42:43.000Z</time>
      </trkpt>
      <trkpt lat="43.59736" lon="1.1796">
        <ele>263.39999389648</ele>
        <time>2015-01-18T07:42:48.000Z</time>
      </trkpt>
      <trkpt lat="43.59735" lon="1.17931">
        <ele>264</ele>
        <time>2015-01-18T07:42:57.000Z</time>
      </trkpt>
      <trkpt lat="43.59733" lon="1.17915">
        <ele>264.79998779297</ele>
        <time>2015-01-18T07:43:02.000Z</time>
      </trkpt>
      <trkpt lat="43.5973" lon="1.17902">
        <ele>265.20001220703</ele>
        <time>2015-01-18T07:43:06.000Z</time>
      </trkpt>
      <trkpt lat="43.59727" lon="1.17889">
        <ele>265.60000610352</ele>
        <time>2015-01-18T07:43:11.000Z</time>
      </trkpt>
      <trkpt lat="43.59726" lon="1.17886">
        <ele>265.60000610352</ele>
        <time>2015-01-18T07:43:12.000Z</time>
      </trkpt>
      <trkpt lat="43.59725" lon="1.17869">
        <ele>266</ele>
        <time>2015-01-18T07:43:18.000Z</time>
      </trkpt>
      <trkpt lat="43.59725" lon="1.17851">
        <ele>266.39999389648</ele>
        <time>2015-01-18T07:43:24.000Z</time>
      </trkpt>
      <trkpt lat="43.59725" lon="1.17843">
        <ele>266.79998779297</ele>
        <time>2015-01-18T07:43:27.000Z</time>
      </trkpt>
      <trkpt lat="43.5973" lon="1.17821">
        <ele>267.79998779297</ele>
        <time>2015-01-18T07:43:34.000Z</time>
      </trkpt>
      <trkpt lat="43.5973" lon="1.17803">
        <ele>268.20001220703</ele>
        <time>2015-01-18T07:43:40.000Z</time>
      </trkpt>
      <trkpt lat="43.59727" lon="1.17781">
        <ele>268.39999389648</ele>
        <time>2015-01-18T07:43:46.000Z</time>
      </trkpt>
      <trkpt lat="43.59727" lon="1.17764">
        <ele>268.60000610352</ele>
        <time>2015-01-18T07:43:52.000Z</time>
      </trkpt>
      <trkpt lat="43.59726" lon="1.17747">
        <ele>268.79998779297</ele>
        <time>2015-01-18T07:43:57.000Z</time>
      </trkpt>
      <trkpt lat="43.59728" lon="1.17728">
        <ele>269</ele>
        <time>2015-01-18T07:44:03.000Z</time>
      </trkpt>
      <trkpt lat="43.59728" lon="1.17712">
        <ele>268.79998779297</ele>
        <time>2015-01-18T07:44:08.000Z</time>
      </trkpt>
      <trkpt lat="43.5973" lon="1.17699">
        <ele>268.79998779297</ele>
        <time>2015-01-18T07:44:12.000Z</time>
      </trkpt>
      <trkpt lat="43.59735" lon="1.17683">
        <ele>269.20001220703</ele>
        <time>2015-01-18T07:44:17.000Z</time>
      </trkpt>
      <trkpt lat="43.59743" lon="1.17666">
        <ele>270.39999389648</ele>
        <time>2015-01-18T07:44:23.000Z</time>
      </trkpt>
      <trkpt lat="43.59751" lon="1.17653">
        <ele>271.39999389648</ele>
        <time>2015-01-18T07:44:28.000Z</time>
      </trkpt>
      <trkpt lat="43.59756" lon="1.17639">
        <ele>271.60000610352</ele>
        <time>2015-01-18T07:44:33.000Z</time>
      </trkpt>
      <trkpt lat="43.59756" lon="1.17633">
        <ele>271.20001220703</ele>
        <time>2015-01-18T07:44:36.000Z</time>
      </trkpt>
      <trkpt lat="43.5976" lon="1.17624">
        <ele>271.60000610352</ele>
        <time>2015-01-18T07:44:41.000Z</time>
      </trkpt>
      <trkpt lat="43.59763" lon="1.17609">
        <ele>272</ele>
        <time>2015-01-18T07:44:46.000Z</time>
      </trkpt>
      <trkpt lat="43.59767" lon="1.17584">
        <ele>272.20001220703</ele>
        <time>2015-01-18T07:44:53.000Z</time>
      </trkpt>
      <trkpt lat="43.59773" lon="1.17561">
        <ele>272.20001220703</ele>
        <time>2015-01-18T07:45:00.000Z</time>
      </trkpt>
      <trkpt lat="43.59777" lon="1.17549">
        <ele>272.60000610352</ele>
        <time>2015-01-18T07:45:04.000Z</time>
      </trkpt>
      <trkpt lat="43.59778" lon="1.17546">
        <ele>272.79998779297</ele>
        <time>2015-01-18T07:45:05.000Z</time>
      </trkpt>
      <trkpt lat="43.59786" lon="1.17527">
        <ele>273.39999389648</ele>
        <time>2015-01-18T07:45:11.000Z</time>
      </trkpt>
      <trkpt lat="43.59789" lon="1.17512">
        <ele>274</ele>
        <time>2015-01-18T07:45:16.000Z</time>
      </trkpt>
      <trkpt lat="43.5979" lon="1.17498">
        <ele>274.20001220703</ele>
        <time>2015-01-18T07:45:20.000Z</time>
      </trkpt>
      <trkpt lat="43.59791" lon="1.1748">
        <ele>274.60000610352</ele>
        <time>2015-01-18T07:45:26.000Z</time>
      </trkpt>
      <trkpt lat="43.59792" lon="1.17466">
        <ele>275.39999389648</ele>
        <time>2015-01-18T07:45:31.000Z</time>
      </trkpt>
      <trkpt lat="43.59795" lon="1.17451">
        <ele>276.20001220703</ele>
        <time>2015-01-18T07:45:36.000Z</time>
      </trkpt>
      <trkpt lat="43.59801" lon="1.17434">
        <ele>277.39999389648</ele>
        <time>2015-01-18T07:45:42.000Z</time>
      </trkpt>
      <trkpt lat="43.59812" lon="1.17416">
        <ele>279</ele>
        <time>2015-01-18T07:45:49.000Z</time>
      </trkpt>
      <trkpt lat="43.59819" lon="1.17407">
        <ele>280</ele>
        <time>2015-01-18T07:45:53.000Z</time>
      </trkpt>
      <trkpt lat="43.59834" lon="1.17395">
        <ele>281.39999389648</ele>
        <time>2015-01-18T07:46:00.000Z</time>
      </trkpt>
      <trkpt lat="43.59838" lon="1.17392">
        <ele>281.60000610352</ele>
        <time>2015-01-18T07:46:02.000Z</time>
      </trkpt>
      <trkpt lat="43.59846" lon="1.17387">
        <ele>282.20001220703</ele>
        <time>2015-01-18T07:46:06.000Z</time>
      </trkpt>
      <trkpt lat="43.59848" lon="1.17385">
        <ele>282.39999389648</ele>
        <time>2015-01-18T07:46:07.000Z</time>
      </trkpt>
      <trkpt lat="43.59856" lon="1.17373">
        <ele>283.39999389648</ele>
        <time>2015-01-18T07:46:12.000Z</time>
      </trkpt>
      <trkpt lat="43.59865" lon="1.17358">
        <ele>283.79998779297</ele>
        <time>2015-01-18T07:46:17.000Z</time>
      </trkpt>
      <trkpt lat="43.59873" lon="1.17344">
        <ele>284.39999389648</ele>
        <time>2015-01-18T07:46:22.000Z</time>
      </trkpt>
      <trkpt lat="43.59877" lon="1.17334">
        <ele>284.79998779297</ele>
        <time>2015-01-18T07:46:25.000Z</time>
      </trkpt>
      <trkpt lat="43.59885" lon="1.17315">
        <ele>285.39999389648</ele>
        <time>2015-01-18T07:46:31.000Z</time>
      </trkpt>
      <trkpt lat="43.59894" lon="1.17296">
        <ele>284.39999389648</ele>
        <time>2015-01-18T07:46:37.000Z</time>
      </trkpt>
      <trkpt lat="43.59906" lon="1.17276">
        <ele>283</ele>
        <time>2015-01-18T07:46:44.000Z</time>
      </trkpt>
      <trkpt lat="43.59913" lon="1.17265">
        <ele>282.79998779297</ele>
        <time>2015-01-18T07:46:48.000Z</time>
      </trkpt>
      <trkpt lat="43.59926" lon="1.1725">
        <ele>282.39999389648</ele>
        <time>2015-01-18T07:46:55.000Z</time>
      </trkpt>
      <trkpt lat="43.59936" lon="1.17237">
        <ele>282</ele>
        <time>2015-01-18T07:47:00.000Z</time>
      </trkpt>
      <trkpt lat="43.59944" lon="1.17221">
        <ele>281.79998779297</ele>
        <time>2015-01-18T07:47:06.000Z</time>
      </trkpt>
      <trkpt lat="43.5995" lon="1.17203">
        <ele>281.39999389648</ele>
        <time>2015-01-18T07:47:12.000Z</time>
      </trkpt>
      <trkpt lat="43.59956" lon="1.17188">
        <ele>281</ele>
        <time>2015-01-18T07:47:17.000Z</time>
      </trkpt>
      <trkpt lat="43.59959" lon="1.17175">
        <ele>280.79998779297</ele>
        <time>2015-01-18T07:47:21.000Z</time>
      </trkpt>
      <trkpt lat="43.59966" lon="1.17159">
        <ele>280.79998779297</ele>
        <time>2015-01-18T07:47:27.000Z</time>
      </trkpt>
      <trkpt lat="43.59973" lon="1.1714">
        <ele>280.60000610352</ele>
        <time>2015-01-18T07:47:33.000Z</time>
      </trkpt>
      <trkpt lat="43.59982" lon="1.17124">
        <ele>279.39999389648</ele>
        <time>2015-01-18T07:47:39.000Z</time>
      </trkpt>
      <trkpt lat="43.59993" lon="1.17109">
        <ele>278.79998779297</ele>
        <time>2015-01-18T07:47:45.000Z</time>
      </trkpt>
      <trkpt lat="43.60006" lon="1.17091">
        <ele>279.20001220703</ele>
        <time>2015-01-18T07:47:52.000Z</time>
      </trkpt>
      <trkpt lat="43.60013" lon="1.17081">
        <ele>279.39999389648</ele>
        <time>2015-01-18T07:47:56.000Z</time>
      </trkpt>
      <trkpt lat="43.60024" lon="1.17068">
        <ele>279</ele>
        <time>2015-01-18T07:48:02.000Z</time>
      </trkpt>
      <trkpt lat="43.60035" lon="1.17056">
        <ele>280.20001220703</ele>
        <time>2015-01-18T07:48:07.000Z</time>
      </trkpt>
      <trkpt lat="43.60044" lon="1.17047">
        <ele>280.79998779297</ele>
        <time>2015-01-18T07:48:12.000Z</time>
      </trkpt>
      <trkpt lat="43.6005" lon="1.17042">
        <ele>281.20001220703</ele>
        <time>2015-01-18T07:48:15.000Z</time>
      </trkpt>
      <trkpt lat="43.60059" lon="1.17025">
        <ele>282</ele>
        <time>2015-01-18T07:48:21.000Z</time>
      </trkpt>
      <trkpt lat="43.60068" lon="1.17005">
        <ele>282.39999389648</ele>
        <time>2015-01-18T07:48:28.000Z</time>
      </trkpt>
      <trkpt lat="43.60071" lon="1.16998">
        <ele>282.39999389648</ele>
        <time>2015-01-18T07:48:30.000Z</time>
      </trkpt>
      <trkpt lat="43.60076" lon="1.16982">
        <ele>282.60000610352</ele>
        <time>2015-01-18T07:48:35.000Z</time>
      </trkpt>
      <trkpt lat="43.60084" lon="1.16967">
        <ele>283.79998779297</ele>
        <time>2015-01-18T07:48:41.000Z</time>
      </trkpt>
      <trkpt lat="43.60087" lon="1.16957">
        <ele>284.39999389648</ele>
        <time>2015-01-18T07:48:44.000Z</time>
      </trkpt>
      <trkpt lat="43.60088" lon="1.1695">
        <ele>284.39999389648</ele>
        <time>2015-01-18T07:48:46.000Z</time>
      </trkpt>
      <trkpt lat="43.60093" lon="1.16931">
        <ele>285</ele>
        <time>2015-01-18T07:48:52.000Z</time>
      </trkpt>
      <trkpt lat="43.60094" lon="1.16929">
        <ele>285</ele>
        <time>2015-01-18T07:48:53.000Z</time>
      </trkpt>
      <trkpt lat="43.601" lon="1.16912">
        <ele>285.60000610352</ele>
        <time>2015-01-18T07:48:58.000Z</time>
      </trkpt>
      <trkpt lat="43.60103" lon="1.16896">
        <ele>285.79998779297</ele>
        <time>2015-01-18T07:49:03.000Z</time>
      </trkpt>
      <trkpt lat="43.6011" lon="1.16878">
        <ele>287.60000610352</ele>
        <time>2015-01-18T07:49:09.000Z</time>
      </trkpt>
      <trkpt lat="43.60111" lon="1.16871">
        <ele>288.20001220703</ele>
        <time>2015-01-18T07:49:11.000Z</time>
      </trkpt>
      <trkpt lat="43.60112" lon="1.16854">
        <ele>289.79998779297</ele>
        <time>2015-01-18T07:49:16.000Z</time>
      </trkpt>
      <trkpt lat="43.60112" lon="1.16851">
        <ele>290.20001220703</ele>
        <time>2015-01-18T07:49:17.000Z</time>
      </trkpt>
      <trkpt lat="43.60114" lon="1.16845">
        <ele>290.79998779297</ele>
        <time>2015-01-18T07:49:19.000Z</time>
      </trkpt>
      <trkpt lat="43.60117" lon="1.16832">
        <ele>292</ele>
        <time>2015-01-18T07:49:23.000Z</time>
      </trkpt>
      <trkpt lat="43.60117" lon="1.16826">
        <ele>292.60000610352</ele>
        <time>2015-01-18T07:49:25.000Z</time>
      </trkpt>
      <trkpt lat="43.60119" lon="1.16804">
        <ele>293.20001220703</ele>
        <time>2015-01-18T07:49:32.000Z</time>
      </trkpt>
      <trkpt lat="43.6012" lon="1.16791">
        <ele>293.39999389648</ele>
        <time>2015-01-18T07:49:36.000Z</time>
      </trkpt>
      <trkpt lat="43.60121" lon="1.16781">
        <ele>293.60000610352</ele>
        <time>2015-01-18T07:49:39.000Z</time>
      </trkpt>
      <trkpt lat="43.6012" lon="1.16766">
        <ele>294</ele>
        <time>2015-01-18T07:49:44.000Z</time>
      </trkpt>
      <trkpt lat="43.60119" lon="1.16763">
        <ele>294.20001220703</ele>
        <time>2015-01-18T07:49:45.000Z</time>
      </trkpt>
      <trkpt lat="43.60116" lon="1.1674">
        <ele>295</ele>
        <time>2015-01-18T07:49:52.000Z</time>
      </trkpt>
      <trkpt lat="43.60114" lon="1.16724">
        <ele>295.79998779297</ele>
        <time>2015-01-18T07:49:57.000Z</time>
      </trkpt>
      <trkpt lat="43.60113" lon="1.16701">
        <ele>295.60000610352</ele>
        <time>2015-01-18T07:50:04.000Z</time>
      </trkpt>
      <trkpt lat="43.60112" lon="1.16698">
        <ele>295.60000610352</ele>
        <time>2015-01-18T07:50:05.000Z</time>
      </trkpt>
      <trkpt lat="43.60115" lon="1.1668">
        <ele>295.20001220703</ele>
        <time>2015-01-18T07:50:11.000Z</time>
      </trkpt>
      <trkpt lat="43.60117" lon="1.16662">
        <ele>295</ele>
        <time>2015-01-18T07:50:16.000Z</time>
      </trkpt>
      <trkpt lat="43.60117" lon="1.16648">
        <ele>295.20001220703</ele>
        <time>2015-01-18T07:50:20.000Z</time>
      </trkpt>
      <trkpt lat="43.60118" lon="1.16628">
        <ele>295.60000610352</ele>
        <time>2015-01-18T07:50:25.000Z</time>
      </trkpt>
      <trkpt lat="43.60118" lon="1.16625">
        <ele>295.60000610352</ele>
        <time>2015-01-18T07:50:26.000Z</time>
      </trkpt>
      <trkpt lat="43.60119" lon="1.16606">
        <ele>296.20001220703</ele>
        <time>2015-01-18T07:50:31.000Z</time>
      </trkpt>
      <trkpt lat="43.60118" lon="1.16588">
        <ele>296.60000610352</ele>
        <time>2015-01-18T07:50:36.000Z</time>
      </trkpt>
      <trkpt lat="43.60113" lon="1.16564">
        <ele>297</ele>
        <time>2015-01-18T07:50:42.000Z</time>
      </trkpt>
      <trkpt lat="43.6011" lon="1.16545">
        <ele>297.20001220703</ele>
        <time>2015-01-18T07:50:47.000Z</time>
      </trkpt>
      <trkpt lat="43.60111" lon="1.16523">
        <ele>297.60000610352</ele>
        <time>2015-01-18T07:50:53.000Z</time>
      </trkpt>
      <trkpt lat="43.60111" lon="1.16504">
        <ele>297.79998779297</ele>
        <time>2015-01-18T07:50:58.000Z</time>
      </trkpt>
      <trkpt lat="43.60109" lon="1.16482">
        <ele>298.20001220703</ele>
        <time>2015-01-18T07:51:04.000Z</time>
      </trkpt>
      <trkpt lat="43.60108" lon="1.16479">
        <ele>298.20001220703</ele>
        <time>2015-01-18T07:51:05.000Z</time>
      </trkpt>
      <trkpt lat="43.60103" lon="1.16463">
        <ele>298</ele>
        <time>2015-01-18T07:51:09.000Z</time>
      </trkpt>
      <trkpt lat="43.60098" lon="1.16443">
        <ele>297.20001220703</ele>
        <time>2015-01-18T07:51:15.000Z</time>
      </trkpt>
      <trkpt lat="43.60095" lon="1.16425">
        <ele>296.60000610352</ele>
        <time>2015-01-18T07:51:20.000Z</time>
      </trkpt>
      <trkpt lat="43.60096" lon="1.16409">
        <ele>296.79998779297</ele>
        <time>2015-01-18T07:51:25.000Z</time>
      </trkpt>
      <trkpt lat="43.60101" lon="1.1639">
        <ele>297.60000610352</ele>
        <time>2015-01-18T07:51:30.000Z</time>
      </trkpt>
      <trkpt lat="43.60104" lon="1.16372">
        <ele>296.79998779297</ele>
        <time>2015-01-18T07:51:35.000Z</time>
      </trkpt>
      <trkpt lat="43.60106" lon="1.16351">
        <ele>295.60000610352</ele>
        <time>2015-01-18T07:51:40.000Z</time>
      </trkpt>
      <trkpt lat="43.60107" lon="1.16333">
        <ele>294.60000610352</ele>
        <time>2015-01-18T07:51:45.000Z</time>
      </trkpt>
      <trkpt lat="43.60108" lon="1.16319">
        <ele>293.79998779297</ele>
        <time>2015-01-18T07:51:49.000Z</time>
      </trkpt>
      <trkpt lat="43.60115" lon="1.163">
        <ele>293.60000610352</ele>
        <time>2015-01-18T07:51:55.000Z</time>
      </trkpt>
      <trkpt lat="43.60118" lon="1.16296">
        <ele>293.60000610352</ele>
        <time>2015-01-18T07:51:57.000Z</time>
      </trkpt>
      <trkpt lat="43.60131" lon="1.16295">
        <ele>294.79998779297</ele>
        <time>2015-01-18T07:52:02.000Z</time>
      </trkpt>
      <trkpt lat="43.60132" lon="1.16295">
        <ele>295</ele>
        <time>2015-01-18T07:52:03.000Z</time>
      </trkpt>
      <trkpt lat="43.60141" lon="1.163">
        <ele>296</ele>
        <time>2015-01-18T07:52:07.000Z</time>
      </trkpt>
      <trkpt lat="43.60143" lon="1.16306">
        <ele>296.60000610352</ele>
        <time>2015-01-18T07:52:09.000Z</time>
      </trkpt>
      <trkpt lat="43.60149" lon="1.16316">
        <ele>297.60000610352</ele>
        <time>2015-01-18T07:52:14.000Z</time>
      </trkpt>
      <trkpt lat="43.60156" lon="1.16326">
        <ele>298.60000610352</ele>
        <time>2015-01-18T07:52:18.000Z</time>
      </trkpt>
      <trkpt lat="43.60167" lon="1.16327">
        <ele>299.60000610352</ele>
        <time>2015-01-18T07:52:22.000Z</time>
      </trkpt>
      <trkpt lat="43.6017" lon="1.16327">
        <ele>300</ele>
        <time>2015-01-18T07:52:23.000Z</time>
      </trkpt>
      <trkpt lat="43.60184" lon="1.16319">
        <ele>301</ele>
        <time>2015-01-18T07:52:28.000Z</time>
      </trkpt>
      <trkpt lat="43.60197" lon="1.16302">
        <ele>300</ele>
        <time>2015-01-18T07:52:34.000Z</time>
      </trkpt>
      <trkpt lat="43.60209" lon="1.1629">
        <ele>298.79998779297</ele>
        <time>2015-01-18T07:52:39.000Z</time>
      </trkpt>
      <trkpt lat="43.6022" lon="1.16285">
        <ele>298</ele>
        <time>2015-01-18T07:52:43.000Z</time>
      </trkpt>
      <trkpt lat="43.60236" lon="1.16289">
        <ele>297.39999389648</ele>
        <time>2015-01-18T07:52:48.000Z</time>
      </trkpt>
      <trkpt lat="43.60242" lon="1.16291">
        <ele>297.39999389648</ele>
        <time>2015-01-18T07:52:50.000Z</time>
      </trkpt>
      <trkpt lat="43.60252" lon="1.16298">
        <ele>297.20001220703</ele>
        <time>2015-01-18T07:52:55.000Z</time>
      </trkpt>
      <trkpt lat="43.60255" lon="1.16298">
        <ele>297</ele>
        <time>2015-01-18T07:52:56.000Z</time>
      </trkpt>
      <trkpt lat="43.60268" lon="1.16303">
        <ele>297.20001220703</ele>
        <time>2015-01-18T07:53:00.000Z</time>
      </trkpt>
      <trkpt lat="43.60284" lon="1.1631">
        <ele>296.20001220703</ele>
        <time>2015-01-18T07:53:05.000Z</time>
      </trkpt>
      <trkpt lat="43.60293" lon="1.1632">
        <ele>295.39999389648</ele>
        <time>2015-01-18T07:53:09.000Z</time>
      </trkpt>
      <trkpt lat="43.603" lon="1.16331">
        <ele>295</ele>
        <time>2015-01-18T07:53:12.000Z</time>
      </trkpt>
      <trkpt lat="43.60312" lon="1.16353">
        <ele>294.39999389648</ele>
        <time>2015-01-18T07:53:18.000Z</time>
      </trkpt>
      <trkpt lat="43.6032" lon="1.1637">
        <ele>293.79998779297</ele>
        <time>2015-01-18T07:53:23.000Z</time>
      </trkpt>
      <trkpt lat="43.60323" lon="1.16374">
        <ele>293.60000610352</ele>
        <time>2015-01-18T07:53:25.000Z</time>
      </trkpt>
      <trkpt lat="43.60334" lon="1.16387">
        <ele>293</ele>
        <time>2015-01-18T07:53:30.000Z</time>
      </trkpt>
      <trkpt lat="43.60342" lon="1.16398">
        <ele>292.39999389648</ele>
        <time>2015-01-18T07:53:34.000Z</time>
      </trkpt>
      <trkpt lat="43.60348" lon="1.16409">
        <ele>292</ele>
        <time>2015-01-18T07:53:38.000Z</time>
      </trkpt>
      <trkpt lat="43.60357" lon="1.16421">
        <ele>291.20001220703</ele>
        <time>2015-01-18T07:53:44.000Z</time>
      </trkpt>
      <trkpt lat="43.60368" lon="1.16438">
        <ele>290</ele>
        <time>2015-01-18T07:53:51.000Z</time>
      </trkpt>
      <trkpt lat="43.60373" lon="1.16446">
        <ele>289.60000610352</ele>
        <time>2015-01-18T07:53:54.000Z</time>
      </trkpt>
      <trkpt lat="43.60381" lon="1.16469">
        <ele>288.60000610352</ele>
        <time>2015-01-18T07:54:00.000Z</time>
      </trkpt>
      <trkpt lat="43.60387" lon="1.1649">
        <ele>288.60000610352</ele>
        <time>2015-01-18T07:54:06.000Z</time>
      </trkpt>
      <trkpt lat="43.60389" lon="1.16505">
        <ele>288.79998779297</ele>
        <time>2015-01-18T07:54:10.000Z</time>
      </trkpt>
      <trkpt lat="43.6039" lon="1.16517">
        <ele>289.20001220703</ele>
        <time>2015-01-18T07:54:13.000Z</time>
      </trkpt>
      <trkpt lat="43.60396" lon="1.16541">
        <ele>288.20001220703</ele>
        <time>2015-01-18T07:54:19.000Z</time>
      </trkpt>
      <trkpt lat="43.60401" lon="1.16564">
        <ele>287.39999389648</ele>
        <time>2015-01-18T07:54:25.000Z</time>
      </trkpt>
      <trkpt lat="43.60402" lon="1.16567">
        <ele>287.39999389648</ele>
        <time>2015-01-18T07:54:26.000Z</time>
      </trkpt>
      <trkpt lat="43.60407" lon="1.16582">
        <ele>287.60000610352</ele>
        <time>2015-01-18T07:54:30.000Z</time>
      </trkpt>
      <trkpt lat="43.60413" lon="1.16604">
        <ele>287.79998779297</ele>
        <time>2015-01-18T07:54:35.000Z</time>
      </trkpt>
      <trkpt lat="43.60417" lon="1.16618">
        <ele>287.79998779297</ele>
        <time>2015-01-18T07:54:39.000Z</time>
      </trkpt>
      <trkpt lat="43.60427" lon="1.16623">
        <ele>287.79998779297</ele>
        <time>2015-01-18T07:54:43.000Z</time>
      </trkpt>
      <trkpt lat="43.60436" lon="1.16624">
        <ele>287.60000610352</ele>
        <time>2015-01-18T07:54:47.000Z</time>
      </trkpt>
      <trkpt lat="43.60447" lon="1.16634">
        <ele>286.60000610352</ele>
        <time>2015-01-18T07:54:52.000Z</time>
      </trkpt>
      <trkpt lat="43.6045" lon="1.16637">
        <ele>286.39999389648</ele>
        <time>2015-01-18T07:54:53.000Z</time>
      </trkpt>
      <trkpt lat="43.60462" lon="1.16647">
        <ele>285</ele>
        <time>2015-01-18T07:54:58.000Z</time>
      </trkpt>
      <trkpt lat="43.60464" lon="1.1665">
        <ele>284.79998779297</ele>
        <time>2015-01-18T07:54:59.000Z</time>
      </trkpt>
      <trkpt lat="43.60472" lon="1.16662">
        <ele>284</ele>
        <time>2015-01-18T07:55:03.000Z</time>
      </trkpt>
      <trkpt lat="43.60473" lon="1.16666">
        <ele>283.79998779297</ele>
        <time>2015-01-18T07:55:04.000Z</time>
      </trkpt>
      <trkpt lat="43.60477" lon="1.16672">
        <ele>283.39999389648</ele>
        <time>2015-01-18T07:55:06.000Z</time>
      </trkpt>
      <trkpt lat="43.6049" lon="1.16686">
        <ele>282.20001220703</ele>
        <time>2015-01-18T07:55:11.000Z</time>
      </trkpt>
      <trkpt lat="43.60497" lon="1.16698">
        <ele>281.39999389648</ele>
        <time>2015-01-18T07:55:15.000Z</time>
      </trkpt>
      <trkpt lat="43.60503" lon="1.16709">
        <ele>280.60000610352</ele>
        <time>2015-01-18T07:55:19.000Z</time>
      </trkpt>
      <trkpt lat="43.60504" lon="1.16712">
        <ele>280.60000610352</ele>
        <time>2015-01-18T07:55:20.000Z</time>
      </trkpt>
      <trkpt lat="43.60507" lon="1.16717">
        <ele>280.20001220703</ele>
        <time>2015-01-18T07:55:22.000Z</time>
      </trkpt>
      <trkpt lat="43.60521" lon="1.16726">
        <ele>278.79998779297</ele>
        <time>2015-01-18T07:55:27.000Z</time>
      </trkpt>
      <trkpt lat="43.60523" lon="1.16729">
        <ele>278.79998779297</ele>
        <time>2015-01-18T07:55:28.000Z</time>
      </trkpt>
      <trkpt lat="43.60535" lon="1.16739">
        <ele>278.39999389648</ele>
        <time>2015-01-18T07:55:33.000Z</time>
      </trkpt>
      <trkpt lat="43.60544" lon="1.16749">
        <ele>278.20001220703</ele>
        <time>2015-01-18T07:55:37.000Z</time>
      </trkpt>
      <trkpt lat="43.60553" lon="1.1676">
        <ele>278</ele>
        <time>2015-01-18T07:55:42.000Z</time>
      </trkpt>
      <trkpt lat="43.6056" lon="1.16774">
        <ele>278.20001220703</ele>
        <time>2015-01-18T07:55:47.000Z</time>
      </trkpt>
      <trkpt lat="43.60563" lon="1.16776">
        <ele>278.20001220703</ele>
        <time>2015-01-18T07:55:48.000Z</time>
      </trkpt>
      <trkpt lat="43.60573" lon="1.16803">
        <ele>278.79998779297</ele>
        <time>2015-01-18T07:55:56.000Z</time>
      </trkpt>
      <trkpt lat="43.60577" lon="1.16813">
        <ele>278.79998779297</ele>
        <time>2015-01-18T07:55:59.000Z</time>
      </trkpt>
      <trkpt lat="43.60581" lon="1.1682">
        <ele>278.79998779297</ele>
        <time>2015-01-18T07:56:01.000Z</time>
      </trkpt>
      <trkpt lat="43.60587" lon="1.16835">
        <ele>279</ele>
        <time>2015-01-18T07:56:05.000Z</time>
      </trkpt>
      <trkpt lat="43.60589" lon="1.16838">
        <ele>279</ele>
        <time>2015-01-18T07:56:06.000Z</time>
      </trkpt>
      <trkpt lat="43.60598" lon="1.16857">
        <ele>278.79998779297</ele>
        <time>2015-01-18T07:56:11.000Z</time>
      </trkpt>
      <trkpt lat="43.60606" lon="1.16868">
        <ele>278.79998779297</ele>
        <time>2015-01-18T07:56:15.000Z</time>
      </trkpt>
      <trkpt lat="43.6061" lon="1.16878">
        <ele>278.79998779297</ele>
        <time>2015-01-18T07:56:18.000Z</time>
      </trkpt>
      <trkpt lat="43.60621" lon="1.16891">
        <ele>278.20001220703</ele>
        <time>2015-01-18T07:56:23.000Z</time>
      </trkpt>
      <trkpt lat="43.60625" lon="1.169">
        <ele>278</ele>
        <time>2015-01-18T07:56:25.000Z</time>
      </trkpt>
      <trkpt lat="43.60627" lon="1.16909">
        <ele>277.79998779297</ele>
        <time>2015-01-18T07:56:27.000Z</time>
      </trkpt>
      <trkpt lat="43.60629" lon="1.16925">
        <ele>277.39999389648</ele>
        <time>2015-01-18T07:56:31.000Z</time>
      </trkpt>
      <trkpt lat="43.60631" lon="1.16941">
        <ele>277.60000610352</ele>
        <time>2015-01-18T07:56:35.000Z</time>
      </trkpt>
      <trkpt lat="43.60624" lon="1.16953">
        <ele>278.60000610352</ele>
        <time>2015-01-18T07:56:39.000Z</time>
      </trkpt>
      <trkpt lat="43.60629" lon="1.16967">
        <ele>278.60000610352</ele>
        <time>2015-01-18T07:56:44.000Z</time>
      </trkpt>
      <trkpt lat="43.60634" lon="1.16976">
        <ele>278.20001220703</ele>
        <time>2015-01-18T07:56:47.000Z</time>
      </trkpt>
      <trkpt lat="43.60637" lon="1.16995">
        <ele>278</ele>
        <time>2015-01-18T07:56:52.000Z</time>
      </trkpt>
      <trkpt lat="43.60638" lon="1.17002">
        <ele>278</ele>
        <time>2015-01-18T07:56:54.000Z</time>
      </trkpt>
      <trkpt lat="43.6064" lon="1.17008">
        <ele>277.79998779297</ele>
        <time>2015-01-18T07:56:56.000Z</time>
      </trkpt>
      <trkpt lat="43.60644" lon="1.17019">
        <ele>277.39999389648</ele>
        <time>2015-01-18T07:56:59.000Z</time>
      </trkpt>
      <trkpt lat="43.60654" lon="1.17037">
        <ele>276.39999389648</ele>
        <time>2015-01-18T07:57:04.000Z</time>
      </trkpt>
      <trkpt lat="43.60654" lon="1.17041">
        <ele>276.39999389648</ele>
        <time>2015-01-18T07:57:05.000Z</time>
      </trkpt>
      <trkpt lat="43.60656" lon="1.17051">
        <ele>276.39999389648</ele>
        <time>2015-01-18T07:57:08.000Z</time>
      </trkpt>
      <trkpt lat="43.60662" lon="1.17074">
        <ele>276.60000610352</ele>
        <time>2015-01-18T07:57:14.000Z</time>
      </trkpt>
      <trkpt lat="43.60663" lon="1.17077">
        <ele>276.60000610352</ele>
        <time>2015-01-18T07:57:15.000Z</time>
      </trkpt>
      <trkpt lat="43.60667" lon="1.17089">
        <ele>276.79998779297</ele>
        <time>2015-01-18T07:57:18.000Z</time>
      </trkpt>
      <trkpt lat="43.60667" lon="1.17093">
        <ele>277.20001220703</ele>
        <time>2015-01-18T07:57:19.000Z</time>
      </trkpt>
      <trkpt lat="43.60667" lon="1.171">
        <ele>277.60000610352</ele>
        <time>2015-01-18T07:57:21.000Z</time>
      </trkpt>
      <trkpt lat="43.60673" lon="1.17116">
        <ele>277.79998779297</ele>
        <time>2015-01-18T07:57:25.000Z</time>
      </trkpt>
      <trkpt lat="43.60678" lon="1.1713">
        <ele>278</ele>
        <time>2015-01-18T07:57:29.000Z</time>
      </trkpt>
      <trkpt lat="43.60684" lon="1.17138">
        <ele>277.79998779297</ele>
        <time>2015-01-18T07:57:32.000Z</time>
      </trkpt>
      <trkpt lat="43.60694" lon="1.17151">
        <ele>277.20001220703</ele>
        <time>2015-01-18T07:57:36.000Z</time>
      </trkpt>
      <trkpt lat="43.60698" lon="1.17172">
        <ele>276.60000610352</ele>
        <time>2015-01-18T07:57:42.000Z</time>
      </trkpt>
      <trkpt lat="43.60698" lon="1.17188">
        <ele>276.39999389648</ele>
        <time>2015-01-18T07:57:46.000Z</time>
      </trkpt>
      <trkpt lat="43.60697" lon="1.17205">
        <ele>276.20001220703</ele>
        <time>2015-01-18T07:57:51.000Z</time>
      </trkpt>
      <trkpt lat="43.60697" lon="1.17213">
        <ele>276.20001220703</ele>
        <time>2015-01-18T07:57:53.000Z</time>
      </trkpt>
      <trkpt lat="43.60705" lon="1.17218">
        <ele>275.39999389648</ele>
        <time>2015-01-18T07:57:57.000Z</time>
      </trkpt>
      <trkpt lat="43.60713" lon="1.17231">
        <ele>274.79998779297</ele>
        <time>2015-01-18T07:58:01.000Z</time>
      </trkpt>
      <trkpt lat="43.60716" lon="1.17244">
        <ele>275</ele>
        <time>2015-01-18T07:58:04.000Z</time>
      </trkpt>
      <trkpt lat="43.6072" lon="1.1725">
        <ele>274.79998779297</ele>
        <time>2015-01-18T07:58:06.000Z</time>
      </trkpt>
      <trkpt lat="43.60728" lon="1.17271">
        <ele>275</ele>
        <time>2015-01-18T07:58:12.000Z</time>
      </trkpt>
      <trkpt lat="43.60731" lon="1.1728">
        <ele>274.79998779297</ele>
        <time>2015-01-18T07:58:15.000Z</time>
      </trkpt>
      <trkpt lat="43.60742" lon="1.17288">
        <ele>274.20001220703</ele>
        <time>2015-01-18T07:58:20.000Z</time>
      </trkpt>
      <trkpt lat="43.60753" lon="1.17295">
        <ele>273.79998779297</ele>
        <time>2015-01-18T07:58:24.000Z</time>
      </trkpt>
      <trkpt lat="43.60764" lon="1.17301">
        <ele>273</ele>
        <time>2015-01-18T07:58:28.000Z</time>
      </trkpt>
      <trkpt lat="43.60782" lon="1.17307">
        <ele>271.79998779297</ele>
        <time>2015-01-18T07:58:34.000Z</time>
      </trkpt>
      <trkpt lat="43.60797" lon="1.17315">
        <ele>271.20001220703</ele>
        <time>2015-01-18T07:58:39.000Z</time>
      </trkpt>
      <trkpt lat="43.60799" lon="1.17317">
        <ele>271.20001220703</ele>
        <time>2015-01-18T07:58:40.000Z</time>
      </trkpt>
      <trkpt lat="43.60829" lon="1.17337">
        <ele>270.79998779297</ele>
        <time>2015-01-18T07:58:51.000Z</time>
      </trkpt>
      <trkpt lat="43.60842" lon="1.17351">
        <ele>271</ele>
        <time>2015-01-18T07:58:57.000Z</time>
      </trkpt>
      <trkpt lat="43.60844" lon="1.17353">
        <ele>271</ele>
        <time>2015-01-18T07:58:58.000Z</time>
      </trkpt>
      <trkpt lat="43.60856" lon="1.17353">
        <ele>270.20001220703</ele>
        <time>2015-01-18T07:59:03.000Z</time>
      </trkpt>
      <trkpt lat="43.60861" lon="1.17352">
        <ele>269.60000610352</ele>
        <time>2015-01-18T07:59:05.000Z</time>
      </trkpt>
      <trkpt lat="43.60876" lon="1.17354">
        <ele>268.20001220703</ele>
        <time>2015-01-18T07:59:10.000Z</time>
      </trkpt>
      <trkpt lat="43.60884" lon="1.17358">
        <ele>267.79998779297</ele>
        <time>2015-01-18T07:59:13.000Z</time>
      </trkpt>
      <trkpt lat="43.60898" lon="1.17362">
        <ele>266.79998779297</ele>
        <time>2015-01-18T07:59:18.000Z</time>
      </trkpt>
      <trkpt lat="43.609" lon="1.17363">
        <ele>266.79998779297</ele>
        <time>2015-01-18T07:59:19.000Z</time>
      </trkpt>
      <trkpt lat="43.60918" lon="1.17373">
        <ele>266</ele>
        <time>2015-01-18T07:59:25.000Z</time>
      </trkpt>
      <trkpt lat="43.60927" lon="1.17384">
        <ele>266</ele>
        <time>2015-01-18T07:59:29.000Z</time>
      </trkpt>
      <trkpt lat="43.60937" lon="1.1739">
        <ele>265.60000610352</ele>
        <time>2015-01-18T07:59:32.000Z</time>
      </trkpt>
      <trkpt lat="43.60951" lon="1.17397">
        <ele>265.79998779297</ele>
        <time>2015-01-18T07:59:37.000Z</time>
      </trkpt>
      <trkpt lat="43.60953" lon="1.17398">
        <ele>265.79998779297</ele>
        <time>2015-01-18T07:59:38.000Z</time>
      </trkpt>
      <trkpt lat="43.60959" lon="1.17402">
        <ele>265.79998779297</ele>
        <time>2015-01-18T07:59:41.000Z</time>
      </trkpt>
      <trkpt lat="43.60971" lon="1.17409">
        <ele>265.79998779297</ele>
        <time>2015-01-18T07:59:46.000Z</time>
      </trkpt>
      <trkpt lat="43.60983" lon="1.17417">
        <ele>266</ele>
        <time>2015-01-18T07:59:50.000Z</time>
      </trkpt>
      <trkpt lat="43.60986" lon="1.17418">
        <ele>266</ele>
        <time>2015-01-18T07:59:51.000Z</time>
      </trkpt>
      <trkpt lat="43.60996" lon="1.17424">
        <ele>266</ele>
        <time>2015-01-18T07:59:54.000Z</time>
      </trkpt>
      <trkpt lat="43.61009" lon="1.17433">
        <ele>266</ele>
        <time>2015-01-18T07:59:59.000Z</time>
      </trkpt>
      <trkpt lat="43.61022" lon="1.17443">
        <ele>266</ele>
        <time>2015-01-18T08:00:04.000Z</time>
      </trkpt>
      <trkpt lat="43.61035" lon="1.17451">
        <ele>265.39999389648</ele>
        <time>2015-01-18T08:00:09.000Z</time>
      </trkpt>
      <trkpt lat="43.61044" lon="1.17467">
        <ele>265.20001220703</ele>
        <time>2015-01-18T08:00:14.000Z</time>
      </trkpt>
      <trkpt lat="43.61056" lon="1.17479">
        <ele>264.79998779297</ele>
        <time>2015-01-18T08:00:19.000Z</time>
      </trkpt>
      <trkpt lat="43.61068" lon="1.1748">
        <ele>264</ele>
        <time>2015-01-18T08:00:23.000Z</time>
      </trkpt>
      <trkpt lat="43.6107" lon="1.17482">
        <ele>263.79998779297</ele>
        <time>2015-01-18T08:00:24.000Z</time>
      </trkpt>
      <trkpt lat="43.61078" lon="1.17488">
        <ele>263.39999389648</ele>
        <time>2015-01-18T08:00:28.000Z</time>
      </trkpt>
      <trkpt lat="43.61082" lon="1.17505">
        <ele>264</ele>
        <time>2015-01-18T08:00:33.000Z</time>
      </trkpt>
      <trkpt lat="43.61083" lon="1.17508">
        <ele>264</ele>
        <time>2015-01-18T08:00:34.000Z</time>
      </trkpt>
      <trkpt lat="43.61091" lon="1.1753">
        <ele>264.39999389648</ele>
        <time>2015-01-18T08:00:40.000Z</time>
      </trkpt>
      <trkpt lat="43.61091" lon="1.17533">
        <ele>264.60000610352</ele>
        <time>2015-01-18T08:00:41.000Z</time>
      </trkpt>
      <trkpt lat="43.611" lon="1.17547">
        <ele>264.39999389648</ele>
        <time>2015-01-18T08:00:46.000Z</time>
      </trkpt>
      <trkpt lat="43.61102" lon="1.17557">
        <ele>264.79998779297</ele>
        <time>2015-01-18T08:00:49.000Z</time>
      </trkpt>
      <trkpt lat="43.61103" lon="1.1756">
        <ele>264.79998779297</ele>
        <time>2015-01-18T08:00:50.000Z</time>
      </trkpt>
      <trkpt lat="43.61105" lon="1.17563">
        <ele>264.79998779297</ele>
        <time>2015-01-18T08:00:51.000Z</time>
      </trkpt>
      <trkpt lat="43.61116" lon="1.17564">
        <ele>264.20001220703</ele>
        <time>2015-01-18T08:00:55.000Z</time>
      </trkpt>
      <trkpt lat="43.61124" lon="1.17568">
        <ele>263.79998779297</ele>
        <time>2015-01-18T08:00:58.000Z</time>
      </trkpt>
      <trkpt lat="43.61129" lon="1.17569">
        <ele>263.39999389648</ele>
        <time>2015-01-18T08:01:00.000Z</time>
      </trkpt>
      <trkpt lat="43.61139" lon="1.17577">
        <ele>263</ele>
        <time>2015-01-18T08:01:04.000Z</time>
      </trkpt>
      <trkpt lat="43.61143" lon="1.17588">
        <ele>263.39999389648</ele>
        <time>2015-01-18T08:01:07.000Z</time>
      </trkpt>
      <trkpt lat="43.61151" lon="1.17591">
        <ele>263</ele>
        <time>2015-01-18T08:01:10.000Z</time>
      </trkpt>
      <trkpt lat="43.61154" lon="1.17597">
        <ele>263</ele>
        <time>2015-01-18T08:01:12.000Z</time>
      </trkpt>
      <trkpt lat="43.61164" lon="1.1762">
        <ele>263.39999389648</ele>
        <time>2015-01-18T08:01:19.000Z</time>
      </trkpt>
      <trkpt lat="43.61167" lon="1.17627">
        <ele>263.39999389648</ele>
        <time>2015-01-18T08:01:21.000Z</time>
      </trkpt>
      <trkpt lat="43.61178" lon="1.17634">
        <ele>263</ele>
        <time>2015-01-18T08:01:25.000Z</time>
      </trkpt>
      <trkpt lat="43.61191" lon="1.17653">
        <ele>263</ele>
        <time>2015-01-18T08:01:31.000Z</time>
      </trkpt>
      <trkpt lat="43.61197" lon="1.1766">
        <ele>263</ele>
        <time>2015-01-18T08:01:34.000Z</time>
      </trkpt>
      <trkpt lat="43.61207" lon="1.17673">
        <ele>262.79998779297</ele>
        <time>2015-01-18T08:01:39.000Z</time>
      </trkpt>
      <trkpt lat="43.61223" lon="1.17693">
        <ele>262.79998779297</ele>
        <time>2015-01-18T08:01:46.000Z</time>
      </trkpt>
      <trkpt lat="43.61224" lon="1.17696">
        <ele>262.79998779297</ele>
        <time>2015-01-18T08:01:47.000Z</time>
      </trkpt>
      <trkpt lat="43.61224" lon="1.17699">
        <ele>263</ele>
        <time>2015-01-18T08:01:48.000Z</time>
      </trkpt>
      <trkpt lat="43.61226" lon="1.17713">
        <ele>263.60000610352</ele>
        <time>2015-01-18T08:01:52.000Z</time>
      </trkpt>
      <trkpt lat="43.61228" lon="1.17724">
        <ele>264.20001220703</ele>
        <time>2015-01-18T08:01:56.000Z</time>
      </trkpt>
      <trkpt lat="43.61229" lon="1.17727">
        <ele>264.20001220703</ele>
        <time>2015-01-18T08:01:57.000Z</time>
      </trkpt>
      <trkpt lat="43.61235" lon="1.17747">
        <ele>263.60000610352</ele>
        <time>2015-01-18T08:02:02.000Z</time>
      </trkpt>
      <trkpt lat="43.61237" lon="1.17749">
        <ele>263.39999389648</ele>
        <time>2015-01-18T08:02:03.000Z</time>
      </trkpt>
      <trkpt lat="43.61243" lon="1.17754">
        <ele>262.79998779297</ele>
        <time>2015-01-18T08:02:06.000Z</time>
      </trkpt>
      <trkpt lat="43.61253" lon="1.17761">
        <ele>262</ele>
        <time>2015-01-18T08:02:09.000Z</time>
      </trkpt>
      <trkpt lat="43.6126" lon="1.17773">
        <ele>261.20001220703</ele>
        <time>2015-01-18T08:02:12.000Z</time>
      </trkpt>
      <trkpt lat="43.61265" lon="1.17778">
        <ele>260.60000610352</ele>
        <time>2015-01-18T08:02:15.000Z</time>
      </trkpt>
      <trkpt lat="43.61272" lon="1.17783">
        <ele>260.20001220703</ele>
        <time>2015-01-18T08:02:19.000Z</time>
      </trkpt>
      <trkpt lat="43.61274" lon="1.17789">
        <ele>260.20001220703</ele>
        <time>2015-01-18T08:02:22.000Z</time>
      </trkpt>
      <trkpt lat="43.61279" lon="1.17797">
        <ele>260</ele>
        <time>2015-01-18T08:02:26.000Z</time>
      </trkpt>
      <trkpt lat="43.61284" lon="1.17805">
        <ele>259.79998779297</ele>
        <time>2015-01-18T08:02:29.000Z</time>
      </trkpt>
      <trkpt lat="43.61289" lon="1.17819">
        <ele>259.60000610352</ele>
        <time>2015-01-18T08:02:34.000Z</time>
      </trkpt>
      <trkpt lat="43.61297" lon="1.17827">
        <ele>259.39999389648</ele>
        <time>2015-01-18T08:02:37.000Z</time>
      </trkpt>
      <trkpt lat="43.61304" lon="1.17839">
        <ele>259.20001220703</ele>
        <time>2015-01-18T08:02:42.000Z</time>
      </trkpt>
      <trkpt lat="43.61307" lon="1.17845">
        <ele>259</ele>
        <time>2015-01-18T08:02:44.000Z</time>
      </trkpt>
      <trkpt lat="43.61313" lon="1.17862">
        <ele>259.20001220703</ele>
        <time>2015-01-18T08:02:50.000Z</time>
      </trkpt>
      <trkpt lat="43.61318" lon="1.17873">
        <ele>259.39999389648</ele>
        <time>2015-01-18T08:02:55.000Z</time>
      </trkpt>
      <trkpt lat="43.61333" lon="1.17885">
        <ele>259</ele>
        <time>2015-01-18T08:03:03.000Z</time>
      </trkpt>
      <trkpt lat="43.61339" lon="1.1789">
        <ele>258.60000610352</ele>
        <time>2015-01-18T08:03:06.000Z</time>
      </trkpt>
      <trkpt lat="43.61341" lon="1.17892">
        <ele>258.60000610352</ele>
        <time>2015-01-18T08:03:07.000Z</time>
      </trkpt>
      <trkpt lat="43.61345" lon="1.17899">
        <ele>258.60000610352</ele>
        <time>2015-01-18T08:03:10.000Z</time>
      </trkpt>
      <trkpt lat="43.61355" lon="1.17904">
        <ele>258.39999389648</ele>
        <time>2015-01-18T08:03:14.000Z</time>
      </trkpt>
      <trkpt lat="43.61359" lon="1.17919">
        <ele>259</ele>
        <time>2015-01-18T08:03:18.000Z</time>
      </trkpt>
      <trkpt lat="43.61364" lon="1.17931">
        <ele>259.39999389648</ele>
        <time>2015-01-18T08:03:22.000Z</time>
      </trkpt>
      <trkpt lat="43.61373" lon="1.17943">
        <ele>259.60000610352</ele>
        <time>2015-01-18T08:03:26.000Z</time>
      </trkpt>
      <trkpt lat="43.61385" lon="1.1795">
        <ele>259.39999389648</ele>
        <time>2015-01-18T08:03:30.000Z</time>
      </trkpt>
      <trkpt lat="43.61394" lon="1.17945">
        <ele>259</ele>
        <time>2015-01-18T08:03:34.000Z</time>
      </trkpt>
      <trkpt lat="43.61401" lon="1.17948">
        <ele>258.79998779297</ele>
        <time>2015-01-18T08:03:37.000Z</time>
      </trkpt>
      <trkpt lat="43.61403" lon="1.17951">
        <ele>258.79998779297</ele>
        <time>2015-01-18T08:03:38.000Z</time>
      </trkpt>
      <trkpt lat="43.61404" lon="1.17952">
        <ele>258.79998779297</ele>
        <time>2015-01-18T08:03:39.000Z</time>
      </trkpt>
      <trkpt lat="43.61416" lon="1.17958">
        <ele>258.79998779297</ele>
        <time>2015-01-18T08:03:44.000Z</time>
      </trkpt>
      <trkpt lat="43.61424" lon="1.17963">
        <ele>258.79998779297</ele>
        <time>2015-01-18T08:03:47.000Z</time>
      </trkpt>
      <trkpt lat="43.61429" lon="1.17978">
        <ele>259.20001220703</ele>
        <time>2015-01-18T08:03:52.000Z</time>
      </trkpt>
      <trkpt lat="43.61438" lon="1.17981">
        <ele>259</ele>
        <time>2015-01-18T08:03:56.000Z</time>
      </trkpt>
      <trkpt lat="43.6144" lon="1.17983">
        <ele>258.79998779297</ele>
        <time>2015-01-18T08:03:57.000Z</time>
      </trkpt>
      <trkpt lat="43.61446" lon="1.17985">
        <ele>258.79998779297</ele>
        <time>2015-01-18T08:03:59.000Z</time>
      </trkpt>
      <trkpt lat="43.61453" lon="1.18">
        <ele>258.79998779297</ele>
        <time>2015-01-18T08:04:04.000Z</time>
      </trkpt>
      <trkpt lat="43.61454" lon="1.18003">
        <ele>258.60000610352</ele>
        <time>2015-01-18T08:04:05.000Z</time>
      </trkpt>
      <trkpt lat="43.61463" lon="1.18021">
        <ele>258.60000610352</ele>
        <time>2015-01-18T08:04:10.000Z</time>
      </trkpt>
      <trkpt lat="43.61466" lon="1.18028">
        <ele>258.79998779297</ele>
        <time>2015-01-18T08:04:12.000Z</time>
      </trkpt>
      <trkpt lat="43.61466" lon="1.1804">
        <ele>259</ele>
        <time>2015-01-18T08:04:17.000Z</time>
      </trkpt>
      <trkpt lat="43.61474" lon="1.1805">
        <ele>258.79998779297</ele>
        <time>2015-01-18T08:04:21.000Z</time>
      </trkpt>
      <trkpt lat="43.61481" lon="1.18049">
        <ele>258.39999389648</ele>
        <time>2015-01-18T08:04:24.000Z</time>
      </trkpt>
      <trkpt lat="43.61483" lon="1.18048">
        <ele>258.39999389648</ele>
        <time>2015-01-18T08:04:25.000Z</time>
      </trkpt>
      <trkpt lat="43.61494" lon="1.18045">
        <ele>257.79998779297</ele>
        <time>2015-01-18T08:04:30.000Z</time>
      </trkpt>
      <trkpt lat="43.61502" lon="1.18045">
        <ele>257.39999389648</ele>
        <time>2015-01-18T08:04:33.000Z</time>
      </trkpt>
      <trkpt lat="43.61512" lon="1.18048">
        <ele>257.20001220703</ele>
        <time>2015-01-18T08:04:37.000Z</time>
      </trkpt>
      <trkpt lat="43.61521" lon="1.18047">
        <ele>257</ele>
        <time>2015-01-18T08:04:41.000Z</time>
      </trkpt>
      <trkpt lat="43.61526" lon="1.18051">
        <ele>256.79998779297</ele>
        <time>2015-01-18T08:04:43.000Z</time>
      </trkpt>
      <trkpt lat="43.61532" lon="1.18056">
        <ele>256.60000610352</ele>
        <time>2015-01-18T08:04:46.000Z</time>
      </trkpt>
      <trkpt lat="43.61534" lon="1.18065">
        <ele>256.60000610352</ele>
        <time>2015-01-18T08:04:49.000Z</time>
      </trkpt>
      <trkpt lat="43.6153" lon="1.18074">
        <ele>256.79998779297</ele>
        <time>2015-01-18T08:04:53.000Z</time>
      </trkpt>
      <trkpt lat="43.61537" lon="1.1808">
        <ele>256.79998779297</ele>
        <time>2015-01-18T08:04:58.000Z</time>
      </trkpt>
      <trkpt lat="43.61546" lon="1.18083">
        <ele>256.60000610352</ele>
        <time>2015-01-18T08:05:02.000Z</time>
      </trkpt>
      <trkpt lat="43.61556" lon="1.18083">
        <ele>256.20001220703</ele>
        <time>2015-01-18T08:05:07.000Z</time>
      </trkpt>
      <trkpt lat="43.61558" lon="1.18085">
        <ele>256.20001220703</ele>
        <time>2015-01-18T08:05:08.000Z</time>
      </trkpt>
      <trkpt lat="43.61565" lon="1.18094">
        <ele>256.20001220703</ele>
        <time>2015-01-18T08:05:12.000Z</time>
      </trkpt>
      <trkpt lat="43.61572" lon="1.18106">
        <ele>256.20001220703</ele>
        <time>2015-01-18T08:05:17.000Z</time>
      </trkpt>
      <trkpt lat="43.61583" lon="1.18118">
        <ele>256</ele>
        <time>2015-01-18T08:05:22.000Z</time>
      </trkpt>
      <trkpt lat="43.61584" lon="1.18121">
        <ele>256</ele>
        <time>2015-01-18T08:05:23.000Z</time>
      </trkpt>
      <trkpt lat="43.61592" lon="1.18123">
        <ele>255.80000305176</ele>
        <time>2015-01-18T08:05:27.000Z</time>
      </trkpt>
      <trkpt lat="43.61601" lon="1.18125">
        <ele>255.60000610352</ele>
        <time>2015-01-18T08:05:31.000Z</time>
      </trkpt>
      <trkpt lat="43.61604" lon="1.18126">
        <ele>255.60000610352</ele>
        <time>2015-01-18T08:05:32.000Z</time>
      </trkpt>
      <trkpt lat="43.61613" lon="1.18129">
        <ele>255.39999389648</ele>
        <time>2015-01-18T08:05:36.000Z</time>
      </trkpt>
      <trkpt lat="43.61625" lon="1.18134">
        <ele>255.19999694824</ele>
        <time>2015-01-18T08:05:41.000Z</time>
      </trkpt>
      <trkpt lat="43.61633" lon="1.18141">
        <ele>255.19999694824</ele>
        <time>2015-01-18T08:05:45.000Z</time>
      </trkpt>
      <trkpt lat="43.61636" lon="1.18145">
        <ele>255.19999694824</ele>
        <time>2015-01-18T08:05:47.000Z</time>
      </trkpt>
      <trkpt lat="43.61642" lon="1.18151">
        <ele>255</ele>
        <time>2015-01-18T08:05:50.000Z</time>
      </trkpt>
      <trkpt lat="43.61648" lon="1.18165">
        <ele>254.60000610352</ele>
        <time>2015-01-18T08:05:55.000Z</time>
      </trkpt>
      <trkpt lat="43.6165" lon="1.18168">
        <ele>254.60000610352</ele>
        <time>2015-01-18T08:05:56.000Z</time>
      </trkpt>
      <trkpt lat="43.61655" lon="1.18171">
        <ele>254.39999389648</ele>
        <time>2015-01-18T08:05:58.000Z</time>
      </trkpt>
      <trkpt lat="43.61661" lon="1.18192">
        <ele>254</ele>
        <time>2015-01-18T08:06:06.000Z</time>
      </trkpt>
      <trkpt lat="43.61667" lon="1.18198">
        <ele>253.80000305176</ele>
        <time>2015-01-18T08:06:09.000Z</time>
      </trkpt>
      <trkpt lat="43.61669" lon="1.182">
        <ele>253.80000305176</ele>
        <time>2015-01-18T08:06:10.000Z</time>
      </trkpt>
      <trkpt lat="43.61673" lon="1.18205">
        <ele>253.60000610352</ele>
        <time>2015-01-18T08:06:12.000Z</time>
      </trkpt>
      <trkpt lat="43.61682" lon="1.18219">
        <ele>253.19999694824</ele>
        <time>2015-01-18T08:06:17.000Z</time>
      </trkpt>
      <trkpt lat="43.61689" lon="1.18234">
        <ele>252.80000305176</ele>
        <time>2015-01-18T08:06:21.000Z</time>
      </trkpt>
      <trkpt lat="43.6169" lon="1.18237">
        <ele>253</ele>
        <time>2015-01-18T08:06:22.000Z</time>
      </trkpt>
      <trkpt lat="43.61693" lon="1.18255">
        <ele>253.39999389648</ele>
        <time>2015-01-18T08:06:27.000Z</time>
      </trkpt>
      <trkpt lat="43.61694" lon="1.18266">
        <ele>253.80000305176</ele>
        <time>2015-01-18T08:06:31.000Z</time>
      </trkpt>
      <trkpt lat="43.61694" lon="1.1827">
        <ele>254</ele>
        <time>2015-01-18T08:06:32.000Z</time>
      </trkpt>
      <trkpt lat="43.61694" lon="1.18279">
        <ele>254.39999389648</ele>
        <time>2015-01-18T08:06:36.000Z</time>
      </trkpt>
      <trkpt lat="43.61697" lon="1.1829">
        <ele>254.80000305176</ele>
        <time>2015-01-18T08:06:40.000Z</time>
      </trkpt>
      <trkpt lat="43.61702" lon="1.18302">
        <ele>254.80000305176</ele>
        <time>2015-01-18T08:06:44.000Z</time>
      </trkpt>
      <trkpt lat="43.61705" lon="1.18308">
        <ele>254.80000305176</ele>
        <time>2015-01-18T08:06:46.000Z</time>
      </trkpt>
      <trkpt lat="43.61709" lon="1.18315">
        <ele>254.60000610352</ele>
        <time>2015-01-18T08:06:48.000Z</time>
      </trkpt>
      <trkpt lat="43.61714" lon="1.18322">
        <ele>254.19999694824</ele>
        <time>2015-01-18T08:06:51.000Z</time>
      </trkpt>
      <trkpt lat="43.61725" lon="1.18338">
        <ele>253.60000610352</ele>
        <time>2015-01-18T08:06:56.000Z</time>
      </trkpt>
      <trkpt lat="43.61734" lon="1.18351">
        <ele>253.19999694824</ele>
        <time>2015-01-18T08:07:01.000Z</time>
      </trkpt>
      <trkpt lat="43.61742" lon="1.18357">
        <ele>252.60000610352</ele>
        <time>2015-01-18T08:07:04.000Z</time>
      </trkpt>
      <trkpt lat="43.6175" lon="1.18375">
        <ele>252.19999694824</ele>
        <time>2015-01-18T08:07:10.000Z</time>
      </trkpt>
      <trkpt lat="43.61753" lon="1.18384">
        <ele>252.19999694824</ele>
        <time>2015-01-18T08:07:13.000Z</time>
      </trkpt>
      <trkpt lat="43.61756" lon="1.18389">
        <ele>252</ele>
        <time>2015-01-18T08:07:15.000Z</time>
      </trkpt>
      <trkpt lat="43.61769" lon="1.18398">
        <ele>251</ele>
        <time>2015-01-18T08:07:19.000Z</time>
      </trkpt>
      <trkpt lat="43.6178" lon="1.18407">
        <ele>250.80000305176</ele>
        <time>2015-01-18T08:07:23.000Z</time>
      </trkpt>
      <trkpt lat="43.61787" lon="1.18411">
        <ele>250.39999389648</ele>
        <time>2015-01-18T08:07:26.000Z</time>
      </trkpt>
      <trkpt lat="43.6179" lon="1.18414">
        <ele>250.39999389648</ele>
        <time>2015-01-18T08:07:28.000Z</time>
      </trkpt>
      <trkpt lat="43.61798" lon="1.18423">
        <ele>250.19999694824</ele>
        <time>2015-01-18T08:07:32.000Z</time>
      </trkpt>
      <trkpt lat="43.61802" lon="1.18427">
        <ele>250.19999694824</ele>
        <time>2015-01-18T08:07:34.000Z</time>
      </trkpt>
      <trkpt lat="43.61813" lon="1.18445">
        <ele>250</ele>
        <time>2015-01-18T08:07:40.000Z</time>
      </trkpt>
      <trkpt lat="43.61815" lon="1.18447">
        <ele>250</ele>
        <time>2015-01-18T08:07:41.000Z</time>
      </trkpt>
      <trkpt lat="43.61828" lon="1.18462">
        <ele>249.80000305176</ele>
        <time>2015-01-18T08:07:46.000Z</time>
      </trkpt>
      <trkpt lat="43.61837" lon="1.18485">
        <ele>250</ele>
        <time>2015-01-18T08:07:53.000Z</time>
      </trkpt>
      <trkpt lat="43.61837" lon="1.18489">
        <ele>250</ele>
        <time>2015-01-18T08:07:54.000Z</time>
      </trkpt>
      <trkpt lat="43.61837" lon="1.18496">
        <ele>250.19999694824</ele>
        <time>2015-01-18T08:07:56.000Z</time>
      </trkpt>
      <trkpt lat="43.61846" lon="1.18514">
        <ele>250.19999694824</ele>
        <time>2015-01-18T08:08:02.000Z</time>
      </trkpt>
      <trkpt lat="43.61857" lon="1.18527">
        <ele>249.80000305176</ele>
        <time>2015-01-18T08:08:07.000Z</time>
      </trkpt>
      <trkpt lat="43.61862" lon="1.18539">
        <ele>249.80000305176</ele>
        <time>2015-01-18T08:08:11.000Z</time>
      </trkpt>
      <trkpt lat="43.61865" lon="1.18551">
        <ele>250</ele>
        <time>2015-01-18T08:08:14.000Z</time>
      </trkpt>
      <trkpt lat="43.61875" lon="1.18568">
        <ele>249.39999389648</ele>
        <time>2015-01-18T08:08:19.000Z</time>
      </trkpt>
      <trkpt lat="43.61882" lon="1.18582">
        <ele>248.80000305176</ele>
        <time>2015-01-18T08:08:23.000Z</time>
      </trkpt>
      <trkpt lat="43.61888" lon="1.18598">
        <ele>248</ele>
        <time>2015-01-18T08:08:28.000Z</time>
      </trkpt>
      <trkpt lat="43.61892" lon="1.18613">
        <ele>247.80000305176</ele>
        <time>2015-01-18T08:08:32.000Z</time>
      </trkpt>
      <trkpt lat="43.61893" lon="1.18618">
        <ele>247.80000305176</ele>
        <time>2015-01-18T08:08:33.000Z</time>
      </trkpt>
      <trkpt lat="43.61899" lon="1.18638">
        <ele>247.39999389648</ele>
        <time>2015-01-18T08:08:38.000Z</time>
      </trkpt>
      <trkpt lat="43.61902" lon="1.18654">
        <ele>247.39999389648</ele>
        <time>2015-01-18T08:08:42.000Z</time>
      </trkpt>
      <trkpt lat="43.61901" lon="1.1867">
        <ele>247.60000610352</ele>
        <time>2015-01-18T08:08:46.000Z</time>
      </trkpt>
      <trkpt lat="43.61902" lon="1.18685">
        <ele>247.60000610352</ele>
        <time>2015-01-18T08:08:49.000Z</time>
      </trkpt>
      <trkpt lat="43.61912" lon="1.18689">
        <ele>246.80000305176</ele>
        <time>2015-01-18T08:08:53.000Z</time>
      </trkpt>
      <trkpt lat="43.61924" lon="1.18694">
        <ele>245.60000610352</ele>
        <time>2015-01-18T08:08:58.000Z</time>
      </trkpt>
      <trkpt lat="43.6193" lon="1.18713">
        <ele>245.39999389648</ele>
        <time>2015-01-18T08:09:04.000Z</time>
      </trkpt>
      <trkpt lat="43.61932" lon="1.1873">
        <ele>245.19999694824</ele>
        <time>2015-01-18T08:09:09.000Z</time>
      </trkpt>
      <trkpt lat="43.61932" lon="1.18733">
        <ele>245</ele>
        <time>2015-01-18T08:09:10.000Z</time>
      </trkpt>
      <trkpt lat="43.61928" lon="1.18749">
        <ele>244.39999389648</ele>
        <time>2015-01-18T08:09:15.000Z</time>
      </trkpt>
      <trkpt lat="43.61928" lon="1.1877">
        <ele>243.60000610352</ele>
        <time>2015-01-18T08:09:20.000Z</time>
      </trkpt>
      <trkpt lat="43.61927" lon="1.18791">
        <ele>242.60000610352</ele>
        <time>2015-01-18T08:09:25.000Z</time>
      </trkpt>
      <trkpt lat="43.61927" lon="1.18811">
        <ele>241.60000610352</ele>
        <time>2015-01-18T08:09:30.000Z</time>
      </trkpt>
      <trkpt lat="43.61924" lon="1.18835">
        <ele>241.80000305176</ele>
        <time>2015-01-18T08:09:36.000Z</time>
      </trkpt>
      <trkpt lat="43.61919" lon="1.18859">
        <ele>242.19999694824</ele>
        <time>2015-01-18T08:09:42.000Z</time>
      </trkpt>
      <trkpt lat="43.61913" lon="1.18877">
        <ele>242.60000610352</ele>
        <time>2015-01-18T08:09:47.000Z</time>
      </trkpt>
      <trkpt lat="43.61907" lon="1.18892">
        <ele>242.80000305176</ele>
        <time>2015-01-18T08:09:51.000Z</time>
      </trkpt>
      <trkpt lat="43.61899" lon="1.18916">
        <ele>243</ele>
        <time>2015-01-18T08:09:57.000Z</time>
      </trkpt>
      <trkpt lat="43.6189" lon="1.18939">
        <ele>243</ele>
        <time>2015-01-18T08:10:03.000Z</time>
      </trkpt>
      <trkpt lat="43.61887" lon="1.18955">
        <ele>242.19999694824</ele>
        <time>2015-01-18T08:10:07.000Z</time>
      </trkpt>
      <trkpt lat="43.6188" lon="1.18978">
        <ele>241.39999389648</ele>
        <time>2015-01-18T08:10:13.000Z</time>
      </trkpt>
      <trkpt lat="43.61873" lon="1.18997">
        <ele>241.80000305176</ele>
        <time>2015-01-18T08:10:18.000Z</time>
      </trkpt>
      <trkpt lat="43.61865" lon="1.19011">
        <ele>240.60000610352</ele>
        <time>2015-01-18T08:10:23.000Z</time>
      </trkpt>
      <trkpt lat="43.61859" lon="1.19017">
        <ele>240</ele>
        <time>2015-01-18T08:10:26.000Z</time>
      </trkpt>
      <trkpt lat="43.61859" lon="1.19029">
        <ele>239.39999389648</ele>
        <time>2015-01-18T08:10:31.000Z</time>
      </trkpt>
      <trkpt lat="43.61863" lon="1.1903">
        <ele>239.39999389648</ele>
        <time>2015-01-18T08:10:35.000Z</time>
      </trkpt>
      <trkpt lat="43.61865" lon="1.19029">
        <ele>239.60000610352</ele>
        <time>2015-01-18T08:10:42.000Z</time>
      </trkpt>
      <trkpt lat="43.61869" lon="1.19031">
        <ele>239.60000610352</ele>
        <time>2015-01-18T08:10:49.000Z</time>
      </trkpt>
      <trkpt lat="43.61873" lon="1.19032">
        <ele>239.80000305176</ele>
        <time>2015-01-18T08:10:57.000Z</time>
      </trkpt>
      <trkpt lat="43.61875" lon="1.19032">
        <ele>239.80000305176</ele>
        <time>2015-01-18T08:11:09.000Z</time>
      </trkpt>
      <trkpt lat="43.61876" lon="1.19028">
        <ele>240.19999694824</ele>
        <time>2015-01-18T08:11:35.000Z</time>
      </trkpt>
      <trkpt lat="43.61882" lon="1.19034">
        <ele>240</ele>
        <time>2015-01-18T08:11:42.000Z</time>
      </trkpt>
      <trkpt lat="43.61886" lon="1.19042">
        <ele>239.80000305176</ele>
        <time>2015-01-18T08:11:48.000Z</time>
      </trkpt>
      <trkpt lat="43.61889" lon="1.1905">
        <ele>239.39999389648</ele>
        <time>2015-01-18T08:11:53.000Z</time>
      </trkpt>
      <trkpt lat="43.61891" lon="1.19063">
        <ele>239</ele>
        <time>2015-01-18T08:12:02.000Z</time>
      </trkpt>
      <trkpt lat="43.61891" lon="1.19064">
        <ele>239</ele>
        <time>2015-01-18T08:12:03.000Z</time>
      </trkpt>
      <trkpt lat="43.61893" lon="1.19073">
        <ele>239.39999389648</ele>
        <time>2015-01-18T08:12:08.000Z</time>
      </trkpt>
      <trkpt lat="43.61897" lon="1.19088">
        <ele>240</ele>
        <time>2015-01-18T08:12:19.000Z</time>
      </trkpt>
      <trkpt lat="43.619" lon="1.19098">
        <ele>240.60000610352</ele>
        <time>2015-01-18T08:12:26.000Z</time>
      </trkpt>
      <trkpt lat="43.61909" lon="1.19106">
        <ele>241.39999389648</ele>
        <time>2015-01-18T08:12:34.000Z</time>
      </trkpt>
      <trkpt lat="43.61913" lon="1.19105">
        <ele>241.39999389648</ele>
        <time>2015-01-18T08:12:36.000Z</time>
      </trkpt>
      <trkpt lat="43.61917" lon="1.191">
        <ele>241.60000610352</ele>
        <time>2015-01-18T08:12:38.000Z</time>
      </trkpt>
      <trkpt lat="43.61929" lon="1.19102">
        <ele>242.19999694824</ele>
        <time>2015-01-18T08:12:44.000Z</time>
      </trkpt>
      <trkpt lat="43.61936" lon="1.19106">
        <ele>242.60000610352</ele>
        <time>2015-01-18T08:12:48.000Z</time>
      </trkpt>
      <trkpt lat="43.61946" lon="1.19114">
        <ele>243.19999694824</ele>
        <time>2015-01-18T08:12:53.000Z</time>
      </trkpt>
      <trkpt lat="43.61954" lon="1.19121">
        <ele>243.60000610352</ele>
        <time>2015-01-18T08:12:58.000Z</time>
      </trkpt>
      <trkpt lat="43.61956" lon="1.19122">
        <ele>243.60000610352</ele>
        <time>2015-01-18T08:12:59.000Z</time>
      </trkpt>
      <trkpt lat="43.61965" lon="1.1913">
        <ele>244.19999694824</ele>
        <time>2015-01-18T08:13:04.000Z</time>
      </trkpt>
      <trkpt lat="43.61978" lon="1.19139">
        <ele>244.80000305176</ele>
        <time>2015-01-18T08:13:11.000Z</time>
      </trkpt>
      <trkpt lat="43.61986" lon="1.19144">
        <ele>245.19999694824</ele>
        <time>2015-01-18T08:13:15.000Z</time>
      </trkpt>
      <trkpt lat="43.61996" lon="1.19152">
        <ele>245.60000610352</ele>
        <time>2015-01-18T08:13:21.000Z</time>
      </trkpt>
      <trkpt lat="43.62007" lon="1.19161">
        <ele>246</ele>
        <time>2015-01-18T08:13:26.000Z</time>
      </trkpt>
      <trkpt lat="43.62019" lon="1.19171">
        <ele>246.19999694824</ele>
        <time>2015-01-18T08:13:32.000Z</time>
      </trkpt>
      <trkpt lat="43.62022" lon="1.19172">
        <ele>246.19999694824</ele>
        <time>2015-01-18T08:13:33.000Z</time>
      </trkpt>
      <trkpt lat="43.62043" lon="1.19189">
        <ele>245.39999389648</ele>
        <time>2015-01-18T08:13:44.000Z</time>
      </trkpt>
      <trkpt lat="43.62047" lon="1.19192">
        <ele>245.19999694824</ele>
        <time>2015-01-18T08:13:46.000Z</time>
      </trkpt>
      <trkpt lat="43.62062" lon="1.19205">
        <ele>244.60000610352</ele>
        <time>2015-01-18T08:13:53.000Z</time>
      </trkpt>
      <trkpt lat="43.62073" lon="1.19213">
        <ele>244.19999694824</ele>
        <time>2015-01-18T08:13:58.000Z</time>
      </trkpt>
      <trkpt lat="43.6208" lon="1.19219">
        <ele>244</ele>
        <time>2015-01-18T08:14:01.000Z</time>
      </trkpt>
      <trkpt lat="43.6209" lon="1.19229">
        <ele>243.60000610352</ele>
        <time>2015-01-18T08:14:06.000Z</time>
      </trkpt>
      <trkpt lat="43.62101" lon="1.19238">
        <ele>243.19999694824</ele>
        <time>2015-01-18T08:14:11.000Z</time>
      </trkpt>
      <trkpt lat="43.62104" lon="1.19239">
        <ele>243.19999694824</ele>
        <time>2015-01-18T08:14:12.000Z</time>
      </trkpt>
      <trkpt lat="43.6211" lon="1.19237">
        <ele>243.19999694824</ele>
        <time>2015-01-18T08:14:15.000Z</time>
      </trkpt>
      <trkpt lat="43.62112" lon="1.19233">
        <ele>243.19999694824</ele>
        <time>2015-01-18T08:14:17.000Z</time>
      </trkpt>
      <trkpt lat="43.62117" lon="1.19223">
        <ele>243.19999694824</ele>
        <time>2015-01-18T08:14:21.000Z</time>
      </trkpt>
      <trkpt lat="43.62119" lon="1.1922">
        <ele>243.19999694824</ele>
        <time>2015-01-18T08:14:22.000Z</time>
      </trkpt>
      <trkpt lat="43.62125" lon="1.19205">
        <ele>243.80000305176</ele>
        <time>2015-01-18T08:14:27.000Z</time>
      </trkpt>
      <trkpt lat="43.62127" lon="1.19203">
        <ele>244</ele>
        <time>2015-01-18T08:14:28.000Z</time>
      </trkpt>
      <trkpt lat="43.62139" lon="1.19186">
        <ele>244.60000610352</ele>
        <time>2015-01-18T08:14:35.000Z</time>
      </trkpt>
      <trkpt lat="43.62146" lon="1.19169">
        <ele>244.80000305176</ele>
        <time>2015-01-18T08:14:41.000Z</time>
      </trkpt>
      <trkpt lat="43.62155" lon="1.19149">
        <ele>245.19999694824</ele>
        <time>2015-01-18T08:14:47.000Z</time>
      </trkpt>
      <trkpt lat="43.62161" lon="1.19133">
        <ele>245.39999389648</ele>
        <time>2015-01-18T08:14:52.000Z</time>
      </trkpt>
      <trkpt lat="43.62163" lon="1.19129">
        <ele>245.39999389648</ele>
        <time>2015-01-18T08:14:53.000Z</time>
      </trkpt>
      <trkpt lat="43.6217" lon="1.19111">
        <ele>245.80000305176</ele>
        <time>2015-01-18T08:14:59.000Z</time>
      </trkpt>
      <trkpt lat="43.62175" lon="1.19095">
        <ele>246.19999694824</ele>
        <time>2015-01-18T08:15:04.000Z</time>
      </trkpt>
      <trkpt lat="43.62182" lon="1.19076">
        <ele>246.60000610352</ele>
        <time>2015-01-18T08:15:10.000Z</time>
      </trkpt>
      <trkpt lat="43.62189" lon="1.19061">
        <ele>247</ele>
        <time>2015-01-18T08:15:15.000Z</time>
      </trkpt>
      <trkpt lat="43.62198" lon="1.19044">
        <ele>247.39999389648</ele>
        <time>2015-01-18T08:15:21.000Z</time>
      </trkpt>
      <trkpt lat="43.62205" lon="1.1903">
        <ele>247.80000305176</ele>
        <time>2015-01-18T08:15:26.000Z</time>
      </trkpt>
      <trkpt lat="43.62214" lon="1.1901">
        <ele>248.19999694824</ele>
        <time>2015-01-18T08:15:32.000Z</time>
      </trkpt>
      <trkpt lat="43.62221" lon="1.18995">
        <ele>248.19999694824</ele>
        <time>2015-01-18T08:15:37.000Z</time>
      </trkpt>
      <trkpt lat="43.62231" lon="1.18972">
        <ele>248</ele>
        <time>2015-01-18T08:15:44.000Z</time>
      </trkpt>
      <trkpt lat="43.6224" lon="1.1895">
        <ele>248.39999389648</ele>
        <time>2015-01-18T08:15:50.000Z</time>
      </trkpt>
      <trkpt lat="43.62265" lon="1.18928">
        <ele>248.80000305176</ele>
        <time>2015-01-18T08:16:02.000Z</time>
      </trkpt>
      <trkpt lat="43.6227" lon="1.18927">
        <ele>248.80000305176</ele>
        <time>2015-01-18T08:16:04.000Z</time>
      </trkpt>
      <trkpt lat="43.62289" lon="1.18927">
        <ele>249</ele>
        <time>2015-01-18T08:16:10.000Z</time>
      </trkpt>
      <trkpt lat="43.623" lon="1.18928">
        <ele>249.19999694824</ele>
        <time>2015-01-18T08:16:14.000Z</time>
      </trkpt>
      <trkpt lat="43.62314" lon="1.18934">
        <ele>249.19999694824</ele>
        <time>2015-01-18T08:16:19.000Z</time>
      </trkpt>
      <trkpt lat="43.62325" lon="1.18939">
        <ele>249.39999389648</ele>
        <time>2015-01-18T08:16:23.000Z</time>
      </trkpt>
      <trkpt lat="43.62336" lon="1.18944">
        <ele>249.39999389648</ele>
        <time>2015-01-18T08:16:27.000Z</time>
      </trkpt>
      <trkpt lat="43.6235" lon="1.18949">
        <ele>249.60000610352</ele>
        <time>2015-01-18T08:16:33.000Z</time>
      </trkpt>
      <trkpt lat="43.62366" lon="1.18949">
        <ele>250</ele>
        <time>2015-01-18T08:16:39.000Z</time>
      </trkpt>
      <trkpt lat="43.62378" lon="1.1895">
        <ele>250.39999389648</ele>
        <time>2015-01-18T08:16:44.000Z</time>
      </trkpt>
      <trkpt lat="43.62383" lon="1.18952">
        <ele>250.39999389648</ele>
        <time>2015-01-18T08:16:46.000Z</time>
      </trkpt>
      <trkpt lat="43.62384" lon="1.18954">
        <ele>250.19999694824</ele>
        <time>2015-01-18T08:16:47.000Z</time>
      </trkpt>
      <trkpt lat="43.62402" lon="1.18961">
        <ele>250.19999694824</ele>
        <time>2015-01-18T08:16:53.000Z</time>
      </trkpt>
      <trkpt lat="43.62417" lon="1.18965">
        <ele>250.39999389648</ele>
        <time>2015-01-18T08:16:58.000Z</time>
      </trkpt>
      <trkpt lat="43.6243" lon="1.1897">
        <ele>250.39999389648</ele>
        <time>2015-01-18T08:17:02.000Z</time>
      </trkpt>
      <trkpt lat="43.62444" lon="1.18978">
        <ele>249.60000610352</ele>
        <time>2015-01-18T08:17:07.000Z</time>
      </trkpt>
      <trkpt lat="43.62456" lon="1.18987">
        <ele>248.80000305176</ele>
        <time>2015-01-18T08:17:12.000Z</time>
      </trkpt>
      <trkpt lat="43.6247" lon="1.19">
        <ele>248.19999694824</ele>
        <time>2015-01-18T08:17:18.000Z</time>
      </trkpt>
      <trkpt lat="43.62479" lon="1.19015">
        <ele>247.80000305176</ele>
        <time>2015-01-18T08:17:23.000Z</time>
      </trkpt>
      <trkpt lat="43.62486" lon="1.19026">
        <ele>247.60000610352</ele>
        <time>2015-01-18T08:17:27.000Z</time>
      </trkpt>
      <trkpt lat="43.62497" lon="1.19041">
        <ele>247</ele>
        <time>2015-01-18T08:17:32.000Z</time>
      </trkpt>
      <trkpt lat="43.6251" lon="1.19056">
        <ele>246.39999389648</ele>
        <time>2015-01-18T08:17:38.000Z</time>
      </trkpt>
      <trkpt lat="43.62525" lon="1.19074">
        <ele>245.80000305176</ele>
        <time>2015-01-18T08:17:45.000Z</time>
      </trkpt>
      <trkpt lat="43.62528" lon="1.19077">
        <ele>245.80000305176</ele>
        <time>2015-01-18T08:17:46.000Z</time>
      </trkpt>
      <trkpt lat="43.62544" lon="1.19091">
        <ele>245.60000610352</ele>
        <time>2015-01-18T08:17:53.000Z</time>
      </trkpt>
      <trkpt lat="43.62553" lon="1.19098">
        <ele>245.60000610352</ele>
        <time>2015-01-18T08:17:57.000Z</time>
      </trkpt>
      <trkpt lat="43.62564" lon="1.1911">
        <ele>245.39999389648</ele>
        <time>2015-01-18T08:18:02.000Z</time>
      </trkpt>
      <trkpt lat="43.62572" lon="1.19116">
        <ele>245.39999389648</ele>
        <time>2015-01-18T08:18:05.000Z</time>
      </trkpt>
      <trkpt lat="43.62585" lon="1.19126">
        <ele>245.19999694824</ele>
        <time>2015-01-18T08:18:10.000Z</time>
      </trkpt>
      <trkpt lat="43.62596" lon="1.19134">
        <ele>245</ele>
        <time>2015-01-18T08:18:14.000Z</time>
      </trkpt>
      <trkpt lat="43.62598" lon="1.19135">
        <ele>245</ele>
        <time>2015-01-18T08:18:15.000Z</time>
      </trkpt>
      <trkpt lat="43.62611" lon="1.19145">
        <ele>244.60000610352</ele>
        <time>2015-01-18T08:18:20.000Z</time>
      </trkpt>
      <trkpt lat="43.62623" lon="1.19155">
        <ele>244.19999694824</ele>
        <time>2015-01-18T08:18:25.000Z</time>
      </trkpt>
      <trkpt lat="43.62637" lon="1.19167">
        <ele>243.80000305176</ele>
        <time>2015-01-18T08:18:31.000Z</time>
      </trkpt>
      <trkpt lat="43.62652" lon="1.19179">
        <ele>243.39999389648</ele>
        <time>2015-01-18T08:18:38.000Z</time>
      </trkpt>
      <trkpt lat="43.62666" lon="1.19191">
        <ele>243</ele>
        <time>2015-01-18T08:18:44.000Z</time>
      </trkpt>
      <trkpt lat="43.62677" lon="1.19199">
        <ele>242.60000610352</ele>
        <time>2015-01-18T08:18:48.000Z</time>
      </trkpt>
      <trkpt lat="43.62689" lon="1.19211">
        <ele>242.60000610352</ele>
        <time>2015-01-18T08:18:53.000Z</time>
      </trkpt>
      <trkpt lat="43.62699" lon="1.1922">
        <ele>243</ele>
        <time>2015-01-18T08:18:57.000Z</time>
      </trkpt>
      <trkpt lat="43.62709" lon="1.19228">
        <ele>243.19999694824</ele>
        <time>2015-01-18T08:19:01.000Z</time>
      </trkpt>
      <trkpt lat="43.6272" lon="1.19236">
        <ele>243.39999389648</ele>
        <time>2015-01-18T08:19:05.000Z</time>
      </trkpt>
      <trkpt lat="43.62729" lon="1.19244">
        <ele>243.39999389648</ele>
        <time>2015-01-18T08:19:09.000Z</time>
      </trkpt>
      <trkpt lat="43.62745" lon="1.19251">
        <ele>243.39999389648</ele>
        <time>2015-01-18T08:19:15.000Z</time>
      </trkpt>
      <trkpt lat="43.62759" lon="1.19255">
        <ele>243.60000610352</ele>
        <time>2015-01-18T08:19:20.000Z</time>
      </trkpt>
      <trkpt lat="43.62771" lon="1.19257">
        <ele>243.60000610352</ele>
        <time>2015-01-18T08:19:24.000Z</time>
      </trkpt>
      <trkpt lat="43.6279" lon="1.19256">
        <ele>243.60000610352</ele>
        <time>2015-01-18T08:19:31.000Z</time>
      </trkpt>
      <trkpt lat="43.62806" lon="1.19253">
        <ele>243.80000305176</ele>
        <time>2015-01-18T08:19:37.000Z</time>
      </trkpt>
      <trkpt lat="43.62823" lon="1.19248">
        <ele>243.80000305176</ele>
        <time>2015-01-18T08:19:43.000Z</time>
      </trkpt>
      <trkpt lat="43.6284" lon="1.19246">
        <ele>243.80000305176</ele>
        <time>2015-01-18T08:19:49.000Z</time>
      </trkpt>
      <trkpt lat="43.62857" lon="1.19248">
        <ele>243.80000305176</ele>
        <time>2015-01-18T08:19:55.000Z</time>
      </trkpt>
      <trkpt lat="43.62872" lon="1.19251">
        <ele>243.80000305176</ele>
        <time>2015-01-18T08:20:01.000Z</time>
      </trkpt>
      <trkpt lat="43.6289" lon="1.19256">
        <ele>243.60000610352</ele>
        <time>2015-01-18T08:20:07.000Z</time>
      </trkpt>
      <trkpt lat="43.62907" lon="1.19261">
        <ele>243.39999389648</ele>
        <time>2015-01-18T08:20:13.000Z</time>
      </trkpt>
      <trkpt lat="43.6291" lon="1.19261">
        <ele>243.39999389648</ele>
        <time>2015-01-18T08:20:14.000Z</time>
      </trkpt>
      <trkpt lat="43.62923" lon="1.19262">
        <ele>243.19999694824</ele>
        <time>2015-01-18T08:20:19.000Z</time>
      </trkpt>
      <trkpt lat="43.62939" lon="1.19264">
        <ele>243</ele>
        <time>2015-01-18T08:20:25.000Z</time>
      </trkpt>
      <trkpt lat="43.62954" lon="1.19268">
        <ele>243</ele>
        <time>2015-01-18T08:20:31.000Z</time>
      </trkpt>
      <trkpt lat="43.62971" lon="1.19273">
        <ele>243</ele>
        <time>2015-01-18T08:20:37.000Z</time>
      </trkpt>
      <trkpt lat="43.62982" lon="1.19276">
        <ele>243</ele>
        <time>2015-01-18T08:20:41.000Z</time>
      </trkpt>
      <trkpt lat="43.62993" lon="1.19278">
        <ele>243</ele>
        <time>2015-01-18T08:20:45.000Z</time>
      </trkpt>
      <trkpt lat="43.63015" lon="1.19284">
        <ele>242.80000305176</ele>
        <time>2015-01-18T08:20:53.000Z</time>
      </trkpt>
      <trkpt lat="43.63029" lon="1.19289">
        <ele>242.80000305176</ele>
        <time>2015-01-18T08:20:58.000Z</time>
      </trkpt>
      <trkpt lat="43.63045" lon="1.19294">
        <ele>242.80000305176</ele>
        <time>2015-01-18T08:21:04.000Z</time>
      </trkpt>
      <trkpt lat="43.6306" lon="1.19304">
        <ele>243</ele>
        <time>2015-01-18T08:21:10.000Z</time>
      </trkpt>
      <trkpt lat="43.63062" lon="1.19306">
        <ele>243</ele>
        <time>2015-01-18T08:21:11.000Z</time>
      </trkpt>
      <trkpt lat="43.63061" lon="1.19319">
        <ele>243</ele>
        <time>2015-01-18T08:21:15.000Z</time>
      </trkpt>
      <trkpt lat="43.63056" lon="1.19331">
        <ele>242.80000305176</ele>
        <time>2015-01-18T08:21:19.000Z</time>
      </trkpt>
      <trkpt lat="43.63047" lon="1.1935">
        <ele>242.60000610352</ele>
        <time>2015-01-18T08:21:25.000Z</time>
      </trkpt>
      <trkpt lat="43.63038" lon="1.19365">
        <ele>242.39999389648</ele>
        <time>2015-01-18T08:21:30.000Z</time>
      </trkpt>
      <trkpt lat="43.63032" lon="1.19378">
        <ele>242.19999694824</ele>
        <time>2015-01-18T08:21:34.000Z</time>
      </trkpt>
      <trkpt lat="43.63023" lon="1.19395">
        <ele>242</ele>
        <time>2015-01-18T08:21:40.000Z</time>
      </trkpt>
      <trkpt lat="43.63014" lon="1.19421">
        <ele>242.39999389648</ele>
        <time>2015-01-18T08:21:47.000Z</time>
      </trkpt>
      <trkpt lat="43.63007" lon="1.19443">
        <ele>242.60000610352</ele>
        <time>2015-01-18T08:21:53.000Z</time>
      </trkpt>
      <trkpt lat="43.63003" lon="1.19467">
        <ele>242.80000305176</ele>
        <time>2015-01-18T08:21:59.000Z</time>
      </trkpt>
      <trkpt lat="43.62998" lon="1.19487">
        <ele>242.60000610352</ele>
        <time>2015-01-18T08:22:04.000Z</time>
      </trkpt>
      <trkpt lat="43.62996" lon="1.19502">
        <ele>242.19999694824</ele>
        <time>2015-01-18T08:22:08.000Z</time>
      </trkpt>
      <trkpt lat="43.62993" lon="1.19522">
        <ele>241.60000610352</ele>
        <time>2015-01-18T08:22:13.000Z</time>
      </trkpt>
      <trkpt lat="43.62989" lon="1.19541">
        <ele>241.39999389648</ele>
        <time>2015-01-18T08:22:18.000Z</time>
      </trkpt>
      <trkpt lat="43.62986" lon="1.1956">
        <ele>241.39999389648</ele>
        <time>2015-01-18T08:22:23.000Z</time>
      </trkpt>
      <trkpt lat="43.62986" lon="1.19564">
        <ele>241.39999389648</ele>
        <time>2015-01-18T08:22:24.000Z</time>
      </trkpt>
      <trkpt lat="43.62985" lon="1.19571">
        <ele>241.39999389648</ele>
        <time>2015-01-18T08:22:27.000Z</time>
      </trkpt>
      <trkpt lat="43.62983" lon="1.1959">
        <ele>241.39999389648</ele>
        <time>2015-01-18T08:22:58.000Z</time>
      </trkpt>
      <trkpt lat="43.62981" lon="1.1961">
        <ele>241.39999389648</ele>
        <time>2015-01-18T08:23:03.000Z</time>
      </trkpt>
      <trkpt lat="43.62978" lon="1.19632">
        <ele>241.19999694824</ele>
        <time>2015-01-18T08:23:08.000Z</time>
      </trkpt>
      <trkpt lat="43.62972" lon="1.19657">
        <ele>241.19999694824</ele>
        <time>2015-01-18T08:23:14.000Z</time>
      </trkpt>
      <trkpt lat="43.62974" lon="1.19677">
        <ele>241.39999389648</ele>
        <time>2015-01-18T08:23:19.000Z</time>
      </trkpt>
      <trkpt lat="43.62978" lon="1.19685">
        <ele>241.39999389648</ele>
        <time>2015-01-18T08:23:24.000Z</time>
      </trkpt>
      <trkpt lat="43.62979" lon="1.19691">
        <ele>241.60000610352</ele>
        <time>2015-01-18T08:23:32.000Z</time>
      </trkpt>
      <trkpt lat="43.62985" lon="1.19697">
        <ele>241.60000610352</ele>
        <time>2015-01-18T08:23:38.000Z</time>
      </trkpt>
      <trkpt lat="43.62986" lon="1.19699">
        <ele>241.80000305176</ele>
        <time>2015-01-18T08:23:40.000Z</time>
      </trkpt>
      <trkpt lat="43.62993" lon="1.19703">
        <ele>241.80000305176</ele>
        <time>2015-01-18T08:23:45.000Z</time>
      </trkpt>
      <trkpt lat="43.63002" lon="1.19707">
        <ele>241.80000305176</ele>
        <time>2015-01-18T08:23:50.000Z</time>
      </trkpt>
      <trkpt lat="43.63016" lon="1.19711">
        <ele>241.80000305176</ele>
        <time>2015-01-18T08:23:55.000Z</time>
      </trkpt>
      <trkpt lat="43.63035" lon="1.19718">
        <ele>242</ele>
        <time>2015-01-18T08:24:02.000Z</time>
      </trkpt>
      <trkpt lat="43.63045" lon="1.19721">
        <ele>242.19999694824</ele>
        <time>2015-01-18T08:24:06.000Z</time>
      </trkpt>
      <trkpt lat="43.63057" lon="1.19729">
        <ele>242.39999389648</ele>
        <time>2015-01-18T08:24:11.000Z</time>
      </trkpt>
      <trkpt lat="43.63068" lon="1.1974">
        <ele>242.80000305176</ele>
        <time>2015-01-18T08:24:16.000Z</time>
      </trkpt>
      <trkpt lat="43.63074" lon="1.19744">
        <ele>242.80000305176</ele>
        <time>2015-01-18T08:24:18.000Z</time>
      </trkpt>
      <trkpt lat="43.63089" lon="1.19747">
        <ele>243</ele>
        <time>2015-01-18T08:24:23.000Z</time>
      </trkpt>
      <trkpt lat="43.63102" lon="1.19755">
        <ele>243.39999389648</ele>
        <time>2015-01-18T08:24:29.000Z</time>
      </trkpt>
      <trkpt lat="43.63111" lon="1.19761">
        <ele>243.19999694824</ele>
        <time>2015-01-18T08:24:33.000Z</time>
      </trkpt>
      <trkpt lat="43.6313" lon="1.19774">
        <ele>242.80000305176</ele>
        <time>2015-01-18T08:24:44.000Z</time>
      </trkpt>
      <trkpt lat="43.63146" lon="1.1979">
        <ele>242.60000610352</ele>
        <time>2015-01-18T08:24:51.000Z</time>
      </trkpt>
      <trkpt lat="43.63157" lon="1.19801">
        <ele>242.60000610352</ele>
        <time>2015-01-18T08:24:56.000Z</time>
      </trkpt>
      <trkpt lat="43.63166" lon="1.19813">
        <ele>242.39999389648</ele>
        <time>2015-01-18T08:25:01.000Z</time>
      </trkpt>
      <trkpt lat="43.63174" lon="1.19828">
        <ele>242.19999694824</ele>
        <time>2015-01-18T08:25:06.000Z</time>
      </trkpt>
      <trkpt lat="43.63187" lon="1.19842">
        <ele>242</ele>
        <time>2015-01-18T08:25:12.000Z</time>
      </trkpt>
      <trkpt lat="43.63197" lon="1.19847">
        <ele>242.19999694824</ele>
        <time>2015-01-18T08:25:16.000Z</time>
      </trkpt>
      <trkpt lat="43.63212" lon="1.19853">
        <ele>242.39999389648</ele>
        <time>2015-01-18T08:25:22.000Z</time>
      </trkpt>
      <trkpt lat="43.63225" lon="1.1985">
        <ele>242.39999389648</ele>
        <time>2015-01-18T08:25:27.000Z</time>
      </trkpt>
      <trkpt lat="43.63239" lon="1.19849">
        <ele>243</ele>
        <time>2015-01-18T08:25:32.000Z</time>
      </trkpt>
      <trkpt lat="43.63252" lon="1.19845">
        <ele>243.60000610352</ele>
        <time>2015-01-18T08:25:37.000Z</time>
      </trkpt>
      <trkpt lat="43.6327" lon="1.1984">
        <ele>244.39999389648</ele>
        <time>2015-01-18T08:25:44.000Z</time>
      </trkpt>
      <trkpt lat="43.63282" lon="1.19833">
        <ele>244.39999389648</ele>
        <time>2015-01-18T08:25:49.000Z</time>
      </trkpt>
      <trkpt lat="43.63292" lon="1.19827">
        <ele>244.39999389648</ele>
        <time>2015-01-18T08:25:53.000Z</time>
      </trkpt>
      <trkpt lat="43.63303" lon="1.1982">
        <ele>244.19999694824</ele>
        <time>2015-01-18T08:25:58.000Z</time>
      </trkpt>
      <trkpt lat="43.63314" lon="1.19809">
        <ele>244</ele>
        <time>2015-01-18T08:26:03.000Z</time>
      </trkpt>
      <trkpt lat="43.63327" lon="1.19794">
        <ele>243.60000610352</ele>
        <time>2015-01-18T08:26:09.000Z</time>
      </trkpt>
      <trkpt lat="43.63343" lon="1.19782">
        <ele>243.19999694824</ele>
        <time>2015-01-18T08:26:15.000Z</time>
      </trkpt>
      <trkpt lat="43.63362" lon="1.19771">
        <ele>242.80000305176</ele>
        <time>2015-01-18T08:26:22.000Z</time>
      </trkpt>
      <trkpt lat="43.63367" lon="1.19767">
        <ele>242.60000610352</ele>
        <time>2015-01-18T08:26:24.000Z</time>
      </trkpt>
      <trkpt lat="43.63373" lon="1.19759">
        <ele>242.39999389648</ele>
        <time>2015-01-18T08:26:27.000Z</time>
      </trkpt>
      <trkpt lat="43.63378" lon="1.19747">
        <ele>242.39999389648</ele>
        <time>2015-01-18T08:26:31.000Z</time>
      </trkpt>
      <trkpt lat="43.6338" lon="1.19745">
        <ele>242.39999389648</ele>
        <time>2015-01-18T08:26:32.000Z</time>
      </trkpt>
      <trkpt lat="43.63388" lon="1.19734">
        <ele>242.60000610352</ele>
        <time>2015-01-18T08:26:36.000Z</time>
      </trkpt>
      <trkpt lat="43.63389" lon="1.19732">
        <ele>242.60000610352</ele>
        <time>2015-01-18T08:26:37.000Z</time>
      </trkpt>
      <trkpt lat="43.634" lon="1.19711">
        <ele>242.19999694824</ele>
        <time>2015-01-18T08:26:43.000Z</time>
      </trkpt>
      <trkpt lat="43.63415" lon="1.19693">
        <ele>242.19999694824</ele>
        <time>2015-01-18T08:26:50.000Z</time>
      </trkpt>
      <trkpt lat="43.63427" lon="1.19683">
        <ele>242.39999389648</ele>
        <time>2015-01-18T08:26:55.000Z</time>
      </trkpt>
      <trkpt lat="43.63439" lon="1.19672">
        <ele>242.60000610352</ele>
        <time>2015-01-18T08:27:00.000Z</time>
      </trkpt>
      <trkpt lat="43.63443" lon="1.19667">
        <ele>242.80000305176</ele>
        <time>2015-01-18T08:27:02.000Z</time>
      </trkpt>
      <trkpt lat="43.6346" lon="1.19652">
        <ele>242.80000305176</ele>
        <time>2015-01-18T08:27:09.000Z</time>
      </trkpt>
      <trkpt lat="43.6347" lon="1.19643">
        <ele>242.60000610352</ele>
        <time>2015-01-18T08:27:14.000Z</time>
      </trkpt>
      <trkpt lat="43.63481" lon="1.19633">
        <ele>242.60000610352</ele>
        <time>2015-01-18T08:27:19.000Z</time>
      </trkpt>
      <trkpt lat="43.63492" lon="1.19621">
        <ele>242.60000610352</ele>
        <time>2015-01-18T08:27:24.000Z</time>
      </trkpt>
      <trkpt lat="43.63502" lon="1.19607">
        <ele>242.39999389648</ele>
        <time>2015-01-18T08:27:29.000Z</time>
      </trkpt>
      <trkpt lat="43.63512" lon="1.19594">
        <ele>242.19999694824</ele>
        <time>2015-01-18T08:27:34.000Z</time>
      </trkpt>
      <trkpt lat="43.63525" lon="1.19578">
        <ele>242</ele>
        <time>2015-01-18T08:27:40.000Z</time>
      </trkpt>
      <trkpt lat="43.63539" lon="1.19562">
        <ele>241.80000305176</ele>
        <time>2015-01-18T08:27:46.000Z</time>
      </trkpt>
      <trkpt lat="43.63551" lon="1.19546">
        <ele>241.39999389648</ele>
        <time>2015-01-18T08:27:51.000Z</time>
      </trkpt>
      <trkpt lat="43.63561" lon="1.19524">
        <ele>241</ele>
        <time>2015-01-18T08:27:57.000Z</time>
      </trkpt>
      <trkpt lat="43.63573" lon="1.19503">
        <ele>240.19999694824</ele>
        <time>2015-01-18T08:28:04.000Z</time>
      </trkpt>
      <trkpt lat="43.63588" lon="1.19487">
        <ele>239.60000610352</ele>
        <time>2015-01-18T08:28:10.000Z</time>
      </trkpt>
      <trkpt lat="43.63598" lon="1.19479">
        <ele>239.19999694824</ele>
        <time>2015-01-18T08:28:14.000Z</time>
      </trkpt>
      <trkpt lat="43.63611" lon="1.19472">
        <ele>239.19999694824</ele>
        <time>2015-01-18T08:28:19.000Z</time>
      </trkpt>
      <trkpt lat="43.63621" lon="1.19467">
        <ele>239.39999389648</ele>
        <time>2015-01-18T08:28:23.000Z</time>
      </trkpt>
      <trkpt lat="43.63623" lon="1.19467">
        <ele>239.39999389648</ele>
        <time>2015-01-18T08:28:24.000Z</time>
      </trkpt>
      <trkpt lat="43.63633" lon="1.19466">
        <ele>239.80000305176</ele>
        <time>2015-01-18T08:28:28.000Z</time>
      </trkpt>
      <trkpt lat="43.63645" lon="1.19467">
        <ele>240</ele>
        <time>2015-01-18T08:28:33.000Z</time>
      </trkpt>
      <trkpt lat="43.63659" lon="1.19469">
        <ele>240.39999389648</ele>
        <time>2015-01-18T08:28:39.000Z</time>
      </trkpt>
      <trkpt lat="43.63674" lon="1.19472">
        <ele>240.80000305176</ele>
        <time>2015-01-18T08:28:44.000Z</time>
      </trkpt>
      <trkpt lat="43.63687" lon="1.19483">
        <ele>241</ele>
        <time>2015-01-18T08:28:50.000Z</time>
      </trkpt>
      <trkpt lat="43.63701" lon="1.195">
        <ele>241.19999694824</ele>
        <time>2015-01-18T08:28:57.000Z</time>
      </trkpt>
      <trkpt lat="43.63709" lon="1.19509">
        <ele>241.19999694824</ele>
        <time>2015-01-18T08:29:01.000Z</time>
      </trkpt>
      <trkpt lat="43.63723" lon="1.19526">
        <ele>241.39999389648</ele>
        <time>2015-01-18T08:29:07.000Z</time>
      </trkpt>
      <trkpt lat="43.63739" lon="1.19544">
        <ele>241.39999389648</ele>
        <time>2015-01-18T08:29:14.000Z</time>
      </trkpt>
      <trkpt lat="43.63751" lon="1.19561">
        <ele>241.60000610352</ele>
        <time>2015-01-18T08:29:20.000Z</time>
      </trkpt>
      <trkpt lat="43.63759" lon="1.19581">
        <ele>241.19999694824</ele>
        <time>2015-01-18T08:29:26.000Z</time>
      </trkpt>
      <trkpt lat="43.63768" lon="1.19598">
        <ele>241.19999694824</ele>
        <time>2015-01-18T08:29:31.000Z</time>
      </trkpt>
      <trkpt lat="43.63771" lon="1.19604">
        <ele>240.80000305176</ele>
        <time>2015-01-18T08:29:33.000Z</time>
      </trkpt>
      <trkpt lat="43.63778" lon="1.19628">
        <ele>239.80000305176</ele>
        <time>2015-01-18T08:29:40.000Z</time>
      </trkpt>
      <trkpt lat="43.63785" lon="1.19647">
        <ele>239</ele>
        <time>2015-01-18T08:29:45.000Z</time>
      </trkpt>
      <trkpt lat="43.63792" lon="1.19664">
        <ele>238.60000610352</ele>
        <time>2015-01-18T08:29:50.000Z</time>
      </trkpt>
      <trkpt lat="43.63799" lon="1.19679">
        <ele>238.19999694824</ele>
        <time>2015-01-18T08:29:54.000Z</time>
      </trkpt>
      <trkpt lat="43.63809" lon="1.19702">
        <ele>237.39999389648</ele>
        <time>2015-01-18T08:30:00.000Z</time>
      </trkpt>
      <trkpt lat="43.63809" lon="1.19709">
        <ele>237.19999694824</ele>
        <time>2015-01-18T08:30:02.000Z</time>
      </trkpt>
      <trkpt lat="43.63801" lon="1.19729">
        <ele>237.39999389648</ele>
        <time>2015-01-18T08:30:08.000Z</time>
      </trkpt>
      <trkpt lat="43.638" lon="1.1974">
        <ele>237.80000305176</ele>
        <time>2015-01-18T08:30:11.000Z</time>
      </trkpt>
      <trkpt lat="43.63812" lon="1.19747">
        <ele>237.39999389648</ele>
        <time>2015-01-18T08:30:16.000Z</time>
      </trkpt>
      <trkpt lat="43.63823" lon="1.19751">
        <ele>237</ele>
        <time>2015-01-18T08:30:20.000Z</time>
      </trkpt>
      <trkpt lat="43.63839" lon="1.19759">
        <ele>236.39999389648</ele>
        <time>2015-01-18T08:30:26.000Z</time>
      </trkpt>
      <trkpt lat="43.63848" lon="1.19767">
        <ele>236.19999694824</ele>
        <time>2015-01-18T08:30:30.000Z</time>
      </trkpt>
      <trkpt lat="43.63849" lon="1.19769">
        <ele>236.19999694824</ele>
        <time>2015-01-18T08:30:31.000Z</time>
      </trkpt>
      <trkpt lat="43.6385" lon="1.19772">
        <ele>236.19999694824</ele>
        <time>2015-01-18T08:30:32.000Z</time>
      </trkpt>
      <trkpt lat="43.63856" lon="1.19776">
        <ele>236.39999389648</ele>
        <time>2015-01-18T08:30:36.000Z</time>
      </trkpt>
      <trkpt lat="43.63861" lon="1.19779">
        <ele>236.60000610352</ele>
        <time>2015-01-18T08:30:43.000Z</time>
      </trkpt>
      <trkpt lat="43.63862" lon="1.19779">
        <ele>236.60000610352</ele>
        <time>2015-01-18T08:30:44.000Z</time>
      </trkpt>
      <trkpt lat="43.63867" lon="1.19787">
        <ele>237</ele>
        <time>2015-01-18T08:30:50.000Z</time>
      </trkpt>
      <trkpt lat="43.6387" lon="1.19795">
        <ele>237.39999389648</ele>
        <time>2015-01-18T08:30:53.000Z</time>
      </trkpt>
      <trkpt lat="43.6388" lon="1.19805">
        <ele>238.19999694824</ele>
        <time>2015-01-18T08:30:58.000Z</time>
      </trkpt>
      <trkpt lat="43.63882" lon="1.19808">
        <ele>238.39999389648</ele>
        <time>2015-01-18T08:30:59.000Z</time>
      </trkpt>
      <trkpt lat="43.63893" lon="1.19823">
        <ele>238.60000610352</ele>
        <time>2015-01-18T08:31:05.000Z</time>
      </trkpt>
      <trkpt lat="43.639" lon="1.1984">
        <ele>238.60000610352</ele>
        <time>2015-01-18T08:31:10.000Z</time>
      </trkpt>
      <trkpt lat="43.63901" lon="1.19843">
        <ele>238.60000610352</ele>
        <time>2015-01-18T08:31:11.000Z</time>
      </trkpt>
      <trkpt lat="43.63907" lon="1.19841">
        <ele>239</ele>
        <time>2015-01-18T08:31:15.000Z</time>
      </trkpt>
      <trkpt lat="43.6391" lon="1.19831">
        <ele>239.39999389648</ele>
        <time>2015-01-18T08:31:19.000Z</time>
      </trkpt>
      <trkpt lat="43.63911" lon="1.19828">
        <ele>239.39999389648</ele>
        <time>2015-01-18T08:31:20.000Z</time>
      </trkpt>
      <trkpt lat="43.63917" lon="1.19808">
        <ele>240</ele>
        <time>2015-01-18T08:31:26.000Z</time>
      </trkpt>
      <trkpt lat="43.63918" lon="1.19805">
        <ele>240</ele>
        <time>2015-01-18T08:31:27.000Z</time>
      </trkpt>
      <trkpt lat="43.63922" lon="1.19789">
        <ele>239.80000305176</ele>
        <time>2015-01-18T08:31:32.000Z</time>
      </trkpt>
      <trkpt lat="43.63923" lon="1.19775">
        <ele>239.60000610352</ele>
        <time>2015-01-18T08:31:36.000Z</time>
      </trkpt>
      <trkpt lat="43.63926" lon="1.19757">
        <ele>239.19999694824</ele>
        <time>2015-01-18T08:31:41.000Z</time>
      </trkpt>
      <trkpt lat="43.63929" lon="1.19751">
        <ele>239.19999694824</ele>
        <time>2015-01-18T08:31:43.000Z</time>
      </trkpt>
      <trkpt lat="43.6393" lon="1.19716">
        <ele>238.60000610352</ele>
        <time>2015-01-18T08:31:53.000Z</time>
      </trkpt>
      <trkpt lat="43.63931" lon="1.19713">
        <ele>238.60000610352</ele>
        <time>2015-01-18T08:31:54.000Z</time>
      </trkpt>
      <trkpt lat="43.63929" lon="1.1969">
        <ele>238.39999389648</ele>
        <time>2015-01-18T08:32:00.000Z</time>
      </trkpt>
      <trkpt lat="43.63929" lon="1.19687">
        <ele>238.19999694824</ele>
        <time>2015-01-18T08:32:01.000Z</time>
      </trkpt>
      <trkpt lat="43.63927" lon="1.19677">
        <ele>238</ele>
        <time>2015-01-18T08:32:04.000Z</time>
      </trkpt>
      <trkpt lat="43.63924" lon="1.19655">
        <ele>237.60000610352</ele>
        <time>2015-01-18T08:32:10.000Z</time>
      </trkpt>
      <trkpt lat="43.63923" lon="1.19648">
        <ele>237.60000610352</ele>
        <time>2015-01-18T08:32:12.000Z</time>
      </trkpt>
      <trkpt lat="43.63931" lon="1.19628">
        <ele>237.80000305176</ele>
        <time>2015-01-18T08:32:18.000Z</time>
      </trkpt>
      <trkpt lat="43.63936" lon="1.19614">
        <ele>237.60000610352</ele>
        <time>2015-01-18T08:32:22.000Z</time>
      </trkpt>
      <trkpt lat="43.63939" lon="1.19607">
        <ele>237.39999389648</ele>
        <time>2015-01-18T08:32:26.000Z</time>
      </trkpt>
      <trkpt lat="43.63942" lon="1.19599">
        <ele>237.19999694824</ele>
        <time>2015-01-18T08:32:30.000Z</time>
      </trkpt>
      <trkpt lat="43.63947" lon="1.19586">
        <ele>236.80000305176</ele>
        <time>2015-01-18T08:32:34.000Z</time>
      </trkpt>
      <trkpt lat="43.63949" lon="1.1958">
        <ele>236.80000305176</ele>
        <time>2015-01-18T08:32:36.000Z</time>
      </trkpt>
      <trkpt lat="43.63956" lon="1.19569">
        <ele>236.19999694824</ele>
        <time>2015-01-18T08:32:40.000Z</time>
      </trkpt>
      <trkpt lat="43.63962" lon="1.19561">
        <ele>235.80000305176</ele>
        <time>2015-01-18T08:32:44.000Z</time>
      </trkpt>
      <trkpt lat="43.63967" lon="1.19571">
        <ele>235.80000305176</ele>
        <time>2015-01-18T08:32:48.000Z</time>
      </trkpt>
      <trkpt lat="43.63971" lon="1.19578">
        <ele>235.60000610352</ele>
        <time>2015-01-18T08:32:51.000Z</time>
      </trkpt>
      <trkpt lat="43.63975" lon="1.19591">
        <ele>235.80000305176</ele>
        <time>2015-01-18T08:32:56.000Z</time>
      </trkpt>
      <trkpt lat="43.63975" lon="1.19598">
        <ele>236</ele>
        <time>2015-01-18T08:32:59.000Z</time>
      </trkpt>
      <trkpt lat="43.63977" lon="1.19602">
        <ele>236</ele>
        <time>2015-01-18T08:33:01.000Z</time>
      </trkpt>
      <trkpt lat="43.63982" lon="1.19611">
        <ele>236</ele>
        <time>2015-01-18T08:33:05.000Z</time>
      </trkpt>
      <trkpt lat="43.63982" lon="1.19613">
        <ele>236</ele>
        <time>2015-01-18T08:33:06.000Z</time>
      </trkpt>
      <trkpt lat="43.63983" lon="1.19614">
        <ele>236</ele>
        <time>2015-01-18T08:33:07.000Z</time>
      </trkpt>
      <trkpt lat="43.63989" lon="1.19624">
        <ele>235.80000305176</ele>
        <time>2015-01-18T08:33:11.000Z</time>
      </trkpt>
      <trkpt lat="43.63992" lon="1.19641">
        <ele>236</ele>
        <time>2015-01-18T08:33:16.000Z</time>
      </trkpt>
      <trkpt lat="43.63995" lon="1.19649">
        <ele>236.19999694824</ele>
        <time>2015-01-18T08:33:19.000Z</time>
      </trkpt>
      <trkpt lat="43.64" lon="1.19657">
        <ele>236.39999389648</ele>
        <time>2015-01-18T08:33:22.000Z</time>
      </trkpt>
      <trkpt lat="43.64004" lon="1.19666">
        <ele>236.80000305176</ele>
        <time>2015-01-18T08:33:26.000Z</time>
      </trkpt>
      <trkpt lat="43.64006" lon="1.19668">
        <ele>236.80000305176</ele>
        <time>2015-01-18T08:33:27.000Z</time>
      </trkpt>
      <trkpt lat="43.64007" lon="1.19671">
        <ele>237</ele>
        <time>2015-01-18T08:33:28.000Z</time>
      </trkpt>
      <trkpt lat="43.6401" lon="1.19682">
        <ele>237.60000610352</ele>
        <time>2015-01-18T08:33:32.000Z</time>
      </trkpt>
      <trkpt lat="43.64015" lon="1.19692">
        <ele>238</ele>
        <time>2015-01-18T08:33:36.000Z</time>
      </trkpt>
      <trkpt lat="43.64024" lon="1.19704">
        <ele>238.19999694824</ele>
        <time>2015-01-18T08:33:41.000Z</time>
      </trkpt>
      <trkpt lat="43.64031" lon="1.19716">
        <ele>238.19999694824</ele>
        <time>2015-01-18T08:33:46.000Z</time>
      </trkpt>
      <trkpt lat="43.64032" lon="1.19718">
        <ele>238.19999694824</ele>
        <time>2015-01-18T08:33:47.000Z</time>
      </trkpt>
      <trkpt lat="43.6404" lon="1.19731">
        <ele>238.19999694824</ele>
        <time>2015-01-18T08:33:52.000Z</time>
      </trkpt>
      <trkpt lat="43.64043" lon="1.19737">
        <ele>238</ele>
        <time>2015-01-18T08:33:54.000Z</time>
      </trkpt>
      <trkpt lat="43.64044" lon="1.19749">
        <ele>238</ele>
        <time>2015-01-18T08:33:58.000Z</time>
      </trkpt>
      <trkpt lat="43.64051" lon="1.19765">
        <ele>237.39999389648</ele>
        <time>2015-01-18T08:34:04.000Z</time>
      </trkpt>
      <trkpt lat="43.64055" lon="1.19773">
        <ele>237.19999694824</ele>
        <time>2015-01-18T08:34:07.000Z</time>
      </trkpt>
      <trkpt lat="43.6406" lon="1.19784">
        <ele>237</ele>
        <time>2015-01-18T08:34:10.000Z</time>
      </trkpt>
      <trkpt lat="43.64072" lon="1.19797">
        <ele>236</ele>
        <time>2015-01-18T08:34:15.000Z</time>
      </trkpt>
      <trkpt lat="43.6408" lon="1.19811">
        <ele>235.39999389648</ele>
        <time>2015-01-18T08:34:20.000Z</time>
      </trkpt>
      <trkpt lat="43.64081" lon="1.19814">
        <ele>235.39999389648</ele>
        <time>2015-01-18T08:34:21.000Z</time>
      </trkpt>
      <trkpt lat="43.64087" lon="1.1983">
        <ele>235.19999694824</ele>
        <time>2015-01-18T08:34:26.000Z</time>
      </trkpt>
      <trkpt lat="43.64092" lon="1.19848">
        <ele>235</ele>
        <time>2015-01-18T08:34:31.000Z</time>
      </trkpt>
      <trkpt lat="43.64092" lon="1.19855">
        <ele>235.19999694824</ele>
        <time>2015-01-18T08:34:33.000Z</time>
      </trkpt>
      <trkpt lat="43.64093" lon="1.1986">
        <ele>235.19999694824</ele>
        <time>2015-01-18T08:34:35.000Z</time>
      </trkpt>
      <trkpt lat="43.64096" lon="1.19869">
        <ele>235</ele>
        <time>2015-01-18T08:34:39.000Z</time>
      </trkpt>
      <trkpt lat="43.64099" lon="1.19874">
        <ele>234.80000305176</ele>
        <time>2015-01-18T08:34:41.000Z</time>
      </trkpt>
      <trkpt lat="43.64112" lon="1.19896">
        <ele>234.80000305176</ele>
        <time>2015-01-18T08:34:48.000Z</time>
      </trkpt>
      <trkpt lat="43.64114" lon="1.199">
        <ele>234.39999389648</ele>
        <time>2015-01-18T08:34:49.000Z</time>
      </trkpt>
      <trkpt lat="43.64114" lon="1.19915">
        <ele>234.19999694824</ele>
        <time>2015-01-18T08:34:53.000Z</time>
      </trkpt>
      <trkpt lat="43.64118" lon="1.19931">
        <ele>234.19999694824</ele>
        <time>2015-01-18T08:34:57.000Z</time>
      </trkpt>
      <trkpt lat="43.64118" lon="1.19935">
        <ele>234.19999694824</ele>
        <time>2015-01-18T08:34:58.000Z</time>
      </trkpt>
      <trkpt lat="43.64126" lon="1.19944">
        <ele>233.60000610352</ele>
        <time>2015-01-18T08:35:01.000Z</time>
      </trkpt>
      <trkpt lat="43.64126" lon="1.19961">
        <ele>233.80000305176</ele>
        <time>2015-01-18T08:35:06.000Z</time>
      </trkpt>
      <trkpt lat="43.64128" lon="1.1997">
        <ele>233.80000305176</ele>
        <time>2015-01-18T08:35:09.000Z</time>
      </trkpt>
      <trkpt lat="43.64128" lon="1.19989">
        <ele>233.60000610352</ele>
        <time>2015-01-18T08:35:14.000Z</time>
      </trkpt>
      <trkpt lat="43.64128" lon="1.20005">
        <ele>233.19999694824</ele>
        <time>2015-01-18T08:35:19.000Z</time>
      </trkpt>
      <trkpt lat="43.64128" lon="1.20009">
        <ele>233</ele>
        <time>2015-01-18T08:35:20.000Z</time>
      </trkpt>
      <trkpt lat="43.64131" lon="1.20021">
        <ele>232.39999389648</ele>
        <time>2015-01-18T08:35:24.000Z</time>
      </trkpt>
      <trkpt lat="43.64136" lon="1.2003">
        <ele>231.80000305176</ele>
        <time>2015-01-18T08:35:27.000Z</time>
      </trkpt>
      <trkpt lat="43.64133" lon="1.20048">
        <ele>231.39999389648</ele>
        <time>2015-01-18T08:35:33.000Z</time>
      </trkpt>
      <trkpt lat="43.64132" lon="1.20054">
        <ele>231.19999694824</ele>
        <time>2015-01-18T08:35:35.000Z</time>
      </trkpt>
      <trkpt lat="43.64131" lon="1.20074">
        <ele>230.39999389648</ele>
        <time>2015-01-18T08:35:41.000Z</time>
      </trkpt>
      <trkpt lat="43.64136" lon="1.20091">
        <ele>229.19999694824</ele>
        <time>2015-01-18T08:35:46.000Z</time>
      </trkpt>
      <trkpt lat="43.64139" lon="1.20106">
        <ele>228.60000610352</ele>
        <time>2015-01-18T08:35:51.000Z</time>
      </trkpt>
      <trkpt lat="43.64141" lon="1.20126">
        <ele>228.39999389648</ele>
        <time>2015-01-18T08:35:56.000Z</time>
      </trkpt>
      <trkpt lat="43.64142" lon="1.2013">
        <ele>228.19999694824</ele>
        <time>2015-01-18T08:35:57.000Z</time>
      </trkpt>
      <trkpt lat="43.64147" lon="1.20143">
        <ele>227.60000610352</ele>
        <time>2015-01-18T08:36:01.000Z</time>
      </trkpt>
      <trkpt lat="43.64148" lon="1.20162">
        <ele>227</ele>
        <time>2015-01-18T08:36:07.000Z</time>
      </trkpt>
      <trkpt lat="43.64149" lon="1.20181">
        <ele>226</ele>
        <time>2015-01-18T08:36:12.000Z</time>
      </trkpt>
      <trkpt lat="43.6415" lon="1.20185">
        <ele>225.80000305176</ele>
        <time>2015-01-18T08:36:13.000Z</time>
      </trkpt>
      <trkpt lat="43.64157" lon="1.20204">
        <ele>224.39999389648</ele>
        <time>2015-01-18T08:36:19.000Z</time>
      </trkpt>
      <trkpt lat="43.6416" lon="1.20215">
        <ele>224</ele>
        <time>2015-01-18T08:36:23.000Z</time>
      </trkpt>
      <trkpt lat="43.6416" lon="1.20223">
        <ele>223.80000305176</ele>
        <time>2015-01-18T08:36:26.000Z</time>
      </trkpt>
      <trkpt lat="43.64156" lon="1.20235">
        <ele>224.19999694824</ele>
        <time>2015-01-18T08:36:31.000Z</time>
      </trkpt>
      <trkpt lat="43.64156" lon="1.20238">
        <ele>224</ele>
        <time>2015-01-18T08:36:32.000Z</time>
      </trkpt>
      <trkpt lat="43.6416" lon="1.20249">
        <ele>223.19999694824</ele>
        <time>2015-01-18T08:36:36.000Z</time>
      </trkpt>
      <trkpt lat="43.64169" lon="1.20259">
        <ele>221.60000610352</ele>
        <time>2015-01-18T08:36:42.000Z</time>
      </trkpt>
      <trkpt lat="43.64178" lon="1.20283">
        <ele>219.80000305176</ele>
        <time>2015-01-18T08:36:53.000Z</time>
      </trkpt>
      <trkpt lat="43.6418" lon="1.20286">
        <ele>219.60000610352</ele>
        <time>2015-01-18T08:36:54.000Z</time>
      </trkpt>
      <trkpt lat="43.6418" lon="1.20291">
        <ele>219.19999694824</ele>
        <time>2015-01-18T08:36:56.000Z</time>
      </trkpt>
      <trkpt lat="43.64184" lon="1.20303">
        <ele>218.39999389648</ele>
        <time>2015-01-18T08:37:00.000Z</time>
      </trkpt>
      <trkpt lat="43.64186" lon="1.20304">
        <ele>218.19999694824</ele>
        <time>2015-01-18T08:37:01.000Z</time>
      </trkpt>
      <trkpt lat="43.64194" lon="1.20307">
        <ele>218.39999389648</ele>
        <time>2015-01-18T08:37:05.000Z</time>
      </trkpt>
      <trkpt lat="43.64207" lon="1.20307">
        <ele>218.60000610352</ele>
        <time>2015-01-18T08:37:10.000Z</time>
      </trkpt>
      <trkpt lat="43.64212" lon="1.20316">
        <ele>218.60000610352</ele>
        <time>2015-01-18T08:37:13.000Z</time>
      </trkpt>
      <trkpt lat="43.64214" lon="1.20328">
        <ele>218.60000610352</ele>
        <time>2015-01-18T08:37:17.000Z</time>
      </trkpt>
      <trkpt lat="43.64214" lon="1.20336">
        <ele>218.60000610352</ele>
        <time>2015-01-18T08:37:19.000Z</time>
      </trkpt>
      <trkpt lat="43.64215" lon="1.20346">
        <ele>218.80000305176</ele>
        <time>2015-01-18T08:37:22.000Z</time>
      </trkpt>
      <trkpt lat="43.6422" lon="1.20354">
        <ele>219</ele>
        <time>2015-01-18T08:37:24.000Z</time>
      </trkpt>
      <trkpt lat="43.64221" lon="1.20367">
        <ele>219.39999389648</ele>
        <time>2015-01-18T08:37:28.000Z</time>
      </trkpt>
      <trkpt lat="43.64225" lon="1.20386">
        <ele>219.80000305176</ele>
        <time>2015-01-18T08:37:33.000Z</time>
      </trkpt>
      <trkpt lat="43.64224" lon="1.20389">
        <ele>219.80000305176</ele>
        <time>2015-01-18T08:37:34.000Z</time>
      </trkpt>
      <trkpt lat="43.64226" lon="1.20401">
        <ele>219.80000305176</ele>
        <time>2015-01-18T08:37:37.000Z</time>
      </trkpt>
      <trkpt lat="43.64228" lon="1.20411">
        <ele>219.60000610352</ele>
        <time>2015-01-18T08:37:40.000Z</time>
      </trkpt>
      <trkpt lat="43.64228" lon="1.20416">
        <ele>219.60000610352</ele>
        <time>2015-01-18T08:37:41.000Z</time>
      </trkpt>
      <trkpt lat="43.6423" lon="1.20435">
        <ele>219</ele>
        <time>2015-01-18T08:37:46.000Z</time>
      </trkpt>
      <trkpt lat="43.6423" lon="1.20439">
        <ele>219</ele>
        <time>2015-01-18T08:37:47.000Z</time>
      </trkpt>
      <trkpt lat="43.64231" lon="1.20442">
        <ele>219</ele>
        <time>2015-01-18T08:37:48.000Z</time>
      </trkpt>
      <trkpt lat="43.64235" lon="1.20455">
        <ele>218.80000305176</ele>
        <time>2015-01-18T08:37:53.000Z</time>
      </trkpt>
      <trkpt lat="43.64235" lon="1.20471">
        <ele>218.80000305176</ele>
        <time>2015-01-18T08:37:57.000Z</time>
      </trkpt>
      <trkpt lat="43.64236" lon="1.20476">
        <ele>218.80000305176</ele>
        <time>2015-01-18T08:37:58.000Z</time>
      </trkpt>
      <trkpt lat="43.64239" lon="1.20495">
        <ele>218.19999694824</ele>
        <time>2015-01-18T08:38:03.000Z</time>
      </trkpt>
      <trkpt lat="43.6424" lon="1.20507">
        <ele>217.60000610352</ele>
        <time>2015-01-18T08:38:06.000Z</time>
      </trkpt>
      <trkpt lat="43.6424" lon="1.20515">
        <ele>217.39999389648</ele>
        <time>2015-01-18T08:38:08.000Z</time>
      </trkpt>
      <trkpt lat="43.6424" lon="1.20527">
        <ele>217</ele>
        <time>2015-01-18T08:38:11.000Z</time>
      </trkpt>
      <trkpt lat="43.64243" lon="1.20542">
        <ele>216.39999389648</ele>
        <time>2015-01-18T08:38:15.000Z</time>
      </trkpt>
      <trkpt lat="43.64243" lon="1.20546">
        <ele>216.19999694824</ele>
        <time>2015-01-18T08:38:16.000Z</time>
      </trkpt>
      <trkpt lat="43.64252" lon="1.20571">
        <ele>215.39999389648</ele>
        <time>2015-01-18T08:38:22.000Z</time>
      </trkpt>
      <trkpt lat="43.64255" lon="1.20586">
        <ele>215.39999389648</ele>
        <time>2015-01-18T08:38:26.000Z</time>
      </trkpt>
      <trkpt lat="43.64257" lon="1.20598">
        <ele>215.19999694824</ele>
        <time>2015-01-18T08:38:29.000Z</time>
      </trkpt>
      <trkpt lat="43.64257" lon="1.2061">
        <ele>215.19999694824</ele>
        <time>2015-01-18T08:38:32.000Z</time>
      </trkpt>
      <trkpt lat="43.64265" lon="1.20628">
        <ele>215.19999694824</ele>
        <time>2015-01-18T08:38:37.000Z</time>
      </trkpt>
      <trkpt lat="43.6427" lon="1.20641">
        <ele>215</ele>
        <time>2015-01-18T08:38:41.000Z</time>
      </trkpt>
      <trkpt lat="43.64277" lon="1.2065">
        <ele>215.39999389648</ele>
        <time>2015-01-18T08:38:45.000Z</time>
      </trkpt>
      <trkpt lat="43.64277" lon="1.20654">
        <ele>215.60000610352</ele>
        <time>2015-01-18T08:38:46.000Z</time>
      </trkpt>
      <trkpt lat="43.64276" lon="1.20665">
        <ele>216.60000610352</ele>
        <time>2015-01-18T08:38:48.000Z</time>
      </trkpt>
      <trkpt lat="43.64279" lon="1.20687">
        <ele>218.19999694824</ele>
        <time>2015-01-18T08:38:53.000Z</time>
      </trkpt>
      <trkpt lat="43.64278" lon="1.207">
        <ele>219.39999389648</ele>
        <time>2015-01-18T08:38:56.000Z</time>
      </trkpt>
      <trkpt lat="43.64282" lon="1.2071">
        <ele>220.19999694824</ele>
        <time>2015-01-18T08:38:59.000Z</time>
      </trkpt>
      <trkpt lat="43.64281" lon="1.20715">
        <ele>220.60000610352</ele>
        <time>2015-01-18T08:39:00.000Z</time>
      </trkpt>
      <trkpt lat="43.64278" lon="1.20725">
        <ele>221.39999389648</ele>
        <time>2015-01-18T08:39:03.000Z</time>
      </trkpt>
      <trkpt lat="43.64277" lon="1.20729">
        <ele>221.80000305176</ele>
        <time>2015-01-18T08:39:04.000Z</time>
      </trkpt>
      <trkpt lat="43.64277" lon="1.20733">
        <ele>221.60000610352</ele>
        <time>2015-01-18T08:39:05.000Z</time>
      </trkpt>
      <trkpt lat="43.64281" lon="1.20747">
        <ele>221.60000610352</ele>
        <time>2015-01-18T08:39:09.000Z</time>
      </trkpt>
      <trkpt lat="43.64285" lon="1.2076">
        <ele>221.80000305176</ele>
        <time>2015-01-18T08:39:13.000Z</time>
      </trkpt>
      <trkpt lat="43.64286" lon="1.20763">
        <ele>221.80000305176</ele>
        <time>2015-01-18T08:39:14.000Z</time>
      </trkpt>
      <trkpt lat="43.64286" lon="1.20767">
        <ele>222</ele>
        <time>2015-01-18T08:39:15.000Z</time>
      </trkpt>
      <trkpt lat="43.64288" lon="1.20777">
        <ele>222.19999694824</ele>
        <time>2015-01-18T08:39:18.000Z</time>
      </trkpt>
      <trkpt lat="43.64292" lon="1.20796">
        <ele>222.80000305176</ele>
        <time>2015-01-18T08:39:23.000Z</time>
      </trkpt>
      <trkpt lat="43.64295" lon="1.20798">
        <ele>222.60000610352</ele>
        <time>2015-01-18T08:39:24.000Z</time>
      </trkpt>
      <trkpt lat="43.643" lon="1.20802">
        <ele>222.19999694824</ele>
        <time>2015-01-18T08:39:26.000Z</time>
      </trkpt>
      <trkpt lat="43.64308" lon="1.20819">
        <ele>221.80000305176</ele>
        <time>2015-01-18T08:39:31.000Z</time>
      </trkpt>
      <trkpt lat="43.64309" lon="1.20823">
        <ele>221.80000305176</ele>
        <time>2015-01-18T08:39:32.000Z</time>
      </trkpt>
      <trkpt lat="43.64307" lon="1.2084">
        <ele>221.80000305176</ele>
        <time>2015-01-18T08:39:37.000Z</time>
      </trkpt>
      <trkpt lat="43.64308" lon="1.20844">
        <ele>221.80000305176</ele>
        <time>2015-01-18T08:39:38.000Z</time>
      </trkpt>
      <trkpt lat="43.64309" lon="1.20855">
        <ele>221.80000305176</ele>
        <time>2015-01-18T08:39:41.000Z</time>
      </trkpt>
      <trkpt lat="43.64306" lon="1.2087">
        <ele>222.19999694824</ele>
        <time>2015-01-18T08:39:45.000Z</time>
      </trkpt>
      <trkpt lat="43.64305" lon="1.20874">
        <ele>222.39999389648</ele>
        <time>2015-01-18T08:39:46.000Z</time>
      </trkpt>
      <trkpt lat="43.64305" lon="1.20878">
        <ele>222.39999389648</ele>
        <time>2015-01-18T08:39:47.000Z</time>
      </trkpt>
      <trkpt lat="43.64307" lon="1.20891">
        <ele>222.39999389648</ele>
        <time>2015-01-18T08:39:51.000Z</time>
      </trkpt>
      <trkpt lat="43.64316" lon="1.20901">
        <ele>221.39999389648</ele>
        <time>2015-01-18T08:39:55.000Z</time>
      </trkpt>
      <trkpt lat="43.6432" lon="1.20906">
        <ele>221</ele>
        <time>2015-01-18T08:39:57.000Z</time>
      </trkpt>
      <trkpt lat="43.64328" lon="1.20925">
        <ele>220.39999389648</ele>
        <time>2015-01-18T08:40:03.000Z</time>
      </trkpt>
      <trkpt lat="43.64329" lon="1.20932">
        <ele>220.19999694824</ele>
        <time>2015-01-18T08:40:05.000Z</time>
      </trkpt>
      <trkpt lat="43.64335" lon="1.20951">
        <ele>219.80000305176</ele>
        <time>2015-01-18T08:40:10.000Z</time>
      </trkpt>
      <trkpt lat="43.64335" lon="1.20954">
        <ele>219.80000305176</ele>
        <time>2015-01-18T08:40:11.000Z</time>
      </trkpt>
      <trkpt lat="43.64336" lon="1.20956">
        <ele>219.80000305176</ele>
        <time>2015-01-18T08:40:12.000Z</time>
      </trkpt>
      <trkpt lat="43.64337" lon="1.20967">
        <ele>219.60000610352</ele>
        <time>2015-01-18T08:40:15.000Z</time>
      </trkpt>
      <trkpt lat="43.64339" lon="1.20974">
        <ele>219.39999389648</ele>
        <time>2015-01-18T08:40:17.000Z</time>
      </trkpt>
      <trkpt lat="43.64341" lon="1.20989">
        <ele>219.60000610352</ele>
        <time>2015-01-18T08:40:21.000Z</time>
      </trkpt>
      <trkpt lat="43.6435" lon="1.21007">
        <ele>219.19999694824</ele>
        <time>2015-01-18T08:40:26.000Z</time>
      </trkpt>
      <trkpt lat="43.64355" lon="1.21023">
        <ele>219.39999389648</ele>
        <time>2015-01-18T08:40:30.000Z</time>
      </trkpt>
      <trkpt lat="43.64355" lon="1.21026">
        <ele>219.39999389648</ele>
        <time>2015-01-18T08:40:31.000Z</time>
      </trkpt>
      <trkpt lat="43.64356" lon="1.21037">
        <ele>219.80000305176</ele>
        <time>2015-01-18T08:40:34.000Z</time>
      </trkpt>
      <trkpt lat="43.64362" lon="1.21058">
        <ele>220</ele>
        <time>2015-01-18T08:40:40.000Z</time>
      </trkpt>
      <trkpt lat="43.64366" lon="1.21067">
        <ele>219.80000305176</ele>
        <time>2015-01-18T08:40:43.000Z</time>
      </trkpt>
      <trkpt lat="43.6437" lon="1.21076">
        <ele>219.39999389648</ele>
        <time>2015-01-18T08:40:47.000Z</time>
      </trkpt>
      <trkpt lat="43.64374" lon="1.21095">
        <ele>219.60000610352</ele>
        <time>2015-01-18T08:40:52.000Z</time>
      </trkpt>
      <trkpt lat="43.64375" lon="1.21098">
        <ele>219.60000610352</ele>
        <time>2015-01-18T08:40:53.000Z</time>
      </trkpt>
      <trkpt lat="43.64379" lon="1.21119">
        <ele>219.80000305176</ele>
        <time>2015-01-18T08:40:59.000Z</time>
      </trkpt>
      <trkpt lat="43.64384" lon="1.21127">
        <ele>219.60000610352</ele>
        <time>2015-01-18T08:41:02.000Z</time>
      </trkpt>
      <trkpt lat="43.6439" lon="1.21138">
        <ele>219.19999694824</ele>
        <time>2015-01-18T08:41:06.000Z</time>
      </trkpt>
      <trkpt lat="43.64403" lon="1.21156">
        <ele>219.19999694824</ele>
        <time>2015-01-18T08:41:12.000Z</time>
      </trkpt>
      <trkpt lat="43.64406" lon="1.21159">
        <ele>219.19999694824</ele>
        <time>2015-01-18T08:41:13.000Z</time>
      </trkpt>
      <trkpt lat="43.64415" lon="1.21167">
        <ele>219.19999694824</ele>
        <time>2015-01-18T08:41:17.000Z</time>
      </trkpt>
      <trkpt lat="43.64428" lon="1.21179">
        <ele>219</ele>
        <time>2015-01-18T08:41:23.000Z</time>
      </trkpt>
      <trkpt lat="43.6444" lon="1.21188">
        <ele>218.60000610352</ele>
        <time>2015-01-18T08:41:27.000Z</time>
      </trkpt>
      <trkpt lat="43.64442" lon="1.2119">
        <ele>218.39999389648</ele>
        <time>2015-01-18T08:41:28.000Z</time>
      </trkpt>
      <trkpt lat="43.64457" lon="1.21197">
        <ele>217.19999694824</ele>
        <time>2015-01-18T08:41:33.000Z</time>
      </trkpt>
      <trkpt lat="43.64478" lon="1.21215">
        <ele>216.19999694824</ele>
        <time>2015-01-18T08:41:43.000Z</time>
      </trkpt>
      <trkpt lat="43.64498" lon="1.21236">
        <ele>215.80000305176</ele>
        <time>2015-01-18T08:41:52.000Z</time>
      </trkpt>
      <trkpt lat="43.645" lon="1.21239">
        <ele>215.80000305176</ele>
        <time>2015-01-18T08:41:53.000Z</time>
      </trkpt>
      <trkpt lat="43.64511" lon="1.21249">
        <ele>215</ele>
        <time>2015-01-18T08:41:58.000Z</time>
      </trkpt>
      <trkpt lat="43.64513" lon="1.21251">
        <ele>215</ele>
        <time>2015-01-18T08:41:59.000Z</time>
      </trkpt>
      <trkpt lat="43.64524" lon="1.21257">
        <ele>214.39999389648</ele>
        <time>2015-01-18T08:42:03.000Z</time>
      </trkpt>
      <trkpt lat="43.64538" lon="1.21269">
        <ele>214.60000610352</ele>
        <time>2015-01-18T08:42:09.000Z</time>
      </trkpt>
      <trkpt lat="43.64548" lon="1.21276">
        <ele>214.60000610352</ele>
        <time>2015-01-18T08:42:13.000Z</time>
      </trkpt>
      <trkpt lat="43.64558" lon="1.21282">
        <ele>214.39999389648</ele>
        <time>2015-01-18T08:42:17.000Z</time>
      </trkpt>
      <trkpt lat="43.64567" lon="1.21288">
        <ele>214.19999694824</ele>
        <time>2015-01-18T08:42:21.000Z</time>
      </trkpt>
      <trkpt lat="43.64581" lon="1.21296">
        <ele>214</ele>
        <time>2015-01-18T08:42:27.000Z</time>
      </trkpt>
      <trkpt lat="43.64583" lon="1.21296">
        <ele>214</ele>
        <time>2015-01-18T08:42:28.000Z</time>
      </trkpt>
      <trkpt lat="43.64591" lon="1.21298">
        <ele>213.60000610352</ele>
        <time>2015-01-18T08:42:32.000Z</time>
      </trkpt>
      <trkpt lat="43.64603" lon="1.21303">
        <ele>213.39999389648</ele>
        <time>2015-01-18T08:42:38.000Z</time>
      </trkpt>
      <trkpt lat="43.64617" lon="1.21304">
        <ele>213.19999694824</ele>
        <time>2015-01-18T08:42:45.000Z</time>
      </trkpt>
      <trkpt lat="43.64621" lon="1.21303">
        <ele>213.19999694824</ele>
        <time>2015-01-18T08:42:47.000Z</time>
      </trkpt>
      <trkpt lat="43.6464" lon="1.21303">
        <ele>213</ele>
        <time>2015-01-18T08:42:56.000Z</time>
      </trkpt>
      <trkpt lat="43.64648" lon="1.21302">
        <ele>212.80000305176</ele>
        <time>2015-01-18T08:43:00.000Z</time>
      </trkpt>
      <trkpt lat="43.64658" lon="1.21297">
        <ele>212.19999694824</ele>
        <time>2015-01-18T08:43:05.000Z</time>
      </trkpt>
      <trkpt lat="43.6466" lon="1.21297">
        <ele>212.19999694824</ele>
        <time>2015-01-18T08:43:06.000Z</time>
      </trkpt>
      <trkpt lat="43.64666" lon="1.21295">
        <ele>212</ele>
        <time>2015-01-18T08:43:09.000Z</time>
      </trkpt>
      <trkpt lat="43.64678" lon="1.21292">
        <ele>211.60000610352</ele>
        <time>2015-01-18T08:43:15.000Z</time>
      </trkpt>
      <trkpt lat="43.6469" lon="1.21289">
        <ele>211.19999694824</ele>
        <time>2015-01-18T08:43:20.000Z</time>
      </trkpt>
      <trkpt lat="43.64698" lon="1.21287">
        <ele>211.19999694824</ele>
        <time>2015-01-18T08:43:25.000Z</time>
      </trkpt>
      <trkpt lat="43.64708" lon="1.21283">
        <ele>211.19999694824</ele>
        <time>2015-01-18T08:43:29.000Z</time>
      </trkpt>
      <trkpt lat="43.6471" lon="1.21282">
        <ele>211</ele>
        <time>2015-01-18T08:43:30.000Z</time>
      </trkpt>
      <trkpt lat="43.64724" lon="1.21277">
        <ele>211</ele>
        <time>2015-01-18T08:43:36.000Z</time>
      </trkpt>
      <trkpt lat="43.64735" lon="1.2127">
        <ele>210.60000610352</ele>
        <time>2015-01-18T08:43:41.000Z</time>
      </trkpt>
      <trkpt lat="43.64741" lon="1.21265">
        <ele>210</ele>
        <time>2015-01-18T08:43:44.000Z</time>
      </trkpt>
      <trkpt lat="43.64743" lon="1.21263">
        <ele>209.80000305176</ele>
        <time>2015-01-18T08:43:46.000Z</time>
      </trkpt>
      <trkpt lat="43.64749" lon="1.21256">
        <ele>209</ele>
        <time>2015-01-18T08:43:50.000Z</time>
      </trkpt>
      <trkpt lat="43.64752" lon="1.21252">
        <ele>208.60000610352</ele>
        <time>2015-01-18T08:43:52.000Z</time>
      </trkpt>
      <trkpt lat="43.64761" lon="1.21246">
        <ele>207.80000305176</ele>
        <time>2015-01-18T08:43:57.000Z</time>
      </trkpt>
      <trkpt lat="43.6477" lon="1.21242">
        <ele>207.39999389648</ele>
        <time>2015-01-18T08:44:02.000Z</time>
      </trkpt>
      <trkpt lat="43.6478" lon="1.21236">
        <ele>207.19999694824</ele>
        <time>2015-01-18T08:44:07.000Z</time>
      </trkpt>
      <trkpt lat="43.64781" lon="1.21236">
        <ele>207</ele>
        <time>2015-01-18T08:44:08.000Z</time>
      </trkpt>
      <trkpt lat="43.64783" lon="1.21235">
        <ele>206.80000305176</ele>
        <time>2015-01-18T08:44:10.000Z</time>
      </trkpt>
      <trkpt lat="43.64792" lon="1.21225">
        <ele>205.39999389648</ele>
        <time>2015-01-18T08:44:16.000Z</time>
      </trkpt>
      <trkpt lat="43.64793" lon="1.21223">
        <ele>205.19999694824</ele>
        <time>2015-01-18T08:44:17.000Z</time>
      </trkpt>
      <trkpt lat="43.64799" lon="1.21218">
        <ele>205</ele>
        <time>2015-01-18T08:44:21.000Z</time>
      </trkpt>
      <trkpt lat="43.64802" lon="1.21222">
        <ele>205</ele>
        <time>2015-01-18T08:44:24.000Z</time>
      </trkpt>
      <trkpt lat="43.64803" lon="1.21224">
        <ele>205</ele>
        <time>2015-01-18T08:44:25.000Z</time>
      </trkpt>
      <trkpt lat="43.6481" lon="1.21233">
        <ele>205.80000305176</ele>
        <time>2015-01-18T08:44:30.000Z</time>
      </trkpt>
      <trkpt lat="43.64812" lon="1.21238">
        <ele>206.60000610352</ele>
        <time>2015-01-18T08:44:32.000Z</time>
      </trkpt>
      <trkpt lat="43.64817" lon="1.21247">
        <ele>208.19999694824</ele>
        <time>2015-01-18T08:44:38.000Z</time>
      </trkpt>
      <trkpt lat="43.64821" lon="1.21258">
        <ele>210</ele>
        <time>2015-01-18T08:44:45.000Z</time>
      </trkpt>
      <trkpt lat="43.64825" lon="1.21263">
        <ele>210.80000305176</ele>
        <time>2015-01-18T08:44:48.000Z</time>
      </trkpt>
      <trkpt lat="43.64829" lon="1.21268">
        <ele>211.60000610352</ele>
        <time>2015-01-18T08:44:51.000Z</time>
      </trkpt>
      <trkpt lat="43.64833" lon="1.21272">
        <ele>212.39999389648</ele>
        <time>2015-01-18T08:44:57.000Z</time>
      </trkpt>
      <trkpt lat="43.64834" lon="1.21273">
        <ele>212.39999389648</ele>
        <time>2015-01-18T08:44:58.000Z</time>
      </trkpt>
      <trkpt lat="43.6484" lon="1.21282">
        <ele>214</ele>
        <time>2015-01-18T08:45:08.000Z</time>
      </trkpt>
      <trkpt lat="43.64841" lon="1.21284">
        <ele>214.19999694824</ele>
        <time>2015-01-18T08:45:11.000Z</time>
      </trkpt>
      <trkpt lat="43.64845" lon="1.21288">
        <ele>214.80000305176</ele>
        <time>2015-01-18T08:45:17.000Z</time>
      </trkpt>
      <trkpt lat="43.64847" lon="1.2129">
        <ele>215.19999694824</ele>
        <time>2015-01-18T08:45:22.000Z</time>
      </trkpt>
      <trkpt lat="43.64847" lon="1.21295">
        <ele>216</ele>
        <time>2015-01-18T08:45:28.000Z</time>
      </trkpt>
      <trkpt lat="43.64848" lon="1.21298">
        <ele>216.60000610352</ele>
        <time>2015-01-18T08:45:33.000Z</time>
      </trkpt>
      <trkpt lat="43.64849" lon="1.21301">
        <ele>217</ele>
        <time>2015-01-18T08:45:39.000Z</time>
      </trkpt>
      <trkpt lat="43.64857" lon="1.21306">
        <ele>218.19999694824</ele>
        <time>2015-01-18T08:45:52.000Z</time>
      </trkpt>
      <trkpt lat="43.64859" lon="1.21307">
        <ele>218.60000610352</ele>
        <time>2015-01-18T08:45:55.000Z</time>
      </trkpt>
      <trkpt lat="43.64861" lon="1.21312">
        <ele>219.60000610352</ele>
        <time>2015-01-18T08:46:02.000Z</time>
      </trkpt>
      <trkpt lat="43.64863" lon="1.21317">
        <ele>219.80000305176</ele>
        <time>2015-01-18T08:46:07.000Z</time>
      </trkpt>
      <trkpt lat="43.64866" lon="1.2132">
        <ele>220</ele>
        <time>2015-01-18T08:46:11.000Z</time>
      </trkpt>
      <trkpt lat="43.64866" lon="1.2132">
        <ele>220</ele>
        <time>2015-01-18T08:46:12.000Z</time>
      </trkpt>
      <trkpt lat="43.64868" lon="1.21325">
        <ele>220.19999694824</ele>
        <time>2015-01-18T08:46:18.000Z</time>
      </trkpt>
      <trkpt lat="43.64871" lon="1.21332">
        <ele>220.80000305176</ele>
        <time>2015-01-18T08:46:26.000Z</time>
      </trkpt>
      <trkpt lat="43.64873" lon="1.21332">
        <ele>220.80000305176</ele>
        <time>2015-01-18T08:46:31.000Z</time>
      </trkpt>
      <trkpt lat="43.64876" lon="1.21331">
        <ele>221</ele>
        <time>2015-01-18T08:46:33.000Z</time>
      </trkpt>
      <trkpt lat="43.64881" lon="1.21328">
        <ele>221.19999694824</ele>
        <time>2015-01-18T08:46:37.000Z</time>
      </trkpt>
      <trkpt lat="43.64883" lon="1.21328">
        <ele>221.39999389648</ele>
        <time>2015-01-18T08:46:39.000Z</time>
      </trkpt>
      <trkpt lat="43.64891" lon="1.21325">
        <ele>222</ele>
        <time>2015-01-18T08:46:44.000Z</time>
      </trkpt>
      <trkpt lat="43.64899" lon="1.21321">
        <ele>222.39999389648</ele>
        <time>2015-01-18T08:46:48.000Z</time>
      </trkpt>
      <trkpt lat="43.64912" lon="1.2131">
        <ele>223</ele>
        <time>2015-01-18T08:46:54.000Z</time>
      </trkpt>
      <trkpt lat="43.64918" lon="1.21301">
        <ele>221.80000305176</ele>
        <time>2015-01-18T08:46:58.000Z</time>
      </trkpt>
      <trkpt lat="43.6492" lon="1.21294">
        <ele>221</ele>
        <time>2015-01-18T08:47:01.000Z</time>
      </trkpt>
      <trkpt lat="43.64922" lon="1.21291">
        <ele>221</ele>
        <time>2015-01-18T08:47:02.000Z</time>
      </trkpt>
      <trkpt lat="43.64934" lon="1.21286">
        <ele>222.60000610352</ele>
        <time>2015-01-18T08:47:07.000Z</time>
      </trkpt>
      <trkpt lat="43.64937" lon="1.21283">
        <ele>222.60000610352</ele>
        <time>2015-01-18T08:47:08.000Z</time>
      </trkpt>
      <trkpt lat="43.64943" lon="1.21272">
        <ele>221.60000610352</ele>
        <time>2015-01-18T08:47:12.000Z</time>
      </trkpt>
      <trkpt lat="43.64953" lon="1.21258">
        <ele>220.39999389648</ele>
        <time>2015-01-18T08:47:18.000Z</time>
      </trkpt>
      <trkpt lat="43.64961" lon="1.21249">
        <ele>220.19999694824</ele>
        <time>2015-01-18T08:47:23.000Z</time>
      </trkpt>
      <trkpt lat="43.64965" lon="1.21245">
        <ele>220.39999389648</ele>
        <time>2015-01-18T08:47:25.000Z</time>
      </trkpt>
      <trkpt lat="43.64978" lon="1.21239">
        <ele>221.60000610352</ele>
        <time>2015-01-18T08:47:31.000Z</time>
      </trkpt>
      <trkpt lat="43.64987" lon="1.2124">
        <ele>222.19999694824</ele>
        <time>2015-01-18T08:47:35.000Z</time>
      </trkpt>
      <trkpt lat="43.64996" lon="1.21244">
        <ele>223</ele>
        <time>2015-01-18T08:47:41.000Z</time>
      </trkpt>
      <trkpt lat="43.64999" lon="1.21242">
        <ele>223.19999694824</ele>
        <time>2015-01-18T08:47:42.000Z</time>
      </trkpt>
      <trkpt lat="43.65009" lon="1.2124">
        <ele>224.19999694824</ele>
        <time>2015-01-18T08:47:46.000Z</time>
      </trkpt>
      <trkpt lat="43.65021" lon="1.2124">
        <ele>225</ele>
        <time>2015-01-18T08:47:50.000Z</time>
      </trkpt>
      <trkpt lat="43.65032" lon="1.2124">
        <ele>224.80000305176</ele>
        <time>2015-01-18T08:47:54.000Z</time>
      </trkpt>
      <trkpt lat="43.65042" lon="1.2124">
        <ele>224.80000305176</ele>
        <time>2015-01-18T08:47:58.000Z</time>
      </trkpt>
      <trkpt lat="43.65055" lon="1.21251">
        <ele>224.39999389648</ele>
        <time>2015-01-18T08:48:04.000Z</time>
      </trkpt>
      <trkpt lat="43.65058" lon="1.21251">
        <ele>224.39999389648</ele>
        <time>2015-01-18T08:48:05.000Z</time>
      </trkpt>
      <trkpt lat="43.65064" lon="1.2125">
        <ele>224.39999389648</ele>
        <time>2015-01-18T08:48:07.000Z</time>
      </trkpt>
      <trkpt lat="43.65074" lon="1.21246">
        <ele>224.60000610352</ele>
        <time>2015-01-18T08:48:11.000Z</time>
      </trkpt>
      <trkpt lat="43.65091" lon="1.21245">
        <ele>224.60000610352</ele>
        <time>2015-01-18T08:48:17.000Z</time>
      </trkpt>
      <trkpt lat="43.65101" lon="1.21245">
        <ele>224.60000610352</ele>
        <time>2015-01-18T08:48:21.000Z</time>
      </trkpt>
      <trkpt lat="43.65116" lon="1.21239">
        <ele>224.39999389648</ele>
        <time>2015-01-18T08:48:26.000Z</time>
      </trkpt>
      <trkpt lat="43.65119" lon="1.21239">
        <ele>224.19999694824</ele>
        <time>2015-01-18T08:48:27.000Z</time>
      </trkpt>
      <trkpt lat="43.6513" lon="1.21241">
        <ele>223.60000610352</ele>
        <time>2015-01-18T08:48:31.000Z</time>
      </trkpt>
      <trkpt lat="43.65133" lon="1.21242">
        <ele>223.60000610352</ele>
        <time>2015-01-18T08:48:32.000Z</time>
      </trkpt>
      <trkpt lat="43.65141" lon="1.21244">
        <ele>223.19999694824</ele>
        <time>2015-01-18T08:48:35.000Z</time>
      </trkpt>
      <trkpt lat="43.65153" lon="1.21244">
        <ele>222.60000610352</ele>
        <time>2015-01-18T08:48:40.000Z</time>
      </trkpt>
      <trkpt lat="43.65172" lon="1.21247">
        <ele>221.60000610352</ele>
        <time>2015-01-18T08:48:46.000Z</time>
      </trkpt>
      <trkpt lat="43.65185" lon="1.21251">
        <ele>221</ele>
        <time>2015-01-18T08:48:50.000Z</time>
      </trkpt>
      <trkpt lat="43.65198" lon="1.21251">
        <ele>220.19999694824</ele>
        <time>2015-01-18T08:48:54.000Z</time>
      </trkpt>
      <trkpt lat="43.65203" lon="1.21253">
        <ele>220</ele>
        <time>2015-01-18T08:48:56.000Z</time>
      </trkpt>
      <trkpt lat="43.65218" lon="1.21256">
        <ele>219</ele>
        <time>2015-01-18T08:49:01.000Z</time>
      </trkpt>
      <trkpt lat="43.65236" lon="1.21261">
        <ele>217.80000305176</ele>
        <time>2015-01-18T08:49:06.000Z</time>
      </trkpt>
      <trkpt lat="43.65253" lon="1.21264">
        <ele>216.60000610352</ele>
        <time>2015-01-18T08:49:11.000Z</time>
      </trkpt>
      <trkpt lat="43.65265" lon="1.21266">
        <ele>215.80000305176</ele>
        <time>2015-01-18T08:49:15.000Z</time>
      </trkpt>
      <trkpt lat="43.65284" lon="1.21269">
        <ele>214.39999389648</ele>
        <time>2015-01-18T08:49:21.000Z</time>
      </trkpt>
      <trkpt lat="43.65302" lon="1.21273">
        <ele>213.19999694824</ele>
        <time>2015-01-18T08:49:27.000Z</time>
      </trkpt>
      <trkpt lat="43.65316" lon="1.21277">
        <ele>212.19999694824</ele>
        <time>2015-01-18T08:49:32.000Z</time>
      </trkpt>
      <trkpt lat="43.65333" lon="1.21281">
        <ele>211.19999694824</ele>
        <time>2015-01-18T08:49:38.000Z</time>
      </trkpt>
      <trkpt lat="43.65351" lon="1.21287">
        <ele>210</ele>
        <time>2015-01-18T08:49:44.000Z</time>
      </trkpt>
      <trkpt lat="43.65368" lon="1.21292">
        <ele>209</ele>
        <time>2015-01-18T08:49:50.000Z</time>
      </trkpt>
      <trkpt lat="43.6538" lon="1.21285">
        <ele>208.39999389648</ele>
        <time>2015-01-18T08:49:54.000Z</time>
      </trkpt>
      <trkpt lat="43.6539" lon="1.21276">
        <ele>207.80000305176</ele>
        <time>2015-01-18T08:49:58.000Z</time>
      </trkpt>
      <trkpt lat="43.65401" lon="1.21269">
        <ele>207.19999694824</ele>
        <time>2015-01-18T08:50:02.000Z</time>
      </trkpt>
      <trkpt lat="43.65415" lon="1.21265">
        <ele>206.60000610352</ele>
        <time>2015-01-18T08:50:07.000Z</time>
      </trkpt>
      <trkpt lat="43.65426" lon="1.2126">
        <ele>206</ele>
        <time>2015-01-18T08:50:11.000Z</time>
      </trkpt>
      <trkpt lat="43.65435" lon="1.21264">
        <ele>205.60000610352</ele>
        <time>2015-01-18T08:50:14.000Z</time>
      </trkpt>
      <trkpt lat="43.65445" lon="1.21263">
        <ele>205</ele>
        <time>2015-01-18T08:50:18.000Z</time>
      </trkpt>
      <trkpt lat="43.65448" lon="1.21265">
        <ele>204.80000305176</ele>
        <time>2015-01-18T08:50:19.000Z</time>
      </trkpt>
      <trkpt lat="43.65456" lon="1.21271">
        <ele>204.19999694824</ele>
        <time>2015-01-18T08:50:22.000Z</time>
      </trkpt>
      <trkpt lat="43.6547" lon="1.21277">
        <ele>203.39999389648</ele>
        <time>2015-01-18T08:50:28.000Z</time>
      </trkpt>
      <trkpt lat="43.65473" lon="1.21276">
        <ele>203.19999694824</ele>
        <time>2015-01-18T08:50:30.000Z</time>
      </trkpt>
      <trkpt lat="43.65498" lon="1.21283">
        <ele>201.60000610352</ele>
        <time>2015-01-18T08:50:39.000Z</time>
      </trkpt>
      <trkpt lat="43.65513" lon="1.21297">
        <ele>200.39999389648</ele>
        <time>2015-01-18T08:50:45.000Z</time>
      </trkpt>
      <trkpt lat="43.65518" lon="1.21301">
        <ele>200.19999694824</ele>
        <time>2015-01-18T08:50:47.000Z</time>
      </trkpt>
      <trkpt lat="43.65515" lon="1.21311">
        <ele>200.19999694824</ele>
        <time>2015-01-18T08:50:50.000Z</time>
      </trkpt>
      <trkpt lat="43.65508" lon="1.21325">
        <ele>200.60000610352</ele>
        <time>2015-01-18T08:50:55.000Z</time>
      </trkpt>
      <trkpt lat="43.65511" lon="1.21341">
        <ele>200.60000610352</ele>
        <time>2015-01-18T08:50:59.000Z</time>
      </trkpt>
      <trkpt lat="43.65512" lon="1.21344">
        <ele>200.39999389648</ele>
        <time>2015-01-18T08:51:00.000Z</time>
      </trkpt>
      <trkpt lat="43.65519" lon="1.21361">
        <ele>200</ele>
        <time>2015-01-18T08:51:05.000Z</time>
      </trkpt>
      <trkpt lat="43.65522" lon="1.21361">
        <ele>200</ele>
        <time>2015-01-18T08:51:06.000Z</time>
      </trkpt>
      <trkpt lat="43.65533" lon="1.21354">
        <ele>199.60000610352</ele>
        <time>2015-01-18T08:51:10.000Z</time>
      </trkpt>
      <trkpt lat="43.65552" lon="1.21342">
        <ele>199.19999694824</ele>
        <time>2015-01-18T08:51:17.000Z</time>
      </trkpt>
      <trkpt lat="43.65565" lon="1.21332">
        <ele>198</ele>
        <time>2015-01-18T08:51:22.000Z</time>
      </trkpt>
      <trkpt lat="43.65578" lon="1.21319">
        <ele>196.80000305176</ele>
        <time>2015-01-18T08:51:27.000Z</time>
      </trkpt>
      <trkpt lat="43.6559" lon="1.21313">
        <ele>195.80000305176</ele>
        <time>2015-01-18T08:51:31.000Z</time>
      </trkpt>
      <trkpt lat="43.65597" lon="1.21307">
        <ele>195.39999389648</ele>
        <time>2015-01-18T08:51:34.000Z</time>
      </trkpt>
      <trkpt lat="43.65626" lon="1.21286">
        <ele>192.60000610352</ele>
        <time>2015-01-18T08:51:45.000Z</time>
      </trkpt>
      <trkpt lat="43.65635" lon="1.21277">
        <ele>191.80000305176</ele>
        <time>2015-01-18T08:51:49.000Z</time>
      </trkpt>
      <trkpt lat="43.65648" lon="1.21264">
        <ele>190.19999694824</ele>
        <time>2015-01-18T08:51:54.000Z</time>
      </trkpt>
      <trkpt lat="43.65661" lon="1.21251">
        <ele>188</ele>
        <time>2015-01-18T08:52:00.000Z</time>
      </trkpt>
      <trkpt lat="43.65668" lon="1.21246">
        <ele>187</ele>
        <time>2015-01-18T08:52:03.000Z</time>
      </trkpt>
      <trkpt lat="43.65674" lon="1.21237">
        <ele>185.60000610352</ele>
        <time>2015-01-18T08:52:07.000Z</time>
      </trkpt>
      <trkpt lat="43.65677" lon="1.21236">
        <ele>185.39999389648</ele>
        <time>2015-01-18T08:52:08.000Z</time>
      </trkpt>
      <trkpt lat="43.65687" lon="1.21232">
        <ele>184.19999694824</ele>
        <time>2015-01-18T08:52:13.000Z</time>
      </trkpt>
      <trkpt lat="43.65698" lon="1.2123">
        <ele>183.39999389648</ele>
        <time>2015-01-18T08:52:18.000Z</time>
      </trkpt>
      <trkpt lat="43.657" lon="1.21231">
        <ele>183.39999389648</ele>
        <time>2015-01-18T08:52:19.000Z</time>
      </trkpt>
      <trkpt lat="43.65706" lon="1.21238">
        <ele>184</ele>
        <time>2015-01-18T08:52:22.000Z</time>
      </trkpt>
      <trkpt lat="43.65709" lon="1.21247">
        <ele>184.80000305176</ele>
        <time>2015-01-18T08:52:25.000Z</time>
      </trkpt>
      <trkpt lat="43.65711" lon="1.21253">
        <ele>185.39999389648</ele>
        <time>2015-01-18T08:52:27.000Z</time>
      </trkpt>
      <trkpt lat="43.65718" lon="1.2126">
        <ele>185.80000305176</ele>
        <time>2015-01-18T08:52:32.000Z</time>
      </trkpt>
      <trkpt lat="43.65719" lon="1.21261">
        <ele>186</ele>
        <time>2015-01-18T08:52:33.000Z</time>
      </trkpt>
      <trkpt lat="43.6572" lon="1.21272">
        <ele>187</ele>
        <time>2015-01-18T08:52:37.000Z</time>
      </trkpt>
      <trkpt lat="43.65721" lon="1.21276">
        <ele>187.39999389648</ele>
        <time>2015-01-18T08:52:39.000Z</time>
      </trkpt>
      <trkpt lat="43.65724" lon="1.21284">
        <ele>188</ele>
        <time>2015-01-18T08:52:44.000Z</time>
      </trkpt>
      <trkpt lat="43.65725" lon="1.21292">
        <ele>188.60000610352</ele>
        <time>2015-01-18T08:52:47.000Z</time>
      </trkpt>
      <trkpt lat="43.65727" lon="1.21307">
        <ele>190</ele>
        <time>2015-01-18T08:52:53.000Z</time>
      </trkpt>
      <trkpt lat="43.65733" lon="1.21322">
        <ele>190.80000305176</ele>
        <time>2015-01-18T08:52:59.000Z</time>
      </trkpt>
      <trkpt lat="43.65738" lon="1.21327">
        <ele>190.80000305176</ele>
        <time>2015-01-18T08:53:03.000Z</time>
      </trkpt>
      <trkpt lat="43.65745" lon="1.21329">
        <ele>190.80000305176</ele>
        <time>2015-01-18T08:53:09.000Z</time>
      </trkpt>
      <trkpt lat="43.6575" lon="1.21332">
        <ele>190.60000610352</ele>
        <time>2015-01-18T08:53:14.000Z</time>
      </trkpt>
      <trkpt lat="43.65757" lon="1.21341">
        <ele>190.80000305176</ele>
        <time>2015-01-18T08:53:20.000Z</time>
      </trkpt>
      <trkpt lat="43.65761" lon="1.21347">
        <ele>191</ele>
        <time>2015-01-18T08:53:25.000Z</time>
      </trkpt>
      <trkpt lat="43.65761" lon="1.21353">
        <ele>191.19999694824</ele>
        <time>2015-01-18T08:53:29.000Z</time>
      </trkpt>
      <trkpt lat="43.65764" lon="1.21354">
        <ele>191.19999694824</ele>
        <time>2015-01-18T08:53:33.000Z</time>
      </trkpt>
      <trkpt lat="43.65766" lon="1.21353">
        <ele>191</ele>
        <time>2015-01-18T08:53:34.000Z</time>
      </trkpt>
      <trkpt lat="43.65777" lon="1.21346">
        <ele>190.19999694824</ele>
        <time>2015-01-18T08:53:39.000Z</time>
      </trkpt>
      <trkpt lat="43.65791" lon="1.21347">
        <ele>189.39999389648</ele>
        <time>2015-01-18T08:53:44.000Z</time>
      </trkpt>
      <trkpt lat="43.65793" lon="1.21347">
        <ele>189.19999694824</ele>
        <time>2015-01-18T08:53:45.000Z</time>
      </trkpt>
      <trkpt lat="43.65799" lon="1.21352">
        <ele>189.19999694824</ele>
        <time>2015-01-18T08:53:48.000Z</time>
      </trkpt>
      <trkpt lat="43.6581" lon="1.21354">
        <ele>188.60000610352</ele>
        <time>2015-01-18T08:53:53.000Z</time>
      </trkpt>
      <trkpt lat="43.65818" lon="1.21354">
        <ele>187.80000305176</ele>
        <time>2015-01-18T08:53:56.000Z</time>
      </trkpt>
      <trkpt lat="43.65824" lon="1.21355">
        <ele>187.19999694824</ele>
        <time>2015-01-18T08:53:58.000Z</time>
      </trkpt>
      <trkpt lat="43.65829" lon="1.21366">
        <ele>187.80000305176</ele>
        <time>2015-01-18T08:54:02.000Z</time>
      </trkpt>
      <trkpt lat="43.65831" lon="1.2137">
        <ele>188</ele>
        <time>2015-01-18T08:54:04.000Z</time>
      </trkpt>
      <trkpt lat="43.65837" lon="1.21386">
        <ele>188.60000610352</ele>
        <time>2015-01-18T08:54:10.000Z</time>
      </trkpt>
      <trkpt lat="43.65837" lon="1.21392">
        <ele>188.80000305176</ele>
        <time>2015-01-18T08:54:12.000Z</time>
      </trkpt>
      <trkpt lat="43.6583" lon="1.21404">
        <ele>189.60000610352</ele>
        <time>2015-01-18T08:54:17.000Z</time>
      </trkpt>
      <trkpt lat="43.65827" lon="1.21409">
        <ele>190</ele>
        <time>2015-01-18T08:54:19.000Z</time>
      </trkpt>
      <trkpt lat="43.65818" lon="1.21422">
        <ele>191</ele>
        <time>2015-01-18T08:54:25.000Z</time>
      </trkpt>
      <trkpt lat="43.65812" lon="1.2143">
        <ele>191.60000610352</ele>
        <time>2015-01-18T08:54:29.000Z</time>
      </trkpt>
      <trkpt lat="43.65807" lon="1.21441">
        <ele>192.39999389648</ele>
        <time>2015-01-18T08:54:34.000Z</time>
      </trkpt>
      <trkpt lat="43.65805" lon="1.21443">
        <ele>192.39999389648</ele>
        <time>2015-01-18T08:54:35.000Z</time>
      </trkpt>
      <trkpt lat="43.65802" lon="1.21448">
        <ele>192.60000610352</ele>
        <time>2015-01-18T08:54:38.000Z</time>
      </trkpt>
      <trkpt lat="43.65801" lon="1.21451">
        <ele>192.80000305176</ele>
        <time>2015-01-18T08:54:46.000Z</time>
      </trkpt>
      <trkpt lat="43.65794" lon="1.21464">
        <ele>193.39999389648</ele>
        <time>2015-01-18T08:54:55.000Z</time>
      </trkpt>
      <trkpt lat="43.65788" lon="1.21474">
        <ele>194</ele>
        <time>2015-01-18T08:54:59.000Z</time>
      </trkpt>
      <trkpt lat="43.6578" lon="1.21486">
        <ele>194.80000305176</ele>
        <time>2015-01-18T08:55:04.000Z</time>
      </trkpt>
      <trkpt lat="43.65771" lon="1.21501">
        <ele>195.39999389648</ele>
        <time>2015-01-18T08:55:10.000Z</time>
      </trkpt>
      <trkpt lat="43.65761" lon="1.21515">
        <ele>196.19999694824</ele>
        <time>2015-01-18T08:55:16.000Z</time>
      </trkpt>
      <trkpt lat="43.65752" lon="1.21529">
        <ele>196.80000305176</ele>
        <time>2015-01-18T08:55:22.000Z</time>
      </trkpt>
      <trkpt lat="43.65751" lon="1.21531">
        <ele>197</ele>
        <time>2015-01-18T08:55:23.000Z</time>
      </trkpt>
      <trkpt lat="43.6574" lon="1.21544">
        <ele>197.39999389648</ele>
        <time>2015-01-18T08:55:29.000Z</time>
      </trkpt>
      <trkpt lat="43.65735" lon="1.21555">
        <ele>197.39999389648</ele>
        <time>2015-01-18T08:55:33.000Z</time>
      </trkpt>
      <trkpt lat="43.65728" lon="1.21566">
        <ele>197.60000610352</ele>
        <time>2015-01-18T08:55:39.000Z</time>
      </trkpt>
      <trkpt lat="43.65723" lon="1.21572">
        <ele>197.60000610352</ele>
        <time>2015-01-18T08:55:45.000Z</time>
      </trkpt>
      <trkpt lat="43.65722" lon="1.21573">
        <ele>197.80000305176</ele>
        <time>2015-01-18T08:55:46.000Z</time>
      </trkpt>
      <trkpt lat="43.65717" lon="1.21582">
        <ele>197.80000305176</ele>
        <time>2015-01-18T08:55:54.000Z</time>
      </trkpt>
      <trkpt lat="43.65712" lon="1.21589">
        <ele>198</ele>
        <time>2015-01-18T08:56:01.000Z</time>
      </trkpt>
      <trkpt lat="43.65706" lon="1.216">
        <ele>198.19999694824</ele>
        <time>2015-01-18T08:56:10.000Z</time>
      </trkpt>
      <trkpt lat="43.657" lon="1.21609">
        <ele>198.39999389648</ele>
        <time>2015-01-18T08:56:18.000Z</time>
      </trkpt>
      <trkpt lat="43.65696" lon="1.21623">
        <ele>198.60000610352</ele>
        <time>2015-01-18T08:56:24.000Z</time>
      </trkpt>
      <trkpt lat="43.65696" lon="1.21638">
        <ele>198.80000305176</ele>
        <time>2015-01-18T08:56:28.000Z</time>
      </trkpt>
      <trkpt lat="43.657" lon="1.21654">
        <ele>199</ele>
        <time>2015-01-18T08:56:33.000Z</time>
      </trkpt>
      <trkpt lat="43.65708" lon="1.21689">
        <ele>199</ele>
        <time>2015-01-18T08:56:43.000Z</time>
      </trkpt>
      <trkpt lat="43.6571" lon="1.21708">
        <ele>199</ele>
        <time>2015-01-18T08:56:48.000Z</time>
      </trkpt>
      <trkpt lat="43.6571" lon="1.21727">
        <ele>199</ele>
        <time>2015-01-18T08:56:53.000Z</time>
      </trkpt>
      <trkpt lat="43.65707" lon="1.21748">
        <ele>199</ele>
        <time>2015-01-18T08:56:58.000Z</time>
      </trkpt>
      <trkpt lat="43.65703" lon="1.21768">
        <ele>199</ele>
        <time>2015-01-18T08:57:03.000Z</time>
      </trkpt>
      <trkpt lat="43.657" lon="1.21787">
        <ele>199</ele>
        <time>2015-01-18T08:57:08.000Z</time>
      </trkpt>
      <trkpt lat="43.65699" lon="1.21812">
        <ele>199</ele>
        <time>2015-01-18T08:57:14.000Z</time>
      </trkpt>
      <trkpt lat="43.65696" lon="1.21837">
        <ele>199</ele>
        <time>2015-01-18T08:57:20.000Z</time>
      </trkpt>
      <trkpt lat="43.65694" lon="1.21857">
        <ele>199.19999694824</ele>
        <time>2015-01-18T08:57:25.000Z</time>
      </trkpt>
      <trkpt lat="43.65694" lon="1.21875">
        <ele>199.39999389648</ele>
        <time>2015-01-18T08:57:30.000Z</time>
      </trkpt>
      <trkpt lat="43.65692" lon="1.21895">
        <ele>199.80000305176</ele>
        <time>2015-01-18T08:57:35.000Z</time>
      </trkpt>
      <trkpt lat="43.65692" lon="1.21915">
        <ele>199.39999389648</ele>
        <time>2015-01-18T08:57:40.000Z</time>
      </trkpt>
      <trkpt lat="43.65692" lon="1.21938">
        <ele>198.80000305176</ele>
        <time>2015-01-18T08:57:46.000Z</time>
      </trkpt>
      <trkpt lat="43.65692" lon="1.21943">
        <ele>198.80000305176</ele>
        <time>2015-01-18T08:57:47.000Z</time>
      </trkpt>
      <trkpt lat="43.65692" lon="1.21967">
        <ele>198.19999694824</ele>
        <time>2015-01-18T08:57:53.000Z</time>
      </trkpt>
      <trkpt lat="43.65693" lon="1.21982">
        <ele>198</ele>
        <time>2015-01-18T08:57:57.000Z</time>
      </trkpt>
      <trkpt lat="43.65696" lon="1.22001">
        <ele>197.60000610352</ele>
        <time>2015-01-18T08:58:02.000Z</time>
      </trkpt>
      <trkpt lat="43.65699" lon="1.22016">
        <ele>197.19999694824</ele>
        <time>2015-01-18T08:58:06.000Z</time>
      </trkpt>
      <trkpt lat="43.65703" lon="1.22044">
        <ele>196.19999694824</ele>
        <time>2015-01-18T08:58:13.000Z</time>
      </trkpt>
      <trkpt lat="43.65705" lon="1.22069">
        <ele>195.60000610352</ele>
        <time>2015-01-18T08:58:19.000Z</time>
      </trkpt>
      <trkpt lat="43.65707" lon="1.22097">
        <ele>195</ele>
        <time>2015-01-18T08:58:26.000Z</time>
      </trkpt>
      <trkpt lat="43.65708" lon="1.22121">
        <ele>194.19999694824</ele>
        <time>2015-01-18T08:58:32.000Z</time>
      </trkpt>
      <trkpt lat="43.65716" lon="1.22143">
        <ele>194</ele>
        <time>2015-01-18T08:58:38.000Z</time>
      </trkpt>
      <trkpt lat="43.65731" lon="1.22162">
        <ele>194.19999694824</ele>
        <time>2015-01-18T08:58:45.000Z</time>
      </trkpt>
      <trkpt lat="43.65739" lon="1.22179">
        <ele>194.39999389648</ele>
        <time>2015-01-18T08:58:50.000Z</time>
      </trkpt>
      <trkpt lat="43.65743" lon="1.22195">
        <ele>194.19999694824</ele>
        <time>2015-01-18T08:58:54.000Z</time>
      </trkpt>
      <trkpt lat="43.65751" lon="1.22209">
        <ele>194.39999389648</ele>
        <time>2015-01-18T08:58:59.000Z</time>
      </trkpt>
      <trkpt lat="43.6576" lon="1.22211">
        <ele>194.80000305176</ele>
        <time>2015-01-18T08:59:03.000Z</time>
      </trkpt>
      <trkpt lat="43.65776" lon="1.22212">
        <ele>195.60000610352</ele>
        <time>2015-01-18T08:59:09.000Z</time>
      </trkpt>
      <trkpt lat="43.65787" lon="1.22217">
        <ele>195.80000305176</ele>
        <time>2015-01-18T08:59:14.000Z</time>
      </trkpt>
      <trkpt lat="43.65805" lon="1.2222">
        <ele>196</ele>
        <time>2015-01-18T08:59:20.000Z</time>
      </trkpt>
      <trkpt lat="43.65817" lon="1.22221">
        <ele>196.39999389648</ele>
        <time>2015-01-18T08:59:25.000Z</time>
      </trkpt>
      <trkpt lat="43.65829" lon="1.22219">
        <ele>196.60000610352</ele>
        <time>2015-01-18T08:59:30.000Z</time>
      </trkpt>
      <trkpt lat="43.65842" lon="1.22219">
        <ele>197</ele>
        <time>2015-01-18T08:59:35.000Z</time>
      </trkpt>
      <trkpt lat="43.65855" lon="1.22218">
        <ele>197.19999694824</ele>
        <time>2015-01-18T08:59:40.000Z</time>
      </trkpt>
      <trkpt lat="43.65866" lon="1.22221">
        <ele>197.19999694824</ele>
        <time>2015-01-18T08:59:44.000Z</time>
      </trkpt>
      <trkpt lat="43.65874" lon="1.2222">
        <ele>197.39999389648</ele>
        <time>2015-01-18T08:59:47.000Z</time>
      </trkpt>
      <trkpt lat="43.65886" lon="1.22224">
        <ele>197.39999389648</ele>
        <time>2015-01-18T08:59:51.000Z</time>
      </trkpt>
      <trkpt lat="43.65901" lon="1.22229">
        <ele>197.60000610352</ele>
        <time>2015-01-18T08:59:58.000Z</time>
      </trkpt>
      <trkpt lat="43.65914" lon="1.22235">
        <ele>197.60000610352</ele>
        <time>2015-01-18T09:00:03.000Z</time>
      </trkpt>
      <trkpt lat="43.65923" lon="1.22246">
        <ele>197.39999389648</ele>
        <time>2015-01-18T09:00:07.000Z</time>
      </trkpt>
      <trkpt lat="43.65933" lon="1.22261">
        <ele>197.19999694824</ele>
        <time>2015-01-18T09:00:12.000Z</time>
      </trkpt>
      <trkpt lat="43.65935" lon="1.22264">
        <ele>197.19999694824</ele>
        <time>2015-01-18T09:00:13.000Z</time>
      </trkpt>
      <trkpt lat="43.65944" lon="1.22282">
        <ele>196.60000610352</ele>
        <time>2015-01-18T09:00:19.000Z</time>
      </trkpt>
      <trkpt lat="43.65951" lon="1.2229">
        <ele>196.39999389648</ele>
        <time>2015-01-18T09:00:22.000Z</time>
      </trkpt>
      <trkpt lat="43.65963" lon="1.22306">
        <ele>195.80000305176</ele>
        <time>2015-01-18T09:00:28.000Z</time>
      </trkpt>
      <trkpt lat="43.65975" lon="1.22313">
        <ele>195.39999389648</ele>
        <time>2015-01-18T09:00:33.000Z</time>
      </trkpt>
      <trkpt lat="43.65999" lon="1.22327">
        <ele>194.80000305176</ele>
        <time>2015-01-18T09:00:45.000Z</time>
      </trkpt>
      <trkpt lat="43.66007" lon="1.22329">
        <ele>194.60000610352</ele>
        <time>2015-01-18T09:00:48.000Z</time>
      </trkpt>
      <trkpt lat="43.6602" lon="1.22336">
        <ele>194.19999694824</ele>
        <time>2015-01-18T09:00:53.000Z</time>
      </trkpt>
      <trkpt lat="43.66024" lon="1.22339">
        <ele>193.80000305176</ele>
        <time>2015-01-18T09:00:55.000Z</time>
      </trkpt>
      <trkpt lat="43.66036" lon="1.2234">
        <ele>193.19999694824</ele>
        <time>2015-01-18T09:01:00.000Z</time>
      </trkpt>
      <trkpt lat="43.66047" lon="1.22345">
        <ele>192.60000610352</ele>
        <time>2015-01-18T09:01:05.000Z</time>
      </trkpt>
      <trkpt lat="43.66056" lon="1.22345">
        <ele>191.80000305176</ele>
        <time>2015-01-18T09:01:09.000Z</time>
      </trkpt>
      <trkpt lat="43.66062" lon="1.2234">
        <ele>191.19999694824</ele>
        <time>2015-01-18T09:01:13.000Z</time>
      </trkpt>
      <trkpt lat="43.66067" lon="1.22337">
        <ele>190.80000305176</ele>
        <time>2015-01-18T09:01:15.000Z</time>
      </trkpt>
      <trkpt lat="43.66075" lon="1.22329">
        <ele>189.80000305176</ele>
        <time>2015-01-18T09:01:19.000Z</time>
      </trkpt>
      <trkpt lat="43.66077" lon="1.22328">
        <ele>189.60000610352</ele>
        <time>2015-01-18T09:01:20.000Z</time>
      </trkpt>
      <trkpt lat="43.66088" lon="1.22323">
        <ele>188.60000610352</ele>
        <time>2015-01-18T09:01:25.000Z</time>
      </trkpt>
      <trkpt lat="43.66101" lon="1.22317">
        <ele>187.19999694824</ele>
        <time>2015-01-18T09:01:29.000Z</time>
      </trkpt>
      <trkpt lat="43.66119" lon="1.2231">
        <ele>187.19999694824</ele>
        <time>2015-01-18T09:01:35.000Z</time>
      </trkpt>
      <trkpt lat="43.66138" lon="1.223">
        <ele>187.80000305176</ele>
        <time>2015-01-18T09:01:42.000Z</time>
      </trkpt>
      <trkpt lat="43.66147" lon="1.22293">
        <ele>188.19999694824</ele>
        <time>2015-01-18T09:01:46.000Z</time>
      </trkpt>
      <trkpt lat="43.6616" lon="1.22284">
        <ele>188.60000610352</ele>
        <time>2015-01-18T09:01:51.000Z</time>
      </trkpt>
      <trkpt lat="43.66172" lon="1.22275">
        <ele>189.19999694824</ele>
        <time>2015-01-18T09:01:56.000Z</time>
      </trkpt>
      <trkpt lat="43.66175" lon="1.22273">
        <ele>189.39999389648</ele>
        <time>2015-01-18T09:01:57.000Z</time>
      </trkpt>
      <trkpt lat="43.66188" lon="1.22264">
        <ele>189.80000305176</ele>
        <time>2015-01-18T09:02:03.000Z</time>
      </trkpt>
      <trkpt lat="43.66206" lon="1.22256">
        <ele>189.80000305176</ele>
        <time>2015-01-18T09:02:09.000Z</time>
      </trkpt>
      <trkpt lat="43.66221" lon="1.22248">
        <ele>190</ele>
        <time>2015-01-18T09:02:15.000Z</time>
      </trkpt>
      <trkpt lat="43.66236" lon="1.22238">
        <ele>190.19999694824</ele>
        <time>2015-01-18T09:02:21.000Z</time>
      </trkpt>
      <trkpt lat="43.66253" lon="1.22228">
        <ele>190.39999389648</ele>
        <time>2015-01-18T09:02:27.000Z</time>
      </trkpt>
      <trkpt lat="43.66268" lon="1.22221">
        <ele>190.39999389648</ele>
        <time>2015-01-18T09:02:33.000Z</time>
      </trkpt>
      <trkpt lat="43.6628" lon="1.2222">
        <ele>190</ele>
        <time>2015-01-18T09:02:37.000Z</time>
      </trkpt>
      <trkpt lat="43.66289" lon="1.22217">
        <ele>189.39999389648</ele>
        <time>2015-01-18T09:02:41.000Z</time>
      </trkpt>
      <trkpt lat="43.663" lon="1.22229">
        <ele>188.19999694824</ele>
        <time>2015-01-18T09:02:46.000Z</time>
      </trkpt>
      <trkpt lat="43.66302" lon="1.22232">
        <ele>188</ele>
        <time>2015-01-18T09:02:47.000Z</time>
      </trkpt>
      <trkpt lat="43.66302" lon="1.22246">
        <ele>187.19999694824</ele>
        <time>2015-01-18T09:02:51.000Z</time>
      </trkpt>
      <trkpt lat="43.66304" lon="1.22263">
        <ele>186.19999694824</ele>
        <time>2015-01-18T09:02:56.000Z</time>
      </trkpt>
      <trkpt lat="43.66305" lon="1.22266">
        <ele>186</ele>
        <time>2015-01-18T09:02:57.000Z</time>
      </trkpt>
      <trkpt lat="43.66315" lon="1.22272">
        <ele>185.19999694824</ele>
        <time>2015-01-18T09:03:01.000Z</time>
      </trkpt>
      <trkpt lat="43.66318" lon="1.22274">
        <ele>185</ele>
        <time>2015-01-18T09:03:02.000Z</time>
      </trkpt>
      <trkpt lat="43.66326" lon="1.22288">
        <ele>183.80000305176</ele>
        <time>2015-01-18T09:03:06.000Z</time>
      </trkpt>
      <trkpt lat="43.66328" lon="1.2229">
        <ele>183.39999389648</ele>
        <time>2015-01-18T09:03:07.000Z</time>
      </trkpt>
      <trkpt lat="43.66337" lon="1.22301">
        <ele>182.39999389648</ele>
        <time>2015-01-18T09:03:12.000Z</time>
      </trkpt>
      <trkpt lat="43.6634" lon="1.22308">
        <ele>181.80000305176</ele>
        <time>2015-01-18T09:03:15.000Z</time>
      </trkpt>
      <trkpt lat="43.66347" lon="1.22311">
        <ele>181.39999389648</ele>
        <time>2015-01-18T09:03:18.000Z</time>
      </trkpt>
      <trkpt lat="43.66358" lon="1.22317">
        <ele>181.60000610352</ele>
        <time>2015-01-18T09:03:23.000Z</time>
      </trkpt>
      <trkpt lat="43.66366" lon="1.22322">
        <ele>182.19999694824</ele>
        <time>2015-01-18T09:03:27.000Z</time>
      </trkpt>
      <trkpt lat="43.6638" lon="1.22323">
        <ele>182.19999694824</ele>
        <time>2015-01-18T09:03:32.000Z</time>
      </trkpt>
      <trkpt lat="43.6639" lon="1.22311">
        <ele>180.60000610352</ele>
        <time>2015-01-18T09:03:37.000Z</time>
      </trkpt>
      <trkpt lat="43.66392" lon="1.22306">
        <ele>180.80000305176</ele>
        <time>2015-01-18T09:03:39.000Z</time>
      </trkpt>
      <trkpt lat="43.66393" lon="1.22302">
        <ele>181</ele>
        <time>2015-01-18T09:03:40.000Z</time>
      </trkpt>
      <trkpt lat="43.66388" lon="1.22284">
        <ele>182</ele>
        <time>2015-01-18T09:03:50.000Z</time>
      </trkpt>
      <trkpt lat="43.66383" lon="1.22281">
        <ele>182.19999694824</ele>
        <time>2015-01-18T09:03:55.000Z</time>
      </trkpt>
      <trkpt lat="43.66375" lon="1.22276">
        <ele>182.39999389648</ele>
        <time>2015-01-18T09:04:01.000Z</time>
      </trkpt>
      <trkpt lat="43.66373" lon="1.22267">
        <ele>183</ele>
        <time>2015-01-18T09:04:06.000Z</time>
      </trkpt>
      <trkpt lat="43.66378" lon="1.22263">
        <ele>183</ele>
        <time>2015-01-18T09:04:09.000Z</time>
      </trkpt>
      <trkpt lat="43.66388" lon="1.22255">
        <ele>183.19999694824</ele>
        <time>2015-01-18T09:04:15.000Z</time>
      </trkpt>
      <trkpt lat="43.66388" lon="1.22253">
        <ele>183.19999694824</ele>
        <time>2015-01-18T09:04:16.000Z</time>
      </trkpt>
      <trkpt lat="43.66391" lon="1.22242">
        <ele>183.19999694824</ele>
        <time>2015-01-18T09:04:20.000Z</time>
      </trkpt>
      <trkpt lat="43.66399" lon="1.22237">
        <ele>183.19999694824</ele>
        <time>2015-01-18T09:04:24.000Z</time>
      </trkpt>
      <trkpt lat="43.66406" lon="1.22231">
        <ele>183</ele>
        <time>2015-01-18T09:04:28.000Z</time>
      </trkpt>
      <trkpt lat="43.66411" lon="1.22229">
        <ele>183</ele>
        <time>2015-01-18T09:04:30.000Z</time>
      </trkpt>
      <trkpt lat="43.66428" lon="1.22224">
        <ele>182.80000305176</ele>
        <time>2015-01-18T09:04:36.000Z</time>
      </trkpt>
      <trkpt lat="43.66445" lon="1.22219">
        <ele>183.19999694824</ele>
        <time>2015-01-18T09:04:42.000Z</time>
      </trkpt>
      <trkpt lat="43.66463" lon="1.22213">
        <ele>183.39999389648</ele>
        <time>2015-01-18T09:04:48.000Z</time>
      </trkpt>
      <trkpt lat="43.66478" lon="1.22209">
        <ele>183.39999389648</ele>
        <time>2015-01-18T09:04:54.000Z</time>
      </trkpt>
      <trkpt lat="43.6649" lon="1.22207">
        <ele>183.19999694824</ele>
        <time>2015-01-18T09:04:59.000Z</time>
      </trkpt>
      <trkpt lat="43.66504" lon="1.22205">
        <ele>182.60000610352</ele>
        <time>2015-01-18T09:05:04.000Z</time>
      </trkpt>
      <trkpt lat="43.66519" lon="1.22203">
        <ele>181.39999389648</ele>
        <time>2015-01-18T09:05:09.000Z</time>
      </trkpt>
      <trkpt lat="43.6653" lon="1.22203">
        <ele>181.39999389648</ele>
        <time>2015-01-18T09:05:13.000Z</time>
      </trkpt>
      <trkpt lat="43.66541" lon="1.22202">
        <ele>181.60000610352</ele>
        <time>2015-01-18T09:05:17.000Z</time>
      </trkpt>
      <trkpt lat="43.66552" lon="1.22203">
        <ele>181.39999389648</ele>
        <time>2015-01-18T09:05:22.000Z</time>
      </trkpt>
      <trkpt lat="43.66564" lon="1.22207">
        <ele>181.19999694824</ele>
        <time>2015-01-18T09:05:26.000Z</time>
      </trkpt>
      <trkpt lat="43.66576" lon="1.22209">
        <ele>180.80000305176</ele>
        <time>2015-01-18T09:05:30.000Z</time>
      </trkpt>
      <trkpt lat="43.66589" lon="1.22212">
        <ele>180.60000610352</ele>
        <time>2015-01-18T09:05:35.000Z</time>
      </trkpt>
      <trkpt lat="43.66617" lon="1.22222">
        <ele>180.19999694824</ele>
        <time>2015-01-18T09:05:45.000Z</time>
      </trkpt>
      <trkpt lat="43.66636" lon="1.22227">
        <ele>180.39999389648</ele>
        <time>2015-01-18T09:05:52.000Z</time>
      </trkpt>
      <trkpt lat="43.66649" lon="1.22234">
        <ele>180.39999389648</ele>
        <time>2015-01-18T09:05:57.000Z</time>
      </trkpt>
      <trkpt lat="43.66659" lon="1.22242">
        <ele>180.39999389648</ele>
        <time>2015-01-18T09:06:01.000Z</time>
      </trkpt>
      <trkpt lat="43.66667" lon="1.22254">
        <ele>180.19999694824</ele>
        <time>2015-01-18T09:06:05.000Z</time>
      </trkpt>
      <trkpt lat="43.66677" lon="1.22274">
        <ele>179.39999389648</ele>
        <time>2015-01-18T09:06:11.000Z</time>
      </trkpt>
      <trkpt lat="43.66685" lon="1.22287">
        <ele>179.19999694824</ele>
        <time>2015-01-18T09:06:15.000Z</time>
      </trkpt>
      <trkpt lat="43.66695" lon="1.22297">
        <ele>178.60000610352</ele>
        <time>2015-01-18T09:06:19.000Z</time>
      </trkpt>
      <trkpt lat="43.66696" lon="1.223">
        <ele>178.39999389648</ele>
        <time>2015-01-18T09:06:20.000Z</time>
      </trkpt>
      <trkpt lat="43.66693" lon="1.22309">
        <ele>178</ele>
        <time>2015-01-18T09:06:23.000Z</time>
      </trkpt>
      <trkpt lat="43.6669" lon="1.22325">
        <ele>178</ele>
        <time>2015-01-18T09:06:27.000Z</time>
      </trkpt>
      <trkpt lat="43.66692" lon="1.22337">
        <ele>178.19999694824</ele>
        <time>2015-01-18T09:06:30.000Z</time>
      </trkpt>
      <trkpt lat="43.66704" lon="1.22354">
        <ele>177.60000610352</ele>
        <time>2015-01-18T09:06:36.000Z</time>
      </trkpt>
      <trkpt lat="43.66705" lon="1.22356">
        <ele>177.60000610352</ele>
        <time>2015-01-18T09:06:37.000Z</time>
      </trkpt>
      <trkpt lat="43.66706" lon="1.2236">
        <ele>177.60000610352</ele>
        <time>2015-01-18T09:06:39.000Z</time>
      </trkpt>
      <trkpt lat="43.66718" lon="1.22365">
        <ele>176.39999389648</ele>
        <time>2015-01-18T09:06:45.000Z</time>
      </trkpt>
      <trkpt lat="43.6672" lon="1.22367">
        <ele>176.39999389648</ele>
        <time>2015-01-18T09:06:46.000Z</time>
      </trkpt>
      <trkpt lat="43.66734" lon="1.22382">
        <ele>175.39999389648</ele>
        <time>2015-01-18T09:06:53.000Z</time>
      </trkpt>
      <trkpt lat="43.66737" lon="1.22384">
        <ele>175.19999694824</ele>
        <time>2015-01-18T09:06:54.000Z</time>
      </trkpt>
      <trkpt lat="43.66748" lon="1.22391">
        <ele>174.19999694824</ele>
        <time>2015-01-18T09:06:59.000Z</time>
      </trkpt>
      <trkpt lat="43.66759" lon="1.224">
        <ele>173.60000610352</ele>
        <time>2015-01-18T09:07:05.000Z</time>
      </trkpt>
      <trkpt lat="43.66763" lon="1.22402">
        <ele>173.39999389648</ele>
        <time>2015-01-18T09:07:07.000Z</time>
      </trkpt>
      <trkpt lat="43.66771" lon="1.22405">
        <ele>173</ele>
        <time>2015-01-18T09:07:12.000Z</time>
      </trkpt>
      <trkpt lat="43.66773" lon="1.22407">
        <ele>173.19999694824</ele>
        <time>2015-01-18T09:07:13.000Z</time>
      </trkpt>
      <trkpt lat="43.66779" lon="1.22423">
        <ele>174.60000610352</ele>
        <time>2015-01-18T09:07:18.000Z</time>
      </trkpt>
      <trkpt lat="43.66781" lon="1.22432">
        <ele>175.60000610352</ele>
        <time>2015-01-18T09:07:21.000Z</time>
      </trkpt>
      <trkpt lat="43.66776" lon="1.22444">
        <ele>177</ele>
        <time>2015-01-18T09:07:27.000Z</time>
      </trkpt>
      <trkpt lat="43.66768" lon="1.22448">
        <ele>177.80000305176</ele>
        <time>2015-01-18T09:07:31.000Z</time>
      </trkpt>
      <trkpt lat="43.66761" lon="1.22457">
        <ele>179.60000610352</ele>
        <time>2015-01-18T09:07:36.000Z</time>
      </trkpt>
      <trkpt lat="43.66753" lon="1.22462">
        <ele>181</ele>
        <time>2015-01-18T09:07:40.000Z</time>
      </trkpt>
      <trkpt lat="43.66749" lon="1.22464">
        <ele>181.39999389648</ele>
        <time>2015-01-18T09:07:42.000Z</time>
      </trkpt>
      <trkpt lat="43.66742" lon="1.22467">
        <ele>182</ele>
        <time>2015-01-18T09:07:45.000Z</time>
      </trkpt>
      <trkpt lat="43.66731" lon="1.2247">
        <ele>182.80000305176</ele>
        <time>2015-01-18T09:07:51.000Z</time>
      </trkpt>
      <trkpt lat="43.66724" lon="1.22469">
        <ele>183.19999694824</ele>
        <time>2015-01-18T09:07:54.000Z</time>
      </trkpt>
      <trkpt lat="43.66719" lon="1.22455">
        <ele>182.60000610352</ele>
        <time>2015-01-18T09:07:59.000Z</time>
      </trkpt>
      <trkpt lat="43.66718" lon="1.22453">
        <ele>182.60000610352</ele>
        <time>2015-01-18T09:08:00.000Z</time>
      </trkpt>
      <trkpt lat="43.66708" lon="1.22449">
        <ele>183</ele>
        <time>2015-01-18T09:08:04.000Z</time>
      </trkpt>
      <trkpt lat="43.66701" lon="1.22448">
        <ele>183.19999694824</ele>
        <time>2015-01-18T09:08:07.000Z</time>
      </trkpt>
      <trkpt lat="43.66697" lon="1.22445">
        <ele>183.39999389648</ele>
        <time>2015-01-18T09:08:09.000Z</time>
      </trkpt>
      <trkpt lat="43.66688" lon="1.22434">
        <ele>183.19999694824</ele>
        <time>2015-01-18T09:08:14.000Z</time>
      </trkpt>
      <trkpt lat="43.66686" lon="1.22433">
        <ele>183.19999694824</ele>
        <time>2015-01-18T09:08:15.000Z</time>
      </trkpt>
      <trkpt lat="43.66673" lon="1.2243">
        <ele>184.39999389648</ele>
        <time>2015-01-18T09:08:20.000Z</time>
      </trkpt>
      <trkpt lat="43.66668" lon="1.22432">
        <ele>184.80000305176</ele>
        <time>2015-01-18T09:08:22.000Z</time>
      </trkpt>
      <trkpt lat="43.66662" lon="1.22436">
        <ele>185.80000305176</ele>
        <time>2015-01-18T09:08:26.000Z</time>
      </trkpt>
      <trkpt lat="43.66656" lon="1.22428">
        <ele>186</ele>
        <time>2015-01-18T09:08:30.000Z</time>
      </trkpt>
      <trkpt lat="43.66649" lon="1.2242">
        <ele>186</ele>
        <time>2015-01-18T09:08:34.000Z</time>
      </trkpt>
      <trkpt lat="43.66648" lon="1.22418">
        <ele>186</ele>
        <time>2015-01-18T09:08:35.000Z</time>
      </trkpt>
      <trkpt lat="43.66644" lon="1.22415">
        <ele>186.19999694824</ele>
        <time>2015-01-18T09:08:37.000Z</time>
      </trkpt>
      <trkpt lat="43.66622" lon="1.22381">
        <ele>186.39999389648</ele>
        <time>2015-01-18T09:08:50.000Z</time>
      </trkpt>
      <trkpt lat="43.66614" lon="1.22377">
        <ele>186.80000305176</ele>
        <time>2015-01-18T09:08:53.000Z</time>
      </trkpt>
      <trkpt lat="43.66588" lon="1.22368">
        <ele>187.60000610352</ele>
        <time>2015-01-18T09:09:04.000Z</time>
      </trkpt>
      <trkpt lat="43.66579" lon="1.22365">
        <ele>187.39999389648</ele>
        <time>2015-01-18T09:09:08.000Z</time>
      </trkpt>
      <trkpt lat="43.66568" lon="1.22361">
        <ele>187.39999389648</ele>
        <time>2015-01-18T09:09:13.000Z</time>
      </trkpt>
      <trkpt lat="43.66555" lon="1.22357">
        <ele>187.19999694824</ele>
        <time>2015-01-18T09:09:18.000Z</time>
      </trkpt>
      <trkpt lat="43.66544" lon="1.22358">
        <ele>187.39999389648</ele>
        <time>2015-01-18T09:09:22.000Z</time>
      </trkpt>
      <trkpt lat="43.66534" lon="1.22361">
        <ele>187.80000305176</ele>
        <time>2015-01-18T09:09:26.000Z</time>
      </trkpt>
      <trkpt lat="43.66523" lon="1.22363">
        <ele>188</ele>
        <time>2015-01-18T09:09:30.000Z</time>
      </trkpt>
      <trkpt lat="43.6652" lon="1.22363">
        <ele>188</ele>
        <time>2015-01-18T09:09:31.000Z</time>
      </trkpt>
      <trkpt lat="43.66509" lon="1.22366">
        <ele>187.60000610352</ele>
        <time>2015-01-18T09:09:35.000Z</time>
      </trkpt>
      <trkpt lat="43.665" lon="1.22374">
        <ele>187.60000610352</ele>
        <time>2015-01-18T09:09:39.000Z</time>
      </trkpt>
      <trkpt lat="43.66495" lon="1.22379">
        <ele>188.19999694824</ele>
        <time>2015-01-18T09:09:42.000Z</time>
      </trkpt>
      <trkpt lat="43.66479" lon="1.22388">
        <ele>189.60000610352</ele>
        <time>2015-01-18T09:09:49.000Z</time>
      </trkpt>
      <trkpt lat="43.66465" lon="1.22398">
        <ele>190.60000610352</ele>
        <time>2015-01-18T09:09:55.000Z</time>
      </trkpt>
      <trkpt lat="43.66453" lon="1.22401">
        <ele>190.80000305176</ele>
        <time>2015-01-18T09:10:00.000Z</time>
      </trkpt>
      <trkpt lat="43.6644" lon="1.22404">
        <ele>191</ele>
        <time>2015-01-18T09:10:05.000Z</time>
      </trkpt>
      <trkpt lat="43.66427" lon="1.2241">
        <ele>191.39999389648</ele>
        <time>2015-01-18T09:10:11.000Z</time>
      </trkpt>
      <trkpt lat="43.66414" lon="1.22415">
        <ele>191.80000305176</ele>
        <time>2015-01-18T09:10:16.000Z</time>
      </trkpt>
      <trkpt lat="43.66412" lon="1.22416">
        <ele>191.80000305176</ele>
        <time>2015-01-18T09:10:17.000Z</time>
      </trkpt>
      <trkpt lat="43.66417" lon="1.22426">
        <ele>192</ele>
        <time>2015-01-18T09:10:22.000Z</time>
      </trkpt>
      <trkpt lat="43.66415" lon="1.22433">
        <ele>192.19999694824</ele>
        <time>2015-01-18T09:10:25.000Z</time>
      </trkpt>
      <trkpt lat="43.66411" lon="1.22435">
        <ele>192.19999694824</ele>
        <time>2015-01-18T09:10:27.000Z</time>
      </trkpt>
      <trkpt lat="43.66404" lon="1.22439">
        <ele>192.39999389648</ele>
        <time>2015-01-18T09:10:30.000Z</time>
      </trkpt>
      <trkpt lat="43.66394" lon="1.22458">
        <ele>193.19999694824</ele>
        <time>2015-01-18T09:10:37.000Z</time>
      </trkpt>
      <trkpt lat="43.66378" lon="1.22478">
        <ele>194.39999389648</ele>
        <time>2015-01-18T09:10:46.000Z</time>
      </trkpt>
      <trkpt lat="43.66377" lon="1.22479">
        <ele>194.39999389648</ele>
        <time>2015-01-18T09:10:47.000Z</time>
      </trkpt>
      <trkpt lat="43.66379" lon="1.22495">
        <ele>193.60000610352</ele>
        <time>2015-01-18T09:10:52.000Z</time>
      </trkpt>
      <trkpt lat="43.66378" lon="1.22501">
        <ele>193.39999389648</ele>
        <time>2015-01-18T09:10:56.000Z</time>
      </trkpt>
      <trkpt lat="43.6638" lon="1.22512">
        <ele>193</ele>
        <time>2015-01-18T09:11:00.000Z</time>
      </trkpt>
      <trkpt lat="43.6639" lon="1.22517">
        <ele>192.39999389648</ele>
        <time>2015-01-18T09:11:04.000Z</time>
      </trkpt>
      <trkpt lat="43.66392" lon="1.22517">
        <ele>192.19999694824</ele>
        <time>2015-01-18T09:11:05.000Z</time>
      </trkpt>
      <trkpt lat="43.66406" lon="1.22516">
        <ele>192</ele>
        <time>2015-01-18T09:11:11.000Z</time>
      </trkpt>
      <trkpt lat="43.66416" lon="1.22515">
        <ele>191.80000305176</ele>
        <time>2015-01-18T09:11:17.000Z</time>
      </trkpt>
      <trkpt lat="43.66416" lon="1.22514">
        <ele>191.80000305176</ele>
        <time>2015-01-18T09:11:18.000Z</time>
      </trkpt>
      <trkpt lat="43.66419" lon="1.22525">
        <ele>191.19999694824</ele>
        <time>2015-01-18T09:11:22.000Z</time>
      </trkpt>
      <trkpt lat="43.66414" lon="1.22551">
        <ele>190.39999389648</ele>
        <time>2015-01-18T09:11:30.000Z</time>
      </trkpt>
      <trkpt lat="43.66412" lon="1.22569">
        <ele>190.39999389648</ele>
        <time>2015-01-18T09:11:35.000Z</time>
      </trkpt>
      <trkpt lat="43.66412" lon="1.22588">
        <ele>190.39999389648</ele>
        <time>2015-01-18T09:11:41.000Z</time>
      </trkpt>
      <trkpt lat="43.66413" lon="1.22606">
        <ele>190.39999389648</ele>
        <time>2015-01-18T09:11:45.000Z</time>
      </trkpt>
      <trkpt lat="43.66414" lon="1.22623">
        <ele>190.39999389648</ele>
        <time>2015-01-18T09:11:50.000Z</time>
      </trkpt>
      <trkpt lat="43.66417" lon="1.22651">
        <ele>189.80000305176</ele>
        <time>2015-01-18T09:11:57.000Z</time>
      </trkpt>
      <trkpt lat="43.66419" lon="1.22675">
        <ele>191.19999694824</ele>
        <time>2015-01-18T09:12:03.000Z</time>
      </trkpt>
      <trkpt lat="43.6642" lon="1.22696">
        <ele>192.39999389648</ele>
        <time>2015-01-18T09:12:08.000Z</time>
      </trkpt>
      <trkpt lat="43.66426" lon="1.22712">
        <ele>193.19999694824</ele>
        <time>2015-01-18T09:12:13.000Z</time>
      </trkpt>
      <trkpt lat="43.66431" lon="1.2272">
        <ele>193.60000610352</ele>
        <time>2015-01-18T09:12:16.000Z</time>
      </trkpt>
      <trkpt lat="43.66432" lon="1.22737">
        <ele>194</ele>
        <time>2015-01-18T09:12:21.000Z</time>
      </trkpt>
      <trkpt lat="43.66427" lon="1.22758">
        <ele>194.19999694824</ele>
        <time>2015-01-18T09:12:27.000Z</time>
      </trkpt>
      <trkpt lat="43.66428" lon="1.22762">
        <ele>194.19999694824</ele>
        <time>2015-01-18T09:12:28.000Z</time>
      </trkpt>
      <trkpt lat="43.6643" lon="1.22773">
        <ele>194.39999389648</ele>
        <time>2015-01-18T09:12:31.000Z</time>
      </trkpt>
      <trkpt lat="43.66432" lon="1.22789">
        <ele>194.60000610352</ele>
        <time>2015-01-18T09:12:35.000Z</time>
      </trkpt>
      <trkpt lat="43.66423" lon="1.2281">
        <ele>194.80000305176</ele>
        <time>2015-01-18T09:12:42.000Z</time>
      </trkpt>
      <trkpt lat="43.66411" lon="1.22854">
        <ele>195.19999694824</ele>
        <time>2015-01-18T09:12:54.000Z</time>
      </trkpt>
      <trkpt lat="43.66407" lon="1.22875">
        <ele>195.60000610352</ele>
        <time>2015-01-18T09:12:59.000Z</time>
      </trkpt>
      <trkpt lat="43.66401" lon="1.22888">
        <ele>195.80000305176</ele>
        <time>2015-01-18T09:13:03.000Z</time>
      </trkpt>
      <trkpt lat="43.66393" lon="1.22903">
        <ele>196</ele>
        <time>2015-01-18T09:13:08.000Z</time>
      </trkpt>
      <trkpt lat="43.66391" lon="1.22921">
        <ele>195.60000610352</ele>
        <time>2015-01-18T09:13:13.000Z</time>
      </trkpt>
      <trkpt lat="43.66387" lon="1.22935">
        <ele>195.39999389648</ele>
        <time>2015-01-18T09:13:17.000Z</time>
      </trkpt>
      <trkpt lat="43.6638" lon="1.22951">
        <ele>195</ele>
        <time>2015-01-18T09:13:22.000Z</time>
      </trkpt>
      <trkpt lat="43.66371" lon="1.2296">
        <ele>194.60000610352</ele>
        <time>2015-01-18T09:13:26.000Z</time>
      </trkpt>
      <trkpt lat="43.6636" lon="1.22972">
        <ele>194.19999694824</ele>
        <time>2015-01-18T09:13:31.000Z</time>
      </trkpt>
      <trkpt lat="43.66348" lon="1.2298">
        <ele>194</ele>
        <time>2015-01-18T09:13:36.000Z</time>
      </trkpt>
      <trkpt lat="43.66333" lon="1.22983">
        <ele>194.19999694824</ele>
        <time>2015-01-18T09:13:42.000Z</time>
      </trkpt>
      <trkpt lat="43.6633" lon="1.22984">
        <ele>194.19999694824</ele>
        <time>2015-01-18T09:13:45.000Z</time>
      </trkpt>
      <trkpt lat="43.66317" lon="1.22985">
        <ele>194.39999389648</ele>
        <time>2015-01-18T09:13:52.000Z</time>
      </trkpt>
      <trkpt lat="43.66307" lon="1.22987">
        <ele>194.60000610352</ele>
        <time>2015-01-18T09:13:56.000Z</time>
      </trkpt>
      <trkpt lat="43.66288" lon="1.22981">
        <ele>194.80000305176</ele>
        <time>2015-01-18T09:14:02.000Z</time>
      </trkpt>
      <trkpt lat="43.6628" lon="1.22972">
        <ele>194.80000305176</ele>
        <time>2015-01-18T09:14:06.000Z</time>
      </trkpt>
      <trkpt lat="43.66265" lon="1.22969">
        <ele>194.80000305176</ele>
        <time>2015-01-18T09:14:11.000Z</time>
      </trkpt>
      <trkpt lat="43.66256" lon="1.22966">
        <ele>194.80000305176</ele>
        <time>2015-01-18T09:14:15.000Z</time>
      </trkpt>
      <trkpt lat="43.66242" lon="1.22955">
        <ele>194.60000610352</ele>
        <time>2015-01-18T09:14:21.000Z</time>
      </trkpt>
      <trkpt lat="43.66241" lon="1.22951">
        <ele>194.60000610352</ele>
        <time>2015-01-18T09:14:22.000Z</time>
      </trkpt>
      <trkpt lat="43.66234" lon="1.22946">
        <ele>194.60000610352</ele>
        <time>2015-01-18T09:14:25.000Z</time>
      </trkpt>
      <trkpt lat="43.66229" lon="1.22946">
        <ele>194.60000610352</ele>
        <time>2015-01-18T09:14:27.000Z</time>
      </trkpt>
      <trkpt lat="43.66211" lon="1.22949">
        <ele>194.19999694824</ele>
        <time>2015-01-18T09:14:33.000Z</time>
      </trkpt>
      <trkpt lat="43.66197" lon="1.22953">
        <ele>194.19999694824</ele>
        <time>2015-01-18T09:14:38.000Z</time>
      </trkpt>
      <trkpt lat="43.66189" lon="1.22965">
        <ele>194</ele>
        <time>2015-01-18T09:14:42.000Z</time>
      </trkpt>
      <trkpt lat="43.66188" lon="1.22968">
        <ele>194</ele>
        <time>2015-01-18T09:14:43.000Z</time>
      </trkpt>
      <trkpt lat="43.66175" lon="1.22981">
        <ele>194.19999694824</ele>
        <time>2015-01-18T09:14:49.000Z</time>
      </trkpt>
      <trkpt lat="43.66174" lon="1.22986">
        <ele>194.19999694824</ele>
        <time>2015-01-18T09:14:51.000Z</time>
      </trkpt>
      <trkpt lat="43.66166" lon="1.22991">
        <ele>194.19999694824</ele>
        <time>2015-01-18T09:14:54.000Z</time>
      </trkpt>
      <trkpt lat="43.66146" lon="1.22997">
        <ele>194.39999389648</ele>
        <time>2015-01-18T09:15:02.000Z</time>
      </trkpt>
      <trkpt lat="43.66132" lon="1.23001">
        <ele>194.60000610352</ele>
        <time>2015-01-18T09:15:07.000Z</time>
      </trkpt>
      <trkpt lat="43.6613" lon="1.23001">
        <ele>194.60000610352</ele>
        <time>2015-01-18T09:15:08.000Z</time>
      </trkpt>
      <trkpt lat="43.66125" lon="1.22986">
        <ele>194.80000305176</ele>
        <time>2015-01-18T09:15:13.000Z</time>
      </trkpt>
      <trkpt lat="43.66123" lon="1.22972">
        <ele>194.80000305176</ele>
        <time>2015-01-18T09:15:17.000Z</time>
      </trkpt>
      <trkpt lat="43.66117" lon="1.22957">
        <ele>194.80000305176</ele>
        <time>2015-01-18T09:15:22.000Z</time>
      </trkpt>
      <trkpt lat="43.66115" lon="1.22954">
        <ele>194.80000305176</ele>
        <time>2015-01-18T09:15:23.000Z</time>
      </trkpt>
      <trkpt lat="43.66107" lon="1.22942">
        <ele>195</ele>
        <time>2015-01-18T09:15:28.000Z</time>
      </trkpt>
      <trkpt lat="43.66098" lon="1.22929">
        <ele>195</ele>
        <time>2015-01-18T09:15:33.000Z</time>
      </trkpt>
      <trkpt lat="43.66095" lon="1.22923">
        <ele>195</ele>
        <time>2015-01-18T09:15:35.000Z</time>
      </trkpt>
      <trkpt lat="43.66085" lon="1.2291">
        <ele>195</ele>
        <time>2015-01-18T09:15:40.000Z</time>
      </trkpt>
      <trkpt lat="43.66072" lon="1.22894">
        <ele>195</ele>
        <time>2015-01-18T09:15:46.000Z</time>
      </trkpt>
      <trkpt lat="43.66054" lon="1.22882">
        <ele>195.19999694824</ele>
        <time>2015-01-18T09:15:53.000Z</time>
      </trkpt>
      <trkpt lat="43.66045" lon="1.22873">
        <ele>195.19999694824</ele>
        <time>2015-01-18T09:15:58.000Z</time>
      </trkpt>
      <trkpt lat="43.66039" lon="1.22853">
        <ele>195.60000610352</ele>
        <time>2015-01-18T09:16:04.000Z</time>
      </trkpt>
      <trkpt lat="43.6603" lon="1.22846">
        <ele>195.60000610352</ele>
        <time>2015-01-18T09:16:08.000Z</time>
      </trkpt>
      <trkpt lat="43.66027" lon="1.22846">
        <ele>195.60000610352</ele>
        <time>2015-01-18T09:16:09.000Z</time>
      </trkpt>
      <trkpt lat="43.6602" lon="1.22841">
        <ele>195.60000610352</ele>
        <time>2015-01-18T09:16:12.000Z</time>
      </trkpt>
      <trkpt lat="43.66001" lon="1.2284">
        <ele>195.60000610352</ele>
        <time>2015-01-18T09:16:19.000Z</time>
      </trkpt>
      <trkpt lat="43.65985" lon="1.22841">
        <ele>195.60000610352</ele>
        <time>2015-01-18T09:16:25.000Z</time>
      </trkpt>
      <trkpt lat="43.65971" lon="1.22844">
        <ele>195.60000610352</ele>
        <time>2015-01-18T09:16:30.000Z</time>
      </trkpt>
      <trkpt lat="43.65966" lon="1.22844">
        <ele>195.60000610352</ele>
        <time>2015-01-18T09:16:32.000Z</time>
      </trkpt>
      <trkpt lat="43.65954" lon="1.22847">
        <ele>195.80000305176</ele>
        <time>2015-01-18T09:16:37.000Z</time>
      </trkpt>
      <trkpt lat="43.65931" lon="1.22852">
        <ele>195.80000305176</ele>
        <time>2015-01-18T09:16:45.000Z</time>
      </trkpt>
      <trkpt lat="43.65922" lon="1.22854">
        <ele>195.39999389648</ele>
        <time>2015-01-18T09:16:49.000Z</time>
      </trkpt>
      <trkpt lat="43.65916" lon="1.22858">
        <ele>195.19999694824</ele>
        <time>2015-01-18T09:16:51.000Z</time>
      </trkpt>
      <trkpt lat="43.6591" lon="1.2286">
        <ele>195</ele>
        <time>2015-01-18T09:16:53.000Z</time>
      </trkpt>
      <trkpt lat="43.65892" lon="1.2286">
        <ele>194.39999389648</ele>
        <time>2015-01-18T09:16:59.000Z</time>
      </trkpt>
      <trkpt lat="43.65878" lon="1.2286">
        <ele>194</ele>
        <time>2015-01-18T09:17:04.000Z</time>
      </trkpt>
      <trkpt lat="43.65861" lon="1.22864">
        <ele>193.39999389648</ele>
        <time>2015-01-18T09:17:10.000Z</time>
      </trkpt>
      <trkpt lat="43.65846" lon="1.22863">
        <ele>193</ele>
        <time>2015-01-18T09:17:15.000Z</time>
      </trkpt>
      <trkpt lat="43.65832" lon="1.22859">
        <ele>193.19999694824</ele>
        <time>2015-01-18T09:17:20.000Z</time>
      </trkpt>
      <trkpt lat="43.65816" lon="1.22855">
        <ele>193.39999389648</ele>
        <time>2015-01-18T09:17:25.000Z</time>
      </trkpt>
      <trkpt lat="43.65805" lon="1.22857">
        <ele>193.60000610352</ele>
        <time>2015-01-18T09:17:29.000Z</time>
      </trkpt>
      <trkpt lat="43.65794" lon="1.22865">
        <ele>194</ele>
        <time>2015-01-18T09:17:34.000Z</time>
      </trkpt>
      <trkpt lat="43.65781" lon="1.22874">
        <ele>194.39999389648</ele>
        <time>2015-01-18T09:17:40.000Z</time>
      </trkpt>
      <trkpt lat="43.65768" lon="1.22887">
        <ele>194.80000305176</ele>
        <time>2015-01-18T09:17:46.000Z</time>
      </trkpt>
      <trkpt lat="43.65763" lon="1.22889">
        <ele>194.60000610352</ele>
        <time>2015-01-18T09:17:48.000Z</time>
      </trkpt>
      <trkpt lat="43.65749" lon="1.22888">
        <ele>194.60000610352</ele>
        <time>2015-01-18T09:17:53.000Z</time>
      </trkpt>
      <trkpt lat="43.65735" lon="1.22888">
        <ele>194.60000610352</ele>
        <time>2015-01-18T09:17:58.000Z</time>
      </trkpt>
      <trkpt lat="43.65721" lon="1.2289">
        <ele>194.80000305176</ele>
        <time>2015-01-18T09:18:03.000Z</time>
      </trkpt>
      <trkpt lat="43.65712" lon="1.22898">
        <ele>195</ele>
        <time>2015-01-18T09:18:07.000Z</time>
      </trkpt>
      <trkpt lat="43.65704" lon="1.22905">
        <ele>195.19999694824</ele>
        <time>2015-01-18T09:18:11.000Z</time>
      </trkpt>
      <trkpt lat="43.65692" lon="1.22912">
        <ele>195</ele>
        <time>2015-01-18T09:18:16.000Z</time>
      </trkpt>
      <trkpt lat="43.65685" lon="1.22916">
        <ele>195</ele>
        <time>2015-01-18T09:18:19.000Z</time>
      </trkpt>
      <trkpt lat="43.65679" lon="1.22932">
        <ele>195</ele>
        <time>2015-01-18T09:18:25.000Z</time>
      </trkpt>
      <trkpt lat="43.65679" lon="1.22935">
        <ele>195</ele>
        <time>2015-01-18T09:18:26.000Z</time>
      </trkpt>
      <trkpt lat="43.65678" lon="1.22943">
        <ele>195</ele>
        <time>2015-01-18T09:18:28.000Z</time>
      </trkpt>
      <trkpt lat="43.65681" lon="1.22964">
        <ele>195</ele>
        <time>2015-01-18T09:18:34.000Z</time>
      </trkpt>
      <trkpt lat="43.65682" lon="1.22971">
        <ele>195</ele>
        <time>2015-01-18T09:18:36.000Z</time>
      </trkpt>
      <trkpt lat="43.65679" lon="1.2299">
        <ele>195.39999389648</ele>
        <time>2015-01-18T09:18:41.000Z</time>
      </trkpt>
      <trkpt lat="43.65678" lon="1.22997">
        <ele>195.60000610352</ele>
        <time>2015-01-18T09:18:43.000Z</time>
      </trkpt>
      <trkpt lat="43.65673" lon="1.23016">
        <ele>196</ele>
        <time>2015-01-18T09:18:48.000Z</time>
      </trkpt>
      <trkpt lat="43.6567" lon="1.23019">
        <ele>196.19999694824</ele>
        <time>2015-01-18T09:18:50.000Z</time>
      </trkpt>
      <trkpt lat="43.65668" lon="1.23021">
        <ele>196.19999694824</ele>
        <time>2015-01-18T09:18:51.000Z</time>
      </trkpt>
      <trkpt lat="43.65657" lon="1.23037">
        <ele>196.60000610352</ele>
        <time>2015-01-18T09:18:57.000Z</time>
      </trkpt>
      <trkpt lat="43.65654" lon="1.23039">
        <ele>196.60000610352</ele>
        <time>2015-01-18T09:18:58.000Z</time>
      </trkpt>
      <trkpt lat="43.65653" lon="1.23042">
        <ele>196.60000610352</ele>
        <time>2015-01-18T09:18:59.000Z</time>
      </trkpt>
      <trkpt lat="43.65643" lon="1.23064">
        <ele>196.60000610352</ele>
        <time>2015-01-18T09:19:06.000Z</time>
      </trkpt>
      <trkpt lat="43.65631" lon="1.23084">
        <ele>196.80000305176</ele>
        <time>2015-01-18T09:19:13.000Z</time>
      </trkpt>
      <trkpt lat="43.65614" lon="1.23101">
        <ele>196.80000305176</ele>
        <time>2015-01-18T09:19:20.000Z</time>
      </trkpt>
      <trkpt lat="43.65604" lon="1.2311">
        <ele>196.60000610352</ele>
        <time>2015-01-18T09:19:24.000Z</time>
      </trkpt>
      <trkpt lat="43.65597" lon="1.23115">
        <ele>196.60000610352</ele>
        <time>2015-01-18T09:19:27.000Z</time>
      </trkpt>
      <trkpt lat="43.65588" lon="1.23104">
        <ele>196.60000610352</ele>
        <time>2015-01-18T09:19:32.000Z</time>
      </trkpt>
      <trkpt lat="43.65582" lon="1.23092">
        <ele>196.60000610352</ele>
        <time>2015-01-18T09:19:36.000Z</time>
      </trkpt>
      <trkpt lat="43.65571" lon="1.23072">
        <ele>196.39999389648</ele>
        <time>2015-01-18T09:19:43.000Z</time>
      </trkpt>
      <trkpt lat="43.65564" lon="1.23054">
        <ele>196.39999389648</ele>
        <time>2015-01-18T09:19:49.000Z</time>
      </trkpt>
      <trkpt lat="43.65558" lon="1.23036">
        <ele>196.60000610352</ele>
        <time>2015-01-18T09:19:54.000Z</time>
      </trkpt>
      <trkpt lat="43.65549" lon="1.23017">
        <ele>196.60000610352</ele>
        <time>2015-01-18T09:20:00.000Z</time>
      </trkpt>
      <trkpt lat="43.65541" lon="1.23001">
        <ele>196.80000305176</ele>
        <time>2015-01-18T09:20:06.000Z</time>
      </trkpt>
      <trkpt lat="43.65539" lon="1.22999">
        <ele>196.80000305176</ele>
        <time>2015-01-18T09:20:08.000Z</time>
      </trkpt>
      <trkpt lat="43.65536" lon="1.22993">
        <ele>196.80000305176</ele>
        <time>2015-01-18T09:20:13.000Z</time>
      </trkpt>
      <trkpt lat="43.65533" lon="1.22986">
        <ele>196.80000305176</ele>
        <time>2015-01-18T09:20:21.000Z</time>
      </trkpt>
      <trkpt lat="43.6553" lon="1.2298">
        <ele>196.80000305176</ele>
        <time>2015-01-18T09:20:48.000Z</time>
      </trkpt>
      <trkpt lat="43.65529" lon="1.22978">
        <ele>196.80000305176</ele>
        <time>2015-01-18T09:20:52.000Z</time>
      </trkpt>
      <trkpt lat="43.65526" lon="1.22972">
        <ele>196.80000305176</ele>
        <time>2015-01-18T09:21:01.000Z</time>
      </trkpt>
      <trkpt lat="43.65523" lon="1.22968">
        <ele>196.60000610352</ele>
        <time>2015-01-18T09:21:08.000Z</time>
      </trkpt>
      <trkpt lat="43.65523" lon="1.22964">
        <ele>196.60000610352</ele>
        <time>2015-01-18T09:21:12.000Z</time>
      </trkpt>
      <trkpt lat="43.65521" lon="1.2296">
        <ele>196.60000610352</ele>
        <time>2015-01-18T09:21:17.000Z</time>
      </trkpt>
      <trkpt lat="43.65518" lon="1.22953">
        <ele>196.39999389648</ele>
        <time>2015-01-18T09:21:24.000Z</time>
      </trkpt>
      <trkpt lat="43.65517" lon="1.2295">
        <ele>196.39999389648</ele>
        <time>2015-01-18T09:21:27.000Z</time>
      </trkpt>
      <trkpt lat="43.65513" lon="1.22942">
        <ele>196.39999389648</ele>
        <time>2015-01-18T09:21:35.000Z</time>
      </trkpt>
      <trkpt lat="43.65511" lon="1.22938">
        <ele>196.39999389648</ele>
        <time>2015-01-18T09:21:39.000Z</time>
      </trkpt>
      <trkpt lat="43.6551" lon="1.22936">
        <ele>196.39999389648</ele>
        <time>2015-01-18T09:21:41.000Z</time>
      </trkpt>
      <trkpt lat="43.65509" lon="1.22934">
        <ele>196.19999694824</ele>
        <time>2015-01-18T09:21:43.000Z</time>
      </trkpt>
      <trkpt lat="43.65508" lon="1.22928">
        <ele>196.19999694824</ele>
        <time>2015-01-18T09:21:48.000Z</time>
      </trkpt>
      <trkpt lat="43.65502" lon="1.22917">
        <ele>196.19999694824</ele>
        <time>2015-01-18T09:21:57.000Z</time>
      </trkpt>
      <trkpt lat="43.655" lon="1.2291">
        <ele>196</ele>
        <time>2015-01-18T09:22:04.000Z</time>
      </trkpt>
      <trkpt lat="43.65496" lon="1.22901">
        <ele>196</ele>
        <time>2015-01-18T09:22:13.000Z</time>
      </trkpt>
      <trkpt lat="43.6549" lon="1.22893">
        <ele>196</ele>
        <time>2015-01-18T09:22:21.000Z</time>
      </trkpt>
      <trkpt lat="43.65487" lon="1.22885">
        <ele>196.19999694824</ele>
        <time>2015-01-18T09:22:28.000Z</time>
      </trkpt>
      <trkpt lat="43.65485" lon="1.2288">
        <ele>196.39999389648</ele>
        <time>2015-01-18T09:22:33.000Z</time>
      </trkpt>
      <trkpt lat="43.65482" lon="1.22871">
        <ele>196.60000610352</ele>
        <time>2015-01-18T09:22:42.000Z</time>
      </trkpt>
      <trkpt lat="43.6548" lon="1.22867">
        <ele>196.80000305176</ele>
        <time>2015-01-18T09:22:48.000Z</time>
      </trkpt>
      <trkpt lat="43.65477" lon="1.2286">
        <ele>197</ele>
        <time>2015-01-18T09:22:53.000Z</time>
      </trkpt>
      <trkpt lat="43.65472" lon="1.22851">
        <ele>197.19999694824</ele>
        <time>2015-01-18T09:22:59.000Z</time>
      </trkpt>
      <trkpt lat="43.65471" lon="1.22847">
        <ele>197.39999389648</ele>
        <time>2015-01-18T09:23:01.000Z</time>
      </trkpt>
      <trkpt lat="43.65465" lon="1.22835">
        <ele>197.60000610352</ele>
        <time>2015-01-18T09:23:06.000Z</time>
      </trkpt>
      <trkpt lat="43.65458" lon="1.22818">
        <ele>198</ele>
        <time>2015-01-18T09:23:12.000Z</time>
      </trkpt>
      <trkpt lat="43.65451" lon="1.228">
        <ele>198.19999694824</ele>
        <time>2015-01-18T09:23:19.000Z</time>
      </trkpt>
      <trkpt lat="43.65444" lon="1.22786">
        <ele>198.60000610352</ele>
        <time>2015-01-18T09:23:24.000Z</time>
      </trkpt>
      <trkpt lat="43.65438" lon="1.22771">
        <ele>198.80000305176</ele>
        <time>2015-01-18T09:23:29.000Z</time>
      </trkpt>
      <trkpt lat="43.65432" lon="1.22757">
        <ele>199.19999694824</ele>
        <time>2015-01-18T09:23:34.000Z</time>
      </trkpt>
      <trkpt lat="43.65425" lon="1.22739">
        <ele>199.80000305176</ele>
        <time>2015-01-18T09:23:40.000Z</time>
      </trkpt>
      <trkpt lat="43.65418" lon="1.22726">
        <ele>200.19999694824</ele>
        <time>2015-01-18T09:23:45.000Z</time>
      </trkpt>
      <trkpt lat="43.65409" lon="1.22704">
        <ele>200.60000610352</ele>
        <time>2015-01-18T09:23:52.000Z</time>
      </trkpt>
      <trkpt lat="43.65401" lon="1.22686">
        <ele>201</ele>
        <time>2015-01-18T09:23:58.000Z</time>
      </trkpt>
      <trkpt lat="43.65395" lon="1.22673">
        <ele>201.39999389648</ele>
        <time>2015-01-18T09:24:02.000Z</time>
      </trkpt>
      <trkpt lat="43.65385" lon="1.22651">
        <ele>202</ele>
        <time>2015-01-18T09:24:09.000Z</time>
      </trkpt>
      <trkpt lat="43.65382" lon="1.22642">
        <ele>202.19999694824</ele>
        <time>2015-01-18T09:24:13.000Z</time>
      </trkpt>
      <trkpt lat="43.65375" lon="1.22625">
        <ele>201.80000305176</ele>
        <time>2015-01-18T09:24:18.000Z</time>
      </trkpt>
      <trkpt lat="43.65367" lon="1.2261">
        <ele>201.39999389648</ele>
        <time>2015-01-18T09:24:23.000Z</time>
      </trkpt>
      <trkpt lat="43.65359" lon="1.22595">
        <ele>201.19999694824</ele>
        <time>2015-01-18T09:24:27.000Z</time>
      </trkpt>
      <trkpt lat="43.65352" lon="1.22575">
        <ele>200.60000610352</ele>
        <time>2015-01-18T09:24:33.000Z</time>
      </trkpt>
      <trkpt lat="43.65344" lon="1.22561">
        <ele>200</ele>
        <time>2015-01-18T09:24:38.000Z</time>
      </trkpt>
      <trkpt lat="43.65338" lon="1.22547">
        <ele>199.80000305176</ele>
        <time>2015-01-18T09:24:43.000Z</time>
      </trkpt>
      <trkpt lat="43.6532" lon="1.22506">
        <ele>199</ele>
        <time>2015-01-18T09:24:57.000Z</time>
      </trkpt>
      <trkpt lat="43.65314" lon="1.22491">
        <ele>198.80000305176</ele>
        <time>2015-01-18T09:25:02.000Z</time>
      </trkpt>
      <trkpt lat="43.6531" lon="1.22479">
        <ele>198.60000610352</ele>
        <time>2015-01-18T09:25:06.000Z</time>
      </trkpt>
      <trkpt lat="43.65303" lon="1.22464">
        <ele>199</ele>
        <time>2015-01-18T09:25:11.000Z</time>
      </trkpt>
      <trkpt lat="43.65296" lon="1.22448">
        <ele>199.39999389648</ele>
        <time>2015-01-18T09:25:16.000Z</time>
      </trkpt>
      <trkpt lat="43.65288" lon="1.22433">
        <ele>199.80000305176</ele>
        <time>2015-01-18T09:25:21.000Z</time>
      </trkpt>
      <trkpt lat="43.65279" lon="1.22415">
        <ele>200.39999389648</ele>
        <time>2015-01-18T09:25:27.000Z</time>
      </trkpt>
      <trkpt lat="43.65273" lon="1.224">
        <ele>200.80000305176</ele>
        <time>2015-01-18T09:25:32.000Z</time>
      </trkpt>
      <trkpt lat="43.65266" lon="1.22384">
        <ele>201</ele>
        <time>2015-01-18T09:25:38.000Z</time>
      </trkpt>
      <trkpt lat="43.65259" lon="1.22361">
        <ele>201.19999694824</ele>
        <time>2015-01-18T09:25:44.000Z</time>
      </trkpt>
      <trkpt lat="43.65252" lon="1.22339">
        <ele>201.19999694824</ele>
        <time>2015-01-18T09:25:53.000Z</time>
      </trkpt>
      <trkpt lat="43.65246" lon="1.22323">
        <ele>201.19999694824</ele>
        <time>2015-01-18T09:25:58.000Z</time>
      </trkpt>
      <trkpt lat="43.65241" lon="1.22309">
        <ele>201.39999389648</ele>
        <time>2015-01-18T09:26:01.000Z</time>
      </trkpt>
      <trkpt lat="43.65235" lon="1.22294">
        <ele>201.39999389648</ele>
        <time>2015-01-18T09:26:06.000Z</time>
      </trkpt>
      <trkpt lat="43.65229" lon="1.22289">
        <ele>201.39999389648</ele>
        <time>2015-01-18T09:26:09.000Z</time>
      </trkpt>
      <trkpt lat="43.65225" lon="1.22276">
        <ele>201.60000610352</ele>
        <time>2015-01-18T09:26:14.000Z</time>
      </trkpt>
      <trkpt lat="43.65219" lon="1.22262">
        <ele>201.60000610352</ele>
        <time>2015-01-18T09:26:18.000Z</time>
      </trkpt>
      <trkpt lat="43.65215" lon="1.22253">
        <ele>201.60000610352</ele>
        <time>2015-01-18T09:26:20.000Z</time>
      </trkpt>
      <trkpt lat="43.65207" lon="1.22226">
        <ele>201.39999389648</ele>
        <time>2015-01-18T09:26:29.000Z</time>
      </trkpt>
      <trkpt lat="43.65201" lon="1.22209">
        <ele>201.19999694824</ele>
        <time>2015-01-18T09:26:33.000Z</time>
      </trkpt>
      <trkpt lat="43.65189" lon="1.22175">
        <ele>200.60000610352</ele>
        <time>2015-01-18T09:26:45.000Z</time>
      </trkpt>
      <trkpt lat="43.65183" lon="1.22156">
        <ele>200.39999389648</ele>
        <time>2015-01-18T09:26:51.000Z</time>
      </trkpt>
      <trkpt lat="43.65178" lon="1.22141">
        <ele>200.60000610352</ele>
        <time>2015-01-18T09:26:56.000Z</time>
      </trkpt>
      <trkpt lat="43.65171" lon="1.22122">
        <ele>201</ele>
        <time>2015-01-18T09:27:02.000Z</time>
      </trkpt>
      <trkpt lat="43.65162" lon="1.22099">
        <ele>201.80000305176</ele>
        <time>2015-01-18T09:27:09.000Z</time>
      </trkpt>
      <trkpt lat="43.65154" lon="1.22075">
        <ele>202.39999389648</ele>
        <time>2015-01-18T09:27:16.000Z</time>
      </trkpt>
      <trkpt lat="43.65148" lon="1.22057">
        <ele>202.60000610352</ele>
        <time>2015-01-18T09:27:21.000Z</time>
      </trkpt>
      <trkpt lat="43.65141" lon="1.22036">
        <ele>202.60000610352</ele>
        <time>2015-01-18T09:27:28.000Z</time>
      </trkpt>
      <trkpt lat="43.65135" lon="1.22018">
        <ele>202.60000610352</ele>
        <time>2015-01-18T09:27:32.000Z</time>
      </trkpt>
      <trkpt lat="43.65128" lon="1.22">
        <ele>202.80000305176</ele>
        <time>2015-01-18T09:27:38.000Z</time>
      </trkpt>
      <trkpt lat="43.65121" lon="1.21975">
        <ele>203.39999389648</ele>
        <time>2015-01-18T09:27:44.000Z</time>
      </trkpt>
      <trkpt lat="43.65108" lon="1.21949">
        <ele>204.19999694824</ele>
        <time>2015-01-18T09:27:53.000Z</time>
      </trkpt>
      <trkpt lat="43.651" lon="1.21926">
        <ele>204.80000305176</ele>
        <time>2015-01-18T09:27:59.000Z</time>
      </trkpt>
      <trkpt lat="43.65096" lon="1.21912">
        <ele>205.39999389648</ele>
        <time>2015-01-18T09:28:02.000Z</time>
      </trkpt>
      <trkpt lat="43.65091" lon="1.219">
        <ele>206</ele>
        <time>2015-01-18T09:28:08.000Z</time>
      </trkpt>
      <trkpt lat="43.65083" lon="1.21883">
        <ele>206.80000305176</ele>
        <time>2015-01-18T09:28:14.000Z</time>
      </trkpt>
      <trkpt lat="43.65078" lon="1.21871">
        <ele>207</ele>
        <time>2015-01-18T09:28:18.000Z</time>
      </trkpt>
      <trkpt lat="43.65072" lon="1.21856">
        <ele>207.60000610352</ele>
        <time>2015-01-18T09:28:23.000Z</time>
      </trkpt>
      <trkpt lat="43.65071" lon="1.21852">
        <ele>207.80000305176</ele>
        <time>2015-01-18T09:28:24.000Z</time>
      </trkpt>
      <trkpt lat="43.65066" lon="1.21835">
        <ele>208.39999389648</ele>
        <time>2015-01-18T09:28:29.000Z</time>
      </trkpt>
      <trkpt lat="43.65059" lon="1.21819">
        <ele>209</ele>
        <time>2015-01-18T09:28:35.000Z</time>
      </trkpt>
      <trkpt lat="43.65054" lon="1.21797">
        <ele>209.39999389648</ele>
        <time>2015-01-18T09:28:41.000Z</time>
      </trkpt>
      <trkpt lat="43.65053" lon="1.21793">
        <ele>209.39999389648</ele>
        <time>2015-01-18T09:28:43.000Z</time>
      </trkpt>
      <trkpt lat="43.65044" lon="1.21774">
        <ele>209.80000305176</ele>
        <time>2015-01-18T09:28:49.000Z</time>
      </trkpt>
      <trkpt lat="43.65041" lon="1.21767">
        <ele>209.80000305176</ele>
        <time>2015-01-18T09:28:51.000Z</time>
      </trkpt>
      <trkpt lat="43.65036" lon="1.21755">
        <ele>210.19999694824</ele>
        <time>2015-01-18T09:28:56.000Z</time>
      </trkpt>
      <trkpt lat="43.65034" lon="1.21748">
        <ele>210.19999694824</ele>
        <time>2015-01-18T09:28:58.000Z</time>
      </trkpt>
      <trkpt lat="43.65026" lon="1.21735">
        <ele>210.60000610352</ele>
        <time>2015-01-18T09:29:01.000Z</time>
      </trkpt>
      <trkpt lat="43.65018" lon="1.21717">
        <ele>211</ele>
        <time>2015-01-18T09:29:08.000Z</time>
      </trkpt>
      <trkpt lat="43.65011" lon="1.21701">
        <ele>211.39999389648</ele>
        <time>2015-01-18T09:29:13.000Z</time>
      </trkpt>
      <trkpt lat="43.65011" lon="1.21697">
        <ele>211.39999389648</ele>
        <time>2015-01-18T09:29:14.000Z</time>
      </trkpt>
      <trkpt lat="43.65004" lon="1.21682">
        <ele>211.80000305176</ele>
        <time>2015-01-18T09:29:19.000Z</time>
      </trkpt>
      <trkpt lat="43.64998" lon="1.21672">
        <ele>212</ele>
        <time>2015-01-18T09:29:23.000Z</time>
      </trkpt>
      <trkpt lat="43.64994" lon="1.21659">
        <ele>212.19999694824</ele>
        <time>2015-01-18T09:29:28.000Z</time>
      </trkpt>
      <trkpt lat="43.64993" lon="1.21657">
        <ele>212.19999694824</ele>
        <time>2015-01-18T09:29:29.000Z</time>
      </trkpt>
      <trkpt lat="43.64988" lon="1.21643">
        <ele>212.60000610352</ele>
        <time>2015-01-18T09:29:34.000Z</time>
      </trkpt>
      <trkpt lat="43.64983" lon="1.21626">
        <ele>213.80000305176</ele>
        <time>2015-01-18T09:29:40.000Z</time>
      </trkpt>
      <trkpt lat="43.64976" lon="1.21605">
        <ele>215.39999389648</ele>
        <time>2015-01-18T09:29:48.000Z</time>
      </trkpt>
      <trkpt lat="43.64962" lon="1.21568">
        <ele>218</ele>
        <time>2015-01-18T09:30:01.000Z</time>
      </trkpt>
      <trkpt lat="43.64954" lon="1.21548">
        <ele>219.60000610352</ele>
        <time>2015-01-18T09:30:08.000Z</time>
      </trkpt>
      <trkpt lat="43.64947" lon="1.21532">
        <ele>221</ele>
        <time>2015-01-18T09:30:14.000Z</time>
      </trkpt>
      <trkpt lat="43.64945" lon="1.21528">
        <ele>221.39999389648</ele>
        <time>2015-01-18T09:30:16.000Z</time>
      </trkpt>
      <trkpt lat="43.64945" lon="1.21524">
        <ele>221.60000610352</ele>
        <time>2015-01-18T09:30:19.000Z</time>
      </trkpt>
      <trkpt lat="43.64942" lon="1.21513">
        <ele>222.39999389648</ele>
        <time>2015-01-18T09:30:23.000Z</time>
      </trkpt>
      <trkpt lat="43.64934" lon="1.21497">
        <ele>223.80000305176</ele>
        <time>2015-01-18T09:30:29.000Z</time>
      </trkpt>
      <trkpt lat="43.64929" lon="1.21489">
        <ele>224.39999389648</ele>
        <time>2015-01-18T09:30:32.000Z</time>
      </trkpt>
      <trkpt lat="43.64915" lon="1.21476">
        <ele>225.19999694824</ele>
        <time>2015-01-18T09:30:40.000Z</time>
      </trkpt>
      <trkpt lat="43.64901" lon="1.21467">
        <ele>225.60000610352</ele>
        <time>2015-01-18T09:30:46.000Z</time>
      </trkpt>
      <trkpt lat="43.64884" lon="1.2146">
        <ele>225.80000305176</ele>
        <time>2015-01-18T09:30:54.000Z</time>
      </trkpt>
      <trkpt lat="43.64867" lon="1.21455">
        <ele>226.19999694824</ele>
        <time>2015-01-18T09:31:01.000Z</time>
      </trkpt>
      <trkpt lat="43.64851" lon="1.21451">
        <ele>226.19999694824</ele>
        <time>2015-01-18T09:31:06.000Z</time>
      </trkpt>
      <trkpt lat="43.64835" lon="1.21453">
        <ele>225.60000610352</ele>
        <time>2015-01-18T09:31:13.000Z</time>
      </trkpt>
      <trkpt lat="43.64818" lon="1.21456">
        <ele>225.39999389648</ele>
        <time>2015-01-18T09:31:20.000Z</time>
      </trkpt>
      <trkpt lat="43.64803" lon="1.21457">
        <ele>225.19999694824</ele>
        <time>2015-01-18T09:31:25.000Z</time>
      </trkpt>
      <trkpt lat="43.64791" lon="1.21454">
        <ele>225</ele>
        <time>2015-01-18T09:31:30.000Z</time>
      </trkpt>
      <trkpt lat="43.64776" lon="1.21451">
        <ele>224.80000305176</ele>
        <time>2015-01-18T09:31:36.000Z</time>
      </trkpt>
      <trkpt lat="43.64758" lon="1.21454">
        <ele>224.60000610352</ele>
        <time>2015-01-18T09:31:42.000Z</time>
      </trkpt>
      <trkpt lat="43.64743" lon="1.21458">
        <ele>224.39999389648</ele>
        <time>2015-01-18T09:31:48.000Z</time>
      </trkpt>
      <trkpt lat="43.64728" lon="1.21463">
        <ele>224.39999389648</ele>
        <time>2015-01-18T09:31:54.000Z</time>
      </trkpt>
      <trkpt lat="43.64724" lon="1.21462">
        <ele>224.19999694824</ele>
        <time>2015-01-18T09:31:56.000Z</time>
      </trkpt>
      <trkpt lat="43.64709" lon="1.21461">
        <ele>224</ele>
        <time>2015-01-18T09:32:01.000Z</time>
      </trkpt>
      <trkpt lat="43.64695" lon="1.21475">
        <ele>224</ele>
        <time>2015-01-18T09:32:08.000Z</time>
      </trkpt>
      <trkpt lat="43.64693" lon="1.21477">
        <ele>224</ele>
        <time>2015-01-18T09:32:09.000Z</time>
      </trkpt>
      <trkpt lat="43.64682" lon="1.21478">
        <ele>224.19999694824</ele>
        <time>2015-01-18T09:32:14.000Z</time>
      </trkpt>
      <trkpt lat="43.64668" lon="1.21486">
        <ele>224.60000610352</ele>
        <time>2015-01-18T09:32:20.000Z</time>
      </trkpt>
      <trkpt lat="43.64654" lon="1.21494">
        <ele>225</ele>
        <time>2015-01-18T09:32:26.000Z</time>
      </trkpt>
      <trkpt lat="43.64643" lon="1.21496">
        <ele>225.39999389648</ele>
        <time>2015-01-18T09:32:30.000Z</time>
      </trkpt>
      <trkpt lat="43.64633" lon="1.21498">
        <ele>225.60000610352</ele>
        <time>2015-01-18T09:32:34.000Z</time>
      </trkpt>
      <trkpt lat="43.64614" lon="1.21496">
        <ele>226.19999694824</ele>
        <time>2015-01-18T09:32:41.000Z</time>
      </trkpt>
      <trkpt lat="43.64601" lon="1.21494">
        <ele>226.39999389648</ele>
        <time>2015-01-18T09:32:46.000Z</time>
      </trkpt>
      <trkpt lat="43.64588" lon="1.21494">
        <ele>226.80000305176</ele>
        <time>2015-01-18T09:32:50.000Z</time>
      </trkpt>
      <trkpt lat="43.64573" lon="1.21495">
        <ele>227.19999694824</ele>
        <time>2015-01-18T09:32:56.000Z</time>
      </trkpt>
      <trkpt lat="43.64562" lon="1.21498">
        <ele>227.19999694824</ele>
        <time>2015-01-18T09:33:01.000Z</time>
      </trkpt>
      <trkpt lat="43.6455" lon="1.21503">
        <ele>227.39999389648</ele>
        <time>2015-01-18T09:33:06.000Z</time>
      </trkpt>
      <trkpt lat="43.64532" lon="1.21508">
        <ele>227.39999389648</ele>
        <time>2015-01-18T09:33:14.000Z</time>
      </trkpt>
      <trkpt lat="43.64518" lon="1.21511">
        <ele>227.39999389648</ele>
        <time>2015-01-18T09:33:19.000Z</time>
      </trkpt>
      <trkpt lat="43.64506" lon="1.21512">
        <ele>227.80000305176</ele>
        <time>2015-01-18T09:33:23.000Z</time>
      </trkpt>
      <trkpt lat="43.64492" lon="1.21511">
        <ele>228.19999694824</ele>
        <time>2015-01-18T09:33:28.000Z</time>
      </trkpt>
      <trkpt lat="43.64478" lon="1.21509">
        <ele>228.60000610352</ele>
        <time>2015-01-18T09:33:33.000Z</time>
      </trkpt>
      <trkpt lat="43.64461" lon="1.21507">
        <ele>229</ele>
        <time>2015-01-18T09:33:39.000Z</time>
      </trkpt>
      <trkpt lat="43.64443" lon="1.21507">
        <ele>229.39999389648</ele>
        <time>2015-01-18T09:33:46.000Z</time>
      </trkpt>
      <trkpt lat="43.64424" lon="1.21507">
        <ele>229.60000610352</ele>
        <time>2015-01-18T09:33:53.000Z</time>
      </trkpt>
      <trkpt lat="43.64406" lon="1.21499">
        <ele>229.60000610352</ele>
        <time>2015-01-18T09:34:00.000Z</time>
      </trkpt>
      <trkpt lat="43.64393" lon="1.21488">
        <ele>230</ele>
        <time>2015-01-18T09:34:06.000Z</time>
      </trkpt>
      <trkpt lat="43.64389" lon="1.21484">
        <ele>230.19999694824</ele>
        <time>2015-01-18T09:34:09.000Z</time>
      </trkpt>
      <trkpt lat="43.64386" lon="1.21483">
        <ele>230.19999694824</ele>
        <time>2015-01-18T09:34:17.000Z</time>
      </trkpt>
      <trkpt lat="43.64381" lon="1.21485">
        <ele>230</ele>
        <time>2015-01-18T09:34:23.000Z</time>
      </trkpt>
      <trkpt lat="43.64381" lon="1.21487">
        <ele>230</ele>
        <time>2015-01-18T09:34:24.000Z</time>
      </trkpt>
      <trkpt lat="43.64375" lon="1.21498">
        <ele>229.39999389648</ele>
        <time>2015-01-18T09:34:28.000Z</time>
      </trkpt>
      <trkpt lat="43.64367" lon="1.21513">
        <ele>229</ele>
        <time>2015-01-18T09:34:33.000Z</time>
      </trkpt>
      <trkpt lat="43.64358" lon="1.21531">
        <ele>228.60000610352</ele>
        <time>2015-01-18T09:34:39.000Z</time>
      </trkpt>
      <trkpt lat="43.64341" lon="1.21565">
        <ele>228.39999389648</ele>
        <time>2015-01-18T09:34:49.000Z</time>
      </trkpt>
      <trkpt lat="43.64332" lon="1.21584">
        <ele>228.19999694824</ele>
        <time>2015-01-18T09:34:55.000Z</time>
      </trkpt>
      <trkpt lat="43.64328" lon="1.21594">
        <ele>228</ele>
        <time>2015-01-18T09:34:57.000Z</time>
      </trkpt>
      <trkpt lat="43.64323" lon="1.21608">
        <ele>227.80000305176</ele>
        <time>2015-01-18T09:35:02.000Z</time>
      </trkpt>
      <trkpt lat="43.64318" lon="1.21622">
        <ele>227.60000610352</ele>
        <time>2015-01-18T09:35:06.000Z</time>
      </trkpt>
      <trkpt lat="43.6431" lon="1.2164">
        <ele>227.19999694824</ele>
        <time>2015-01-18T09:35:11.000Z</time>
      </trkpt>
      <trkpt lat="43.64302" lon="1.21658">
        <ele>227</ele>
        <time>2015-01-18T09:35:16.000Z</time>
      </trkpt>
      <trkpt lat="43.64296" lon="1.21672">
        <ele>226.80000305176</ele>
        <time>2015-01-18T09:35:20.000Z</time>
      </trkpt>
      <trkpt lat="43.64288" lon="1.2169">
        <ele>226.80000305176</ele>
        <time>2015-01-18T09:35:25.000Z</time>
      </trkpt>
      <trkpt lat="43.64278" lon="1.21712">
        <ele>226.80000305176</ele>
        <time>2015-01-18T09:35:31.000Z</time>
      </trkpt>
      <trkpt lat="43.64269" lon="1.21733">
        <ele>226.80000305176</ele>
        <time>2015-01-18T09:35:37.000Z</time>
      </trkpt>
      <trkpt lat="43.64262" lon="1.21751">
        <ele>226.60000610352</ele>
        <time>2015-01-18T09:35:42.000Z</time>
      </trkpt>
      <trkpt lat="43.64255" lon="1.21769">
        <ele>226.39999389648</ele>
        <time>2015-01-18T09:35:47.000Z</time>
      </trkpt>
      <trkpt lat="43.64248" lon="1.21782">
        <ele>226.39999389648</ele>
        <time>2015-01-18T09:35:51.000Z</time>
      </trkpt>
      <trkpt lat="43.64239" lon="1.21802">
        <ele>226.39999389648</ele>
        <time>2015-01-18T09:35:56.000Z</time>
      </trkpt>
      <trkpt lat="43.64232" lon="1.21816">
        <ele>226.60000610352</ele>
        <time>2015-01-18T09:36:01.000Z</time>
      </trkpt>
      <trkpt lat="43.64222" lon="1.21837">
        <ele>226.39999389648</ele>
        <time>2015-01-18T09:36:07.000Z</time>
      </trkpt>
      <trkpt lat="43.64215" lon="1.21851">
        <ele>226.60000610352</ele>
        <time>2015-01-18T09:36:11.000Z</time>
      </trkpt>
      <trkpt lat="43.64213" lon="1.21859">
        <ele>226.60000610352</ele>
        <time>2015-01-18T09:36:13.000Z</time>
      </trkpt>
      <trkpt lat="43.64203" lon="1.2188">
        <ele>227</ele>
        <time>2015-01-18T09:36:19.000Z</time>
      </trkpt>
      <trkpt lat="43.64202" lon="1.21884">
        <ele>227</ele>
        <time>2015-01-18T09:36:20.000Z</time>
      </trkpt>
      <trkpt lat="43.64194" lon="1.21904">
        <ele>227.19999694824</ele>
        <time>2015-01-18T09:36:26.000Z</time>
      </trkpt>
      <trkpt lat="43.64184" lon="1.21925">
        <ele>226.19999694824</ele>
        <time>2015-01-18T09:36:32.000Z</time>
      </trkpt>
      <trkpt lat="43.64175" lon="1.21947">
        <ele>225</ele>
        <time>2015-01-18T09:36:38.000Z</time>
      </trkpt>
      <trkpt lat="43.64166" lon="1.21973">
        <ele>223.60000610352</ele>
        <time>2015-01-18T09:36:45.000Z</time>
      </trkpt>
      <trkpt lat="43.64163" lon="1.21979">
        <ele>223.19999694824</ele>
        <time>2015-01-18T09:36:47.000Z</time>
      </trkpt>
      <trkpt lat="43.64156" lon="1.21981">
        <ele>223.39999389648</ele>
        <time>2015-01-18T09:36:52.000Z</time>
      </trkpt>
      <trkpt lat="43.6415" lon="1.21971">
        <ele>223.80000305176</ele>
        <time>2015-01-18T09:36:56.000Z</time>
      </trkpt>
      <trkpt lat="43.64143" lon="1.21957">
        <ele>224.80000305176</ele>
        <time>2015-01-18T09:37:01.000Z</time>
      </trkpt>
      <trkpt lat="43.64137" lon="1.21943">
        <ele>225.80000305176</ele>
        <time>2015-01-18T09:37:06.000Z</time>
      </trkpt>
      <trkpt lat="43.64127" lon="1.2193">
        <ele>226.60000610352</ele>
        <time>2015-01-18T09:37:12.000Z</time>
      </trkpt>
      <trkpt lat="43.64118" lon="1.21916">
        <ele>227.60000610352</ele>
        <time>2015-01-18T09:37:18.000Z</time>
      </trkpt>
      <trkpt lat="43.64113" lon="1.21904">
        <ele>228.39999389648</ele>
        <time>2015-01-18T09:37:22.000Z</time>
      </trkpt>
      <trkpt lat="43.64107" lon="1.21894">
        <ele>229</ele>
        <time>2015-01-18T09:37:26.000Z</time>
      </trkpt>
      <trkpt lat="43.64101" lon="1.21875">
        <ele>229.19999694824</ele>
        <time>2015-01-18T09:37:32.000Z</time>
      </trkpt>
      <trkpt lat="43.64096" lon="1.21862">
        <ele>229</ele>
        <time>2015-01-18T09:37:36.000Z</time>
      </trkpt>
      <trkpt lat="43.64091" lon="1.21847">
        <ele>229</ele>
        <time>2015-01-18T09:37:41.000Z</time>
      </trkpt>
      <trkpt lat="43.64089" lon="1.21829">
        <ele>229</ele>
        <time>2015-01-18T09:37:46.000Z</time>
      </trkpt>
      <trkpt lat="43.64086" lon="1.21809">
        <ele>229.19999694824</ele>
        <time>2015-01-18T09:37:51.000Z</time>
      </trkpt>
      <trkpt lat="43.64084" lon="1.21789">
        <ele>229.60000610352</ele>
        <time>2015-01-18T09:37:56.000Z</time>
      </trkpt>
      <trkpt lat="43.6408" lon="1.21771">
        <ele>230</ele>
        <time>2015-01-18T09:38:01.000Z</time>
      </trkpt>
      <trkpt lat="43.64073" lon="1.21762">
        <ele>229.80000305176</ele>
        <time>2015-01-18T09:38:07.000Z</time>
      </trkpt>
      <trkpt lat="43.6407" lon="1.21759">
        <ele>229.60000610352</ele>
        <time>2015-01-18T09:38:10.000Z</time>
      </trkpt>
      <trkpt lat="43.6406" lon="1.2175">
        <ele>229.39999389648</ele>
        <time>2015-01-18T09:38:16.000Z</time>
      </trkpt>
      <trkpt lat="43.64057" lon="1.21747">
        <ele>229.39999389648</ele>
        <time>2015-01-18T09:38:18.000Z</time>
      </trkpt>
      <trkpt lat="43.64044" lon="1.21736">
        <ele>229</ele>
        <time>2015-01-18T09:38:24.000Z</time>
      </trkpt>
      <trkpt lat="43.64031" lon="1.21723">
        <ele>228.60000610352</ele>
        <time>2015-01-18T09:38:30.000Z</time>
      </trkpt>
      <trkpt lat="43.64018" lon="1.21714">
        <ele>228.39999389648</ele>
        <time>2015-01-18T09:38:35.000Z</time>
      </trkpt>
      <trkpt lat="43.63992" lon="1.21692">
        <ele>228.19999694824</ele>
        <time>2015-01-18T09:38:47.000Z</time>
      </trkpt>
      <trkpt lat="43.6398" lon="1.2168">
        <ele>228.19999694824</ele>
        <time>2015-01-18T09:38:52.000Z</time>
      </trkpt>
      <trkpt lat="43.63966" lon="1.21667">
        <ele>228.19999694824</ele>
        <time>2015-01-18T09:38:58.000Z</time>
      </trkpt>
      <trkpt lat="43.63951" lon="1.21655">
        <ele>228.19999694824</ele>
        <time>2015-01-18T09:39:04.000Z</time>
      </trkpt>
      <trkpt lat="43.63935" lon="1.2164">
        <ele>228</ele>
        <time>2015-01-18T09:39:11.000Z</time>
      </trkpt>
      <trkpt lat="43.63924" lon="1.21631">
        <ele>228</ele>
        <time>2015-01-18T09:39:16.000Z</time>
      </trkpt>
      <trkpt lat="43.63909" lon="1.21619">
        <ele>228</ele>
        <time>2015-01-18T09:39:22.000Z</time>
      </trkpt>
      <trkpt lat="43.63896" lon="1.21607">
        <ele>228</ele>
        <time>2015-01-18T09:39:28.000Z</time>
      </trkpt>
      <trkpt lat="43.63887" lon="1.21594">
        <ele>228</ele>
        <time>2015-01-18T09:39:33.000Z</time>
      </trkpt>
      <trkpt lat="43.63873" lon="1.21576">
        <ele>228</ele>
        <time>2015-01-18T09:39:40.000Z</time>
      </trkpt>
      <trkpt lat="43.63862" lon="1.21568">
        <ele>228</ele>
        <time>2015-01-18T09:39:44.000Z</time>
      </trkpt>
      <trkpt lat="43.63848" lon="1.21554">
        <ele>228.39999389648</ele>
        <time>2015-01-18T09:39:51.000Z</time>
      </trkpt>
      <trkpt lat="43.63833" lon="1.2154">
        <ele>229.19999694824</ele>
        <time>2015-01-18T09:39:58.000Z</time>
      </trkpt>
      <trkpt lat="43.63819" lon="1.21529">
        <ele>230</ele>
        <time>2015-01-18T09:40:04.000Z</time>
      </trkpt>
      <trkpt lat="43.6381" lon="1.21509">
        <ele>230.80000305176</ele>
        <time>2015-01-18T09:40:10.000Z</time>
      </trkpt>
      <trkpt lat="43.63799" lon="1.21499">
        <ele>231.39999389648</ele>
        <time>2015-01-18T09:40:15.000Z</time>
      </trkpt>
      <trkpt lat="43.63787" lon="1.21493">
        <ele>232</ele>
        <time>2015-01-18T09:40:20.000Z</time>
      </trkpt>
      <trkpt lat="43.6377" lon="1.2148">
        <ele>233</ele>
        <time>2015-01-18T09:40:26.000Z</time>
      </trkpt>
      <trkpt lat="43.63764" lon="1.21475">
        <ele>233.19999694824</ele>
        <time>2015-01-18T09:40:30.000Z</time>
      </trkpt>
      <trkpt lat="43.6376" lon="1.2147">
        <ele>233.19999694824</ele>
        <time>2015-01-18T09:40:32.000Z</time>
      </trkpt>
      <trkpt lat="43.63742" lon="1.21431">
        <ele>233.80000305176</ele>
        <time>2015-01-18T09:40:46.000Z</time>
      </trkpt>
      <trkpt lat="43.63738" lon="1.21405">
        <ele>234.19999694824</ele>
        <time>2015-01-18T09:40:53.000Z</time>
      </trkpt>
      <trkpt lat="43.63732" lon="1.21383">
        <ele>234.19999694824</ele>
        <time>2015-01-18T09:40:59.000Z</time>
      </trkpt>
      <trkpt lat="43.63724" lon="1.21363">
        <ele>234.19999694824</ele>
        <time>2015-01-18T09:41:05.000Z</time>
      </trkpt>
      <trkpt lat="43.63711" lon="1.21346">
        <ele>234.19999694824</ele>
        <time>2015-01-18T09:41:11.000Z</time>
      </trkpt>
      <trkpt lat="43.63695" lon="1.2133">
        <ele>234.19999694824</ele>
        <time>2015-01-18T09:41:18.000Z</time>
      </trkpt>
      <trkpt lat="43.63684" lon="1.21322">
        <ele>234.19999694824</ele>
        <time>2015-01-18T09:41:23.000Z</time>
      </trkpt>
      <trkpt lat="43.63673" lon="1.21314">
        <ele>234</ele>
        <time>2015-01-18T09:41:28.000Z</time>
      </trkpt>
      <trkpt lat="43.63663" lon="1.21299">
        <ele>234.19999694824</ele>
        <time>2015-01-18T09:41:34.000Z</time>
      </trkpt>
      <trkpt lat="43.6366" lon="1.2128">
        <ele>234.19999694824</ele>
        <time>2015-01-18T09:41:39.000Z</time>
      </trkpt>
      <trkpt lat="43.6365" lon="1.21262">
        <ele>234</ele>
        <time>2015-01-18T09:41:45.000Z</time>
      </trkpt>
      <trkpt lat="43.63637" lon="1.21256">
        <ele>234.39999389648</ele>
        <time>2015-01-18T09:41:49.000Z</time>
      </trkpt>
      <trkpt lat="43.63621" lon="1.21255">
        <ele>234.60000610352</ele>
        <time>2015-01-18T09:41:55.000Z</time>
      </trkpt>
      <trkpt lat="43.63592" lon="1.21243">
        <ele>234.39999389648</ele>
        <time>2015-01-18T09:42:06.000Z</time>
      </trkpt>
      <trkpt lat="43.6359" lon="1.21243">
        <ele>234.39999389648</ele>
        <time>2015-01-18T09:42:07.000Z</time>
      </trkpt>
      <trkpt lat="43.63576" lon="1.21242">
        <ele>233.80000305176</ele>
        <time>2015-01-18T09:42:12.000Z</time>
      </trkpt>
      <trkpt lat="43.63559" lon="1.21241">
        <ele>233.39999389648</ele>
        <time>2015-01-18T09:42:18.000Z</time>
      </trkpt>
      <trkpt lat="43.63547" lon="1.21244">
        <ele>232.80000305176</ele>
        <time>2015-01-18T09:42:23.000Z</time>
      </trkpt>
      <trkpt lat="43.6354" lon="1.21249">
        <ele>232.60000610352</ele>
        <time>2015-01-18T09:42:26.000Z</time>
      </trkpt>
      <trkpt lat="43.63523" lon="1.21258">
        <ele>232.80000305176</ele>
        <time>2015-01-18T09:42:34.000Z</time>
      </trkpt>
      <trkpt lat="43.63507" lon="1.2127">
        <ele>233.19999694824</ele>
        <time>2015-01-18T09:42:41.000Z</time>
      </trkpt>
      <trkpt lat="43.6349" lon="1.21281">
        <ele>233.60000610352</ele>
        <time>2015-01-18T09:42:49.000Z</time>
      </trkpt>
      <trkpt lat="43.63478" lon="1.21305">
        <ele>234.39999389648</ele>
        <time>2015-01-18T09:42:58.000Z</time>
      </trkpt>
      <trkpt lat="43.63474" lon="1.21319">
        <ele>234.60000610352</ele>
        <time>2015-01-18T09:43:03.000Z</time>
      </trkpt>
      <trkpt lat="43.63469" lon="1.21333">
        <ele>234.80000305176</ele>
        <time>2015-01-18T09:43:08.000Z</time>
      </trkpt>
      <trkpt lat="43.63464" lon="1.21348">
        <ele>234.80000305176</ele>
        <time>2015-01-18T09:43:13.000Z</time>
      </trkpt>
      <trkpt lat="43.63457" lon="1.21368">
        <ele>234.19999694824</ele>
        <time>2015-01-18T09:43:20.000Z</time>
      </trkpt>
      <trkpt lat="43.63454" lon="1.21388">
        <ele>233.60000610352</ele>
        <time>2015-01-18T09:43:26.000Z</time>
      </trkpt>
      <trkpt lat="43.63452" lon="1.21399">
        <ele>233.39999389648</ele>
        <time>2015-01-18T09:43:30.000Z</time>
      </trkpt>
      <trkpt lat="43.63447" lon="1.21419">
        <ele>233.60000610352</ele>
        <time>2015-01-18T09:43:36.000Z</time>
      </trkpt>
      <trkpt lat="43.63441" lon="1.2144">
        <ele>233.60000610352</ele>
        <time>2015-01-18T09:43:42.000Z</time>
      </trkpt>
      <trkpt lat="43.63435" lon="1.21459">
        <ele>233.80000305176</ele>
        <time>2015-01-18T09:43:48.000Z</time>
      </trkpt>
      <trkpt lat="43.63425" lon="1.21477">
        <ele>233.80000305176</ele>
        <time>2015-01-18T09:43:54.000Z</time>
      </trkpt>
      <trkpt lat="43.63418" lon="1.21493">
        <ele>233.80000305176</ele>
        <time>2015-01-18T09:43:59.000Z</time>
      </trkpt>
      <trkpt lat="43.63411" lon="1.21509">
        <ele>233.80000305176</ele>
        <time>2015-01-18T09:44:04.000Z</time>
      </trkpt>
      <trkpt lat="43.63408" lon="1.21531">
        <ele>234</ele>
        <time>2015-01-18T09:44:10.000Z</time>
      </trkpt>
      <trkpt lat="43.63403" lon="1.21543">
        <ele>234.19999694824</ele>
        <time>2015-01-18T09:44:14.000Z</time>
      </trkpt>
      <trkpt lat="43.63391" lon="1.2154">
        <ele>234</ele>
        <time>2015-01-18T09:44:19.000Z</time>
      </trkpt>
      <trkpt lat="43.63389" lon="1.21538">
        <ele>233.80000305176</ele>
        <time>2015-01-18T09:44:20.000Z</time>
      </trkpt>
      <trkpt lat="43.63374" lon="1.21529">
        <ele>233.39999389648</ele>
        <time>2015-01-18T09:44:26.000Z</time>
      </trkpt>
      <trkpt lat="43.63356" lon="1.21518">
        <ele>233</ele>
        <time>2015-01-18T09:44:33.000Z</time>
      </trkpt>
      <trkpt lat="43.63344" lon="1.21511">
        <ele>232.80000305176</ele>
        <time>2015-01-18T09:44:38.000Z</time>
      </trkpt>
      <trkpt lat="43.63335" lon="1.21524">
        <ele>233</ele>
        <time>2015-01-18T09:44:43.000Z</time>
      </trkpt>
      <trkpt lat="43.63333" lon="1.21526">
        <ele>233.19999694824</ele>
        <time>2015-01-18T09:44:44.000Z</time>
      </trkpt>
      <trkpt lat="43.6333" lon="1.21544">
        <ele>233.60000610352</ele>
        <time>2015-01-18T09:44:49.000Z</time>
      </trkpt>
      <trkpt lat="43.63327" lon="1.21568">
        <ele>233.80000305176</ele>
        <time>2015-01-18T09:44:56.000Z</time>
      </trkpt>
      <trkpt lat="43.63323" lon="1.21585">
        <ele>234</ele>
        <time>2015-01-18T09:45:01.000Z</time>
      </trkpt>
      <trkpt lat="43.63319" lon="1.21599">
        <ele>234</ele>
        <time>2015-01-18T09:45:05.000Z</time>
      </trkpt>
      <trkpt lat="43.63318" lon="1.21602">
        <ele>234</ele>
        <time>2015-01-18T09:45:06.000Z</time>
      </trkpt>
      <trkpt lat="43.63315" lon="1.21616">
        <ele>234.39999389648</ele>
        <time>2015-01-18T09:45:11.000Z</time>
      </trkpt>
      <trkpt lat="43.63312" lon="1.21627">
        <ele>234.60000610352</ele>
        <time>2015-01-18T09:45:15.000Z</time>
      </trkpt>
      <trkpt lat="43.63307" lon="1.2164">
        <ele>234.80000305176</ele>
        <time>2015-01-18T09:45:19.000Z</time>
      </trkpt>
      <trkpt lat="43.63301" lon="1.21658">
        <ele>234.60000610352</ele>
        <time>2015-01-18T09:45:25.000Z</time>
      </trkpt>
      <trkpt lat="43.633" lon="1.21674">
        <ele>234.39999389648</ele>
        <time>2015-01-18T09:45:29.000Z</time>
      </trkpt>
      <trkpt lat="43.63297" lon="1.21685">
        <ele>234.39999389648</ele>
        <time>2015-01-18T09:45:33.000Z</time>
      </trkpt>
      <trkpt lat="43.63291" lon="1.21707">
        <ele>234.39999389648</ele>
        <time>2015-01-18T09:45:40.000Z</time>
      </trkpt>
      <trkpt lat="43.63283" lon="1.21724">
        <ele>234.60000610352</ele>
        <time>2015-01-18T09:45:45.000Z</time>
      </trkpt>
      <trkpt lat="43.63276" lon="1.21741">
        <ele>235</ele>
        <time>2015-01-18T09:45:51.000Z</time>
      </trkpt>
      <trkpt lat="43.63266" lon="1.21759">
        <ele>234.60000610352</ele>
        <time>2015-01-18T09:45:57.000Z</time>
      </trkpt>
      <trkpt lat="43.63255" lon="1.21773">
        <ele>234.39999389648</ele>
        <time>2015-01-18T09:46:03.000Z</time>
      </trkpt>
      <trkpt lat="43.63243" lon="1.21789">
        <ele>234.39999389648</ele>
        <time>2015-01-18T09:46:09.000Z</time>
      </trkpt>
      <trkpt lat="43.63235" lon="1.218">
        <ele>234.60000610352</ele>
        <time>2015-01-18T09:46:13.000Z</time>
      </trkpt>
      <trkpt lat="43.63231" lon="1.21805">
        <ele>234.80000305176</ele>
        <time>2015-01-18T09:46:15.000Z</time>
      </trkpt>
      <trkpt lat="43.63229" lon="1.21807">
        <ele>234.80000305176</ele>
        <time>2015-01-18T09:46:16.000Z</time>
      </trkpt>
      <trkpt lat="43.6322" lon="1.21819">
        <ele>235.19999694824</ele>
        <time>2015-01-18T09:46:21.000Z</time>
      </trkpt>
      <trkpt lat="43.63211" lon="1.21829">
        <ele>235.39999389648</ele>
        <time>2015-01-18T09:46:26.000Z</time>
      </trkpt>
      <trkpt lat="43.63202" lon="1.21837">
        <ele>235.60000610352</ele>
        <time>2015-01-18T09:46:30.000Z</time>
      </trkpt>
      <trkpt lat="43.63199" lon="1.21842">
        <ele>235.60000610352</ele>
        <time>2015-01-18T09:46:32.000Z</time>
      </trkpt>
      <trkpt lat="43.63192" lon="1.2185">
        <ele>235.80000305176</ele>
        <time>2015-01-18T09:46:35.000Z</time>
      </trkpt>
      <trkpt lat="43.63187" lon="1.21862">
        <ele>236</ele>
        <time>2015-01-18T09:46:39.000Z</time>
      </trkpt>
      <trkpt lat="43.63175" lon="1.21888">
        <ele>235.80000305176</ele>
        <time>2015-01-18T09:46:47.000Z</time>
      </trkpt>
      <trkpt lat="43.6316" lon="1.21917">
        <ele>234.80000305176</ele>
        <time>2015-01-18T09:46:57.000Z</time>
      </trkpt>
      <trkpt lat="43.63148" lon="1.21932">
        <ele>234.19999694824</ele>
        <time>2015-01-18T09:47:03.000Z</time>
      </trkpt>
      <trkpt lat="43.63145" lon="1.21933">
        <ele>234.19999694824</ele>
        <time>2015-01-18T09:47:04.000Z</time>
      </trkpt>
      <trkpt lat="43.6313" lon="1.21941">
        <ele>234</ele>
        <time>2015-01-18T09:47:10.000Z</time>
      </trkpt>
      <trkpt lat="43.63118" lon="1.21947">
        <ele>234</ele>
        <time>2015-01-18T09:47:15.000Z</time>
      </trkpt>
      <trkpt lat="43.63104" lon="1.2195">
        <ele>234</ele>
        <time>2015-01-18T09:47:20.000Z</time>
      </trkpt>
      <trkpt lat="43.63091" lon="1.2195">
        <ele>234</ele>
        <time>2015-01-18T09:47:25.000Z</time>
      </trkpt>
      <trkpt lat="43.63072" lon="1.21953">
        <ele>233.80000305176</ele>
        <time>2015-01-18T09:47:32.000Z</time>
      </trkpt>
      <trkpt lat="43.6306" lon="1.2196">
        <ele>233.19999694824</ele>
        <time>2015-01-18T09:47:37.000Z</time>
      </trkpt>
      <trkpt lat="43.63046" lon="1.21967">
        <ele>232.39999389648</ele>
        <time>2015-01-18T09:47:42.000Z</time>
      </trkpt>
      <trkpt lat="43.63028" lon="1.21975">
        <ele>231.39999389648</ele>
        <time>2015-01-18T09:47:49.000Z</time>
      </trkpt>
      <trkpt lat="43.63009" lon="1.21984">
        <ele>230.39999389648</ele>
        <time>2015-01-18T09:47:56.000Z</time>
      </trkpt>
      <trkpt lat="43.62993" lon="1.21987">
        <ele>229.60000610352</ele>
        <time>2015-01-18T09:48:02.000Z</time>
      </trkpt>
      <trkpt lat="43.6298" lon="1.21988">
        <ele>229.19999694824</ele>
        <time>2015-01-18T09:48:07.000Z</time>
      </trkpt>
      <trkpt lat="43.62963" lon="1.21986">
        <ele>228.60000610352</ele>
        <time>2015-01-18T09:48:13.000Z</time>
      </trkpt>
      <trkpt lat="43.6295" lon="1.21983">
        <ele>228.19999694824</ele>
        <time>2015-01-18T09:48:18.000Z</time>
      </trkpt>
      <trkpt lat="43.62935" lon="1.21978">
        <ele>228</ele>
        <time>2015-01-18T09:48:23.000Z</time>
      </trkpt>
      <trkpt lat="43.62916" lon="1.21968">
        <ele>227</ele>
        <time>2015-01-18T09:48:30.000Z</time>
      </trkpt>
      <trkpt lat="43.62898" lon="1.21955">
        <ele>226.19999694824</ele>
        <time>2015-01-18T09:48:36.000Z</time>
      </trkpt>
      <trkpt lat="43.62885" lon="1.21939">
        <ele>225.80000305176</ele>
        <time>2015-01-18T09:48:43.000Z</time>
      </trkpt>
      <trkpt lat="43.62857" lon="1.21909">
        <ele>224.80000305176</ele>
        <time>2015-01-18T09:48:55.000Z</time>
      </trkpt>
      <trkpt lat="43.62843" lon="1.21896">
        <ele>224.80000305176</ele>
        <time>2015-01-18T09:49:01.000Z</time>
      </trkpt>
      <trkpt lat="43.62832" lon="1.2189">
        <ele>224.80000305176</ele>
        <time>2015-01-18T09:49:05.000Z</time>
      </trkpt>
      <trkpt lat="43.62815" lon="1.21885">
        <ele>224.60000610352</ele>
        <time>2015-01-18T09:49:11.000Z</time>
      </trkpt>
      <trkpt lat="43.62803" lon="1.21889">
        <ele>224.19999694824</ele>
        <time>2015-01-18T09:49:16.000Z</time>
      </trkpt>
      <trkpt lat="43.62789" lon="1.21895">
        <ele>223.39999389648</ele>
        <time>2015-01-18T09:49:21.000Z</time>
      </trkpt>
      <trkpt lat="43.62772" lon="1.219">
        <ele>223</ele>
        <time>2015-01-18T09:49:27.000Z</time>
      </trkpt>
      <trkpt lat="43.62756" lon="1.21905">
        <ele>222.60000610352</ele>
        <time>2015-01-18T09:49:32.000Z</time>
      </trkpt>
      <trkpt lat="43.62742" lon="1.21908">
        <ele>222.19999694824</ele>
        <time>2015-01-18T09:49:37.000Z</time>
      </trkpt>
      <trkpt lat="43.62723" lon="1.21907">
        <ele>222</ele>
        <time>2015-01-18T09:49:43.000Z</time>
      </trkpt>
      <trkpt lat="43.62703" lon="1.21906">
        <ele>221.80000305176</ele>
        <time>2015-01-18T09:49:50.000Z</time>
      </trkpt>
      <trkpt lat="43.62686" lon="1.21901">
        <ele>222</ele>
        <time>2015-01-18T09:49:56.000Z</time>
      </trkpt>
      <trkpt lat="43.62668" lon="1.21893">
        <ele>221.80000305176</ele>
        <time>2015-01-18T09:50:02.000Z</time>
      </trkpt>
      <trkpt lat="43.6266" lon="1.21884">
        <ele>222.19999694824</ele>
        <time>2015-01-18T09:50:06.000Z</time>
      </trkpt>
      <trkpt lat="43.62658" lon="1.21881">
        <ele>222.19999694824</ele>
        <time>2015-01-18T09:50:07.000Z</time>
      </trkpt>
      <trkpt lat="43.62641" lon="1.21875">
        <ele>222.19999694824</ele>
        <time>2015-01-18T09:50:13.000Z</time>
      </trkpt>
      <trkpt lat="43.6262" lon="1.2187">
        <ele>222.19999694824</ele>
        <time>2015-01-18T09:50:20.000Z</time>
      </trkpt>
      <trkpt lat="43.62607" lon="1.21865">
        <ele>222.19999694824</ele>
        <time>2015-01-18T09:50:25.000Z</time>
      </trkpt>
      <trkpt lat="43.62593" lon="1.21858">
        <ele>222</ele>
        <time>2015-01-18T09:50:30.000Z</time>
      </trkpt>
      <trkpt lat="43.62576" lon="1.21848">
        <ele>221.80000305176</ele>
        <time>2015-01-18T09:50:36.000Z</time>
      </trkpt>
      <trkpt lat="43.62559" lon="1.2184">
        <ele>221.39999389648</ele>
        <time>2015-01-18T09:50:41.000Z</time>
      </trkpt>
      <trkpt lat="43.62522" lon="1.21827">
        <ele>220.39999389648</ele>
        <time>2015-01-18T09:50:55.000Z</time>
      </trkpt>
      <trkpt lat="43.62501" lon="1.21826">
        <ele>219.19999694824</ele>
        <time>2015-01-18T09:51:02.000Z</time>
      </trkpt>
      <trkpt lat="43.62483" lon="1.21824">
        <ele>218.19999694824</ele>
        <time>2015-01-18T09:51:08.000Z</time>
      </trkpt>
      <trkpt lat="43.62481" lon="1.21823">
        <ele>218.19999694824</ele>
        <time>2015-01-18T09:51:09.000Z</time>
      </trkpt>
      <trkpt lat="43.62459" lon="1.21822">
        <ele>217</ele>
        <time>2015-01-18T09:51:16.000Z</time>
      </trkpt>
      <trkpt lat="43.62442" lon="1.21822">
        <ele>216</ele>
        <time>2015-01-18T09:51:22.000Z</time>
      </trkpt>
      <trkpt lat="43.62428" lon="1.21822">
        <ele>215.60000610352</ele>
        <time>2015-01-18T09:51:27.000Z</time>
      </trkpt>
      <trkpt lat="43.62415" lon="1.21822">
        <ele>215.39999389648</ele>
        <time>2015-01-18T09:51:31.000Z</time>
      </trkpt>
      <trkpt lat="43.62412" lon="1.21822">
        <ele>215.39999389648</ele>
        <time>2015-01-18T09:51:32.000Z</time>
      </trkpt>
      <trkpt lat="43.62396" lon="1.21819">
        <ele>215.19999694824</ele>
        <time>2015-01-18T09:51:37.000Z</time>
      </trkpt>
      <trkpt lat="43.62379" lon="1.21816">
        <ele>215.19999694824</ele>
        <time>2015-01-18T09:51:43.000Z</time>
      </trkpt>
      <trkpt lat="43.62364" lon="1.21814">
        <ele>215</ele>
        <time>2015-01-18T09:51:48.000Z</time>
      </trkpt>
      <trkpt lat="43.6234" lon="1.21811">
        <ele>214.80000305176</ele>
        <time>2015-01-18T09:51:58.000Z</time>
      </trkpt>
      <trkpt lat="43.62349" lon="1.21775">
        <ele>216.19999694824</ele>
        <time>2015-01-18T09:52:10.000Z</time>
      </trkpt>
      <trkpt lat="43.62356" lon="1.21755">
        <ele>217</ele>
        <time>2015-01-18T09:52:16.000Z</time>
      </trkpt>
      <trkpt lat="43.6236" lon="1.2174">
        <ele>217.60000610352</ele>
        <time>2015-01-18T09:52:20.000Z</time>
      </trkpt>
      <trkpt lat="43.62363" lon="1.21733">
        <ele>217.80000305176</ele>
        <time>2015-01-18T09:52:23.000Z</time>
      </trkpt>
      <trkpt lat="43.62368" lon="1.21716">
        <ele>218.19999694824</ele>
        <time>2015-01-18T09:52:28.000Z</time>
      </trkpt>
      <trkpt lat="43.62371" lon="1.21708">
        <ele>218.60000610352</ele>
        <time>2015-01-18T09:52:31.000Z</time>
      </trkpt>
      <trkpt lat="43.62368" lon="1.217">
        <ele>218.60000610352</ele>
        <time>2015-01-18T09:52:35.000Z</time>
      </trkpt>
      <trkpt lat="43.62366" lon="1.21697">
        <ele>218.80000305176</ele>
        <time>2015-01-18T09:52:37.000Z</time>
      </trkpt>
      <trkpt lat="43.62358" lon="1.21689">
        <ele>219</ele>
        <time>2015-01-18T09:52:45.000Z</time>
      </trkpt>
      <trkpt lat="43.62356" lon="1.21686">
        <ele>219</ele>
        <time>2015-01-18T09:52:48.000Z</time>
      </trkpt>
      <trkpt lat="43.62346" lon="1.21676">
        <ele>219.19999694824</ele>
        <time>2015-01-18T09:53:02.000Z</time>
      </trkpt>
      <trkpt lat="43.6234" lon="1.21673">
        <ele>219.19999694824</ele>
        <time>2015-01-18T09:53:08.000Z</time>
      </trkpt>
      <trkpt lat="43.62335" lon="1.2167">
        <ele>219.19999694824</ele>
        <time>2015-01-18T09:53:15.000Z</time>
      </trkpt>
      <trkpt lat="43.62334" lon="1.21669">
        <ele>219.19999694824</ele>
        <time>2015-01-18T09:53:17.000Z</time>
      </trkpt>
      <trkpt lat="43.62332" lon="1.21666">
        <ele>219.19999694824</ele>
        <time>2015-01-18T09:53:21.000Z</time>
      </trkpt>
      <trkpt lat="43.62325" lon="1.2166">
        <ele>219.39999389648</ele>
        <time>2015-01-18T09:53:28.000Z</time>
      </trkpt>
      <trkpt lat="43.62319" lon="1.21654">
        <ele>219.39999389648</ele>
        <time>2015-01-18T09:53:34.000Z</time>
      </trkpt>
      <trkpt lat="43.62311" lon="1.21647">
        <ele>219.39999389648</ele>
        <time>2015-01-18T09:53:43.000Z</time>
      </trkpt>
      <trkpt lat="43.6231" lon="1.21647">
        <ele>219.39999389648</ele>
        <time>2015-01-18T09:53:44.000Z</time>
      </trkpt>
      <trkpt lat="43.62307" lon="1.21644">
        <ele>219.39999389648</ele>
        <time>2015-01-18T09:53:47.000Z</time>
      </trkpt>
      <trkpt lat="43.62298" lon="1.21636">
        <ele>219.60000610352</ele>
        <time>2015-01-18T09:53:53.000Z</time>
      </trkpt>
      <trkpt lat="43.62286" lon="1.21626">
        <ele>219.60000610352</ele>
        <time>2015-01-18T09:53:59.000Z</time>
      </trkpt>
      <trkpt lat="43.62272" lon="1.21616">
        <ele>219.80000305176</ele>
        <time>2015-01-18T09:54:05.000Z</time>
      </trkpt>
      <trkpt lat="43.62256" lon="1.21605">
        <ele>219.19999694824</ele>
        <time>2015-01-18T09:54:12.000Z</time>
      </trkpt>
      <trkpt lat="43.6224" lon="1.21591">
        <ele>218.60000610352</ele>
        <time>2015-01-18T09:54:19.000Z</time>
      </trkpt>
      <trkpt lat="43.62229" lon="1.21581">
        <ele>218.19999694824</ele>
        <time>2015-01-18T09:54:25.000Z</time>
      </trkpt>
      <trkpt lat="43.62215" lon="1.2157">
        <ele>217.60000610352</ele>
        <time>2015-01-18T09:54:31.000Z</time>
      </trkpt>
      <trkpt lat="43.62204" lon="1.21561">
        <ele>217.19999694824</ele>
        <time>2015-01-18T09:54:36.000Z</time>
      </trkpt>
      <trkpt lat="43.62188" lon="1.21549">
        <ele>217</ele>
        <time>2015-01-18T09:54:43.000Z</time>
      </trkpt>
      <trkpt lat="43.62176" lon="1.2154">
        <ele>217.19999694824</ele>
        <time>2015-01-18T09:54:48.000Z</time>
      </trkpt>
      <trkpt lat="43.6216" lon="1.21527">
        <ele>217.19999694824</ele>
        <time>2015-01-18T09:54:55.000Z</time>
      </trkpt>
      <trkpt lat="43.62148" lon="1.21518">
        <ele>217.39999389648</ele>
        <time>2015-01-18T09:55:00.000Z</time>
      </trkpt>
      <trkpt lat="43.62131" lon="1.21502">
        <ele>217.60000610352</ele>
        <time>2015-01-18T09:55:07.000Z</time>
      </trkpt>
      <trkpt lat="43.62119" lon="1.21493">
        <ele>217.80000305176</ele>
        <time>2015-01-18T09:55:12.000Z</time>
      </trkpt>
      <trkpt lat="43.62105" lon="1.2148">
        <ele>218</ele>
        <time>2015-01-18T09:55:18.000Z</time>
      </trkpt>
      <trkpt lat="43.62092" lon="1.2147">
        <ele>218</ele>
        <time>2015-01-18T09:55:23.000Z</time>
      </trkpt>
      <trkpt lat="43.62074" lon="1.21456">
        <ele>217.80000305176</ele>
        <time>2015-01-18T09:55:30.000Z</time>
      </trkpt>
      <trkpt lat="43.62059" lon="1.21449">
        <ele>217.39999389648</ele>
        <time>2015-01-18T09:55:36.000Z</time>
      </trkpt>
      <trkpt lat="43.62042" lon="1.21446">
        <ele>216.60000610352</ele>
        <time>2015-01-18T09:55:42.000Z</time>
      </trkpt>
      <trkpt lat="43.62008" lon="1.2144">
        <ele>215.39999389648</ele>
        <time>2015-01-18T09:55:53.000Z</time>
      </trkpt>
      <trkpt lat="43.61989" lon="1.21432">
        <ele>214.80000305176</ele>
        <time>2015-01-18T09:56:00.000Z</time>
      </trkpt>
      <trkpt lat="43.61972" lon="1.21423">
        <ele>214.39999389648</ele>
        <time>2015-01-18T09:56:06.000Z</time>
      </trkpt>
      <trkpt lat="43.61961" lon="1.21414">
        <ele>214.39999389648</ele>
        <time>2015-01-18T09:56:11.000Z</time>
      </trkpt>
      <trkpt lat="43.61948" lon="1.21408">
        <ele>214</ele>
        <time>2015-01-18T09:56:16.000Z</time>
      </trkpt>
      <trkpt lat="43.61935" lon="1.21407">
        <ele>213.80000305176</ele>
        <time>2015-01-18T09:56:21.000Z</time>
      </trkpt>
      <trkpt lat="43.61917" lon="1.21403">
        <ele>213.60000610352</ele>
        <time>2015-01-18T09:56:27.000Z</time>
      </trkpt>
      <trkpt lat="43.61903" lon="1.21398">
        <ele>213.60000610352</ele>
        <time>2015-01-18T09:56:32.000Z</time>
      </trkpt>
      <trkpt lat="43.61883" lon="1.21389">
        <ele>213.60000610352</ele>
        <time>2015-01-18T09:56:39.000Z</time>
      </trkpt>
      <trkpt lat="43.61854" lon="1.21376">
        <ele>213.80000305176</ele>
        <time>2015-01-18T09:56:50.000Z</time>
      </trkpt>
      <trkpt lat="43.61844" lon="1.2137">
        <ele>213.80000305176</ele>
        <time>2015-01-18T09:56:54.000Z</time>
      </trkpt>
      <trkpt lat="43.61832" lon="1.21364">
        <ele>214.19999694824</ele>
        <time>2015-01-18T09:56:58.000Z</time>
      </trkpt>
      <trkpt lat="43.61821" lon="1.21356">
        <ele>214.39999389648</ele>
        <time>2015-01-18T09:57:04.000Z</time>
      </trkpt>
      <trkpt lat="43.61807" lon="1.21344">
        <ele>214.80000305176</ele>
        <time>2015-01-18T09:57:10.000Z</time>
      </trkpt>
      <trkpt lat="43.61796" lon="1.21333">
        <ele>215.19999694824</ele>
        <time>2015-01-18T09:57:15.000Z</time>
      </trkpt>
      <trkpt lat="43.6178" lon="1.21323">
        <ele>215.60000610352</ele>
        <time>2015-01-18T09:57:21.000Z</time>
      </trkpt>
      <trkpt lat="43.61765" lon="1.21311">
        <ele>215.80000305176</ele>
        <time>2015-01-18T09:57:27.000Z</time>
      </trkpt>
      <trkpt lat="43.61752" lon="1.21299">
        <ele>215.39999389648</ele>
        <time>2015-01-18T09:57:33.000Z</time>
      </trkpt>
      <trkpt lat="43.61739" lon="1.21289">
        <ele>215</ele>
        <time>2015-01-18T09:57:38.000Z</time>
      </trkpt>
      <trkpt lat="43.61724" lon="1.21278">
        <ele>214.39999389648</ele>
        <time>2015-01-18T09:57:44.000Z</time>
      </trkpt>
      <trkpt lat="43.61715" lon="1.21269">
        <ele>214</ele>
        <time>2015-01-18T09:57:48.000Z</time>
      </trkpt>
      <trkpt lat="43.61712" lon="1.21266">
        <ele>214</ele>
        <time>2015-01-18T09:57:49.000Z</time>
      </trkpt>
      <trkpt lat="43.61694" lon="1.21251">
        <ele>213.39999389648</ele>
        <time>2015-01-18T09:57:57.000Z</time>
      </trkpt>
      <trkpt lat="43.61682" lon="1.21234">
        <ele>212.80000305176</ele>
        <time>2015-01-18T09:58:03.000Z</time>
      </trkpt>
      <trkpt lat="43.61682" lon="1.21232">
        <ele>212.80000305176</ele>
        <time>2015-01-18T09:58:04.000Z</time>
      </trkpt>
      <trkpt lat="43.61676" lon="1.21228">
        <ele>212.39999389648</ele>
        <time>2015-01-18T09:58:07.000Z</time>
      </trkpt>
      <trkpt lat="43.61658" lon="1.2121">
        <ele>211.80000305176</ele>
        <time>2015-01-18T09:58:14.000Z</time>
      </trkpt>
      <trkpt lat="43.61644" lon="1.21193">
        <ele>211.39999389648</ele>
        <time>2015-01-18T09:58:21.000Z</time>
      </trkpt>
      <trkpt lat="43.61632" lon="1.21176">
        <ele>211</ele>
        <time>2015-01-18T09:58:27.000Z</time>
      </trkpt>
      <trkpt lat="43.61623" lon="1.21162">
        <ele>210.80000305176</ele>
        <time>2015-01-18T09:58:32.000Z</time>
      </trkpt>
      <trkpt lat="43.61597" lon="1.21134">
        <ele>209.80000305176</ele>
        <time>2015-01-18T09:58:44.000Z</time>
      </trkpt>
      <trkpt lat="43.61592" lon="1.21126">
        <ele>209.80000305176</ele>
        <time>2015-01-18T09:58:51.000Z</time>
      </trkpt>
      <trkpt lat="43.61587" lon="1.21118">
        <ele>209.60000610352</ele>
        <time>2015-01-18T09:58:59.000Z</time>
      </trkpt>
      <trkpt lat="43.61582" lon="1.21111">
        <ele>209.19999694824</ele>
        <time>2015-01-18T09:59:07.000Z</time>
      </trkpt>
      <trkpt lat="43.6158" lon="1.21107">
        <ele>209.19999694824</ele>
        <time>2015-01-18T09:59:11.000Z</time>
      </trkpt>
      <trkpt lat="43.61577" lon="1.21104">
        <ele>209</ele>
        <time>2015-01-18T09:59:19.000Z</time>
      </trkpt>
      <trkpt lat="43.61575" lon="1.21103">
        <ele>209</ele>
        <time>2015-01-18T09:59:21.000Z</time>
      </trkpt>
      <trkpt lat="43.61573" lon="1.21097">
        <ele>209</ele>
        <time>2015-01-18T09:59:26.000Z</time>
      </trkpt>
      <trkpt lat="43.61569" lon="1.21093">
        <ele>208.80000305176</ele>
        <time>2015-01-18T09:59:32.000Z</time>
      </trkpt>
      <trkpt lat="43.61565" lon="1.21086">
        <ele>208.60000610352</ele>
        <time>2015-01-18T09:59:38.000Z</time>
      </trkpt>
      <trkpt lat="43.61565" lon="1.21086">
        <ele>208.60000610352</ele>
        <time>2015-01-18T09:59:39.000Z</time>
      </trkpt>
      <trkpt lat="43.61559" lon="1.21073">
        <ele>208.39999389648</ele>
        <time>2015-01-18T09:59:44.000Z</time>
      </trkpt>
      <trkpt lat="43.61551" lon="1.21057">
        <ele>208.39999389648</ele>
        <time>2015-01-18T09:59:49.000Z</time>
      </trkpt>
      <trkpt lat="43.61545" lon="1.21039">
        <ele>208.80000305176</ele>
        <time>2015-01-18T09:59:54.000Z</time>
      </trkpt>
      <trkpt lat="43.6154" lon="1.21026">
        <ele>209.19999694824</ele>
        <time>2015-01-18T09:59:58.000Z</time>
      </trkpt>
      <trkpt lat="43.61528" lon="1.21005">
        <ele>209.39999389648</ele>
        <time>2015-01-18T10:00:05.000Z</time>
      </trkpt>
      <trkpt lat="43.61518" lon="1.20991">
        <ele>209.19999694824</ele>
        <time>2015-01-18T10:00:10.000Z</time>
      </trkpt>
      <trkpt lat="43.6151" lon="1.20976">
        <ele>209.39999389648</ele>
        <time>2015-01-18T10:00:15.000Z</time>
      </trkpt>
      <trkpt lat="43.615" lon="1.2096">
        <ele>209.39999389648</ele>
        <time>2015-01-18T10:00:20.000Z</time>
      </trkpt>
      <trkpt lat="43.61495" lon="1.20951">
        <ele>209.60000610352</ele>
        <time>2015-01-18T10:00:23.000Z</time>
      </trkpt>
      <trkpt lat="43.61485" lon="1.20934">
        <ele>210.19999694824</ele>
        <time>2015-01-18T10:00:29.000Z</time>
      </trkpt>
      <trkpt lat="43.61475" lon="1.20916">
        <ele>210.80000305176</ele>
        <time>2015-01-18T10:00:35.000Z</time>
      </trkpt>
      <trkpt lat="43.61467" lon="1.20899">
        <ele>211.60000610352</ele>
        <time>2015-01-18T10:00:41.000Z</time>
      </trkpt>
      <trkpt lat="43.61453" lon="1.20876">
        <ele>211</ele>
        <time>2015-01-18T10:00:49.000Z</time>
      </trkpt>
      <trkpt lat="43.61445" lon="1.20856">
        <ele>210.80000305176</ele>
        <time>2015-01-18T10:00:55.000Z</time>
      </trkpt>
      <trkpt lat="43.61439" lon="1.20839">
        <ele>211</ele>
        <time>2015-01-18T10:01:00.000Z</time>
      </trkpt>
      <trkpt lat="43.61433" lon="1.20821">
        <ele>211.19999694824</ele>
        <time>2015-01-18T10:01:05.000Z</time>
      </trkpt>
      <trkpt lat="43.61425" lon="1.20802">
        <ele>211.39999389648</ele>
        <time>2015-01-18T10:01:11.000Z</time>
      </trkpt>
      <trkpt lat="43.61421" lon="1.20793">
        <ele>211.60000610352</ele>
        <time>2015-01-18T10:01:14.000Z</time>
      </trkpt>
      <trkpt lat="43.6141" lon="1.20768">
        <ele>212.19999694824</ele>
        <time>2015-01-18T10:01:22.000Z</time>
      </trkpt>
      <trkpt lat="43.61399" lon="1.20751">
        <ele>212.39999389648</ele>
        <time>2015-01-18T10:01:28.000Z</time>
      </trkpt>
      <trkpt lat="43.61386" lon="1.2073">
        <ele>212.39999389648</ele>
        <time>2015-01-18T10:01:35.000Z</time>
      </trkpt>
      <trkpt lat="43.61372" lon="1.20704">
        <ele>212.19999694824</ele>
        <time>2015-01-18T10:01:43.000Z</time>
      </trkpt>
      <trkpt lat="43.61363" lon="1.20693">
        <ele>211.60000610352</ele>
        <time>2015-01-18T10:01:48.000Z</time>
      </trkpt>
      <trkpt lat="43.61362" lon="1.20692">
        <ele>211.60000610352</ele>
        <time>2015-01-18T10:01:49.000Z</time>
      </trkpt>
      <trkpt lat="43.61359" lon="1.20685">
        <ele>211.60000610352</ele>
        <time>2015-01-18T10:01:51.000Z</time>
      </trkpt>
      <trkpt lat="43.61345" lon="1.20661">
        <ele>211.39999389648</ele>
        <time>2015-01-18T10:01:59.000Z</time>
      </trkpt>
      <trkpt lat="43.61333" lon="1.2064">
        <ele>211.80000305176</ele>
        <time>2015-01-18T10:02:06.000Z</time>
      </trkpt>
      <trkpt lat="43.61323" lon="1.20626">
        <ele>211.80000305176</ele>
        <time>2015-01-18T10:02:11.000Z</time>
      </trkpt>
      <trkpt lat="43.61312" lon="1.20611">
        <ele>211.80000305176</ele>
        <time>2015-01-18T10:02:17.000Z</time>
      </trkpt>
      <trkpt lat="43.6131" lon="1.20609">
        <ele>211.60000610352</ele>
        <time>2015-01-18T10:02:18.000Z</time>
      </trkpt>
      <trkpt lat="43.61305" lon="1.206">
        <ele>211.80000305176</ele>
        <time>2015-01-18T10:02:21.000Z</time>
      </trkpt>
      <trkpt lat="43.61296" lon="1.20583">
        <ele>211.80000305176</ele>
        <time>2015-01-18T10:02:27.000Z</time>
      </trkpt>
      <trkpt lat="43.61294" lon="1.20581">
        <ele>211.80000305176</ele>
        <time>2015-01-18T10:02:28.000Z</time>
      </trkpt>
      <trkpt lat="43.61285" lon="1.20562">
        <ele>212</ele>
        <time>2015-01-18T10:02:34.000Z</time>
      </trkpt>
      <trkpt lat="43.61277" lon="1.20547">
        <ele>212.80000305176</ele>
        <time>2015-01-18T10:02:39.000Z</time>
      </trkpt>
      <trkpt lat="43.61254" lon="1.20512">
        <ele>214.60000610352</ele>
        <time>2015-01-18T10:02:51.000Z</time>
      </trkpt>
      <trkpt lat="43.61244" lon="1.205">
        <ele>215.19999694824</ele>
        <time>2015-01-18T10:02:56.000Z</time>
      </trkpt>
      <trkpt lat="43.6123" lon="1.20487">
        <ele>215.80000305176</ele>
        <time>2015-01-18T10:03:02.000Z</time>
      </trkpt>
      <trkpt lat="43.61215" lon="1.20478">
        <ele>216.19999694824</ele>
        <time>2015-01-18T10:03:08.000Z</time>
      </trkpt>
      <trkpt lat="43.61201" lon="1.20472">
        <ele>216.19999694824</ele>
        <time>2015-01-18T10:03:13.000Z</time>
      </trkpt>
      <trkpt lat="43.61193" lon="1.20469">
        <ele>216.19999694824</ele>
        <time>2015-01-18T10:03:17.000Z</time>
      </trkpt>
      <trkpt lat="43.61191" lon="1.20468">
        <ele>216.19999694824</ele>
        <time>2015-01-18T10:03:18.000Z</time>
      </trkpt>
      <trkpt lat="43.61181" lon="1.20466">
        <ele>216.19999694824</ele>
        <time>2015-01-18T10:03:23.000Z</time>
      </trkpt>
      <trkpt lat="43.61175" lon="1.20472">
        <ele>215.60000610352</ele>
        <time>2015-01-18T10:03:26.000Z</time>
      </trkpt>
      <trkpt lat="43.61159" lon="1.20481">
        <ele>215.39999389648</ele>
        <time>2015-01-18T10:03:33.000Z</time>
      </trkpt>
      <trkpt lat="43.61146" lon="1.20487">
        <ele>215</ele>
        <time>2015-01-18T10:03:38.000Z</time>
      </trkpt>
      <trkpt lat="43.61127" lon="1.20492">
        <ele>215</ele>
        <time>2015-01-18T10:03:45.000Z</time>
      </trkpt>
      <trkpt lat="43.61115" lon="1.20493">
        <ele>215.19999694824</ele>
        <time>2015-01-18T10:03:50.000Z</time>
      </trkpt>
      <trkpt lat="43.61101" lon="1.20485">
        <ele>216.39999389648</ele>
        <time>2015-01-18T10:03:55.000Z</time>
      </trkpt>
      <trkpt lat="43.61096" lon="1.20482">
        <ele>216.80000305176</ele>
        <time>2015-01-18T10:03:57.000Z</time>
      </trkpt>
      <trkpt lat="43.61087" lon="1.20477">
        <ele>217.60000610352</ele>
        <time>2015-01-18T10:04:00.000Z</time>
      </trkpt>
      <trkpt lat="43.61075" lon="1.20469">
        <ele>218.60000610352</ele>
        <time>2015-01-18T10:04:05.000Z</time>
      </trkpt>
      <trkpt lat="43.61065" lon="1.20462">
        <ele>219.60000610352</ele>
        <time>2015-01-18T10:04:09.000Z</time>
      </trkpt>
      <trkpt lat="43.6105" lon="1.20454">
        <ele>220.60000610352</ele>
        <time>2015-01-18T10:04:15.000Z</time>
      </trkpt>
      <trkpt lat="43.61037" lon="1.20451">
        <ele>221.39999389648</ele>
        <time>2015-01-18T10:04:20.000Z</time>
      </trkpt>
      <trkpt lat="43.61024" lon="1.20448">
        <ele>222</ele>
        <time>2015-01-18T10:04:25.000Z</time>
      </trkpt>
      <trkpt lat="43.61008" lon="1.20443">
        <ele>222.60000610352</ele>
        <time>2015-01-18T10:04:31.000Z</time>
      </trkpt>
      <trkpt lat="43.60996" lon="1.20436">
        <ele>223.39999389648</ele>
        <time>2015-01-18T10:04:36.000Z</time>
      </trkpt>
      <trkpt lat="43.60994" lon="1.20435">
        <ele>223.39999389648</ele>
        <time>2015-01-18T10:04:37.000Z</time>
      </trkpt>
      <trkpt lat="43.60974" lon="1.20424">
        <ele>224.39999389648</ele>
        <time>2015-01-18T10:04:45.000Z</time>
      </trkpt>
      <trkpt lat="43.60955" lon="1.20414">
        <ele>225.39999389648</ele>
        <time>2015-01-18T10:04:53.000Z</time>
      </trkpt>
      <trkpt lat="43.6095" lon="1.20411">
        <ele>225.60000610352</ele>
        <time>2015-01-18T10:04:55.000Z</time>
      </trkpt>
      <trkpt lat="43.60936" lon="1.20407">
        <ele>225.80000305176</ele>
        <time>2015-01-18T10:05:01.000Z</time>
      </trkpt>
      <trkpt lat="43.60925" lon="1.20407">
        <ele>225.19999694824</ele>
        <time>2015-01-18T10:05:06.000Z</time>
      </trkpt>
      <trkpt lat="43.60915" lon="1.2041">
        <ele>224.19999694824</ele>
        <time>2015-01-18T10:05:10.000Z</time>
      </trkpt>
      <trkpt lat="43.60901" lon="1.20409">
        <ele>223.60000610352</ele>
        <time>2015-01-18T10:05:15.000Z</time>
      </trkpt>
      <trkpt lat="43.60885" lon="1.20411">
        <ele>222.60000610352</ele>
        <time>2015-01-18T10:05:21.000Z</time>
      </trkpt>
      <trkpt lat="43.60872" lon="1.20416">
        <ele>221.19999694824</ele>
        <time>2015-01-18T10:05:26.000Z</time>
      </trkpt>
      <trkpt lat="43.60857" lon="1.2042">
        <ele>221.39999389648</ele>
        <time>2015-01-18T10:05:31.000Z</time>
      </trkpt>
      <trkpt lat="43.60843" lon="1.20425">
        <ele>221</ele>
        <time>2015-01-18T10:05:36.000Z</time>
      </trkpt>
      <trkpt lat="43.60834" lon="1.20432">
        <ele>220.39999389648</ele>
        <time>2015-01-18T10:05:39.000Z</time>
      </trkpt>
      <trkpt lat="43.60813" lon="1.20435">
        <ele>219.60000610352</ele>
        <time>2015-01-18T10:05:46.000Z</time>
      </trkpt>
      <trkpt lat="43.60797" lon="1.20431">
        <ele>218.80000305176</ele>
        <time>2015-01-18T10:05:51.000Z</time>
      </trkpt>
      <trkpt lat="43.6078" lon="1.20421">
        <ele>218.19999694824</ele>
        <time>2015-01-18T10:05:58.000Z</time>
      </trkpt>
      <trkpt lat="43.60764" lon="1.20412">
        <ele>217.39999389648</ele>
        <time>2015-01-18T10:06:04.000Z</time>
      </trkpt>
      <trkpt lat="43.60749" lon="1.20407">
        <ele>216</ele>
        <time>2015-01-18T10:06:10.000Z</time>
      </trkpt>
      <trkpt lat="43.6073" lon="1.20397">
        <ele>214.80000305176</ele>
        <time>2015-01-18T10:06:17.000Z</time>
      </trkpt>
      <trkpt lat="43.60718" lon="1.20387">
        <ele>214</ele>
        <time>2015-01-18T10:06:22.000Z</time>
      </trkpt>
      <trkpt lat="43.60707" lon="1.2038">
        <ele>213</ele>
        <time>2015-01-18T10:06:27.000Z</time>
      </trkpt>
      <trkpt lat="43.60689" lon="1.20375">
        <ele>211.39999389648</ele>
        <time>2015-01-18T10:06:33.000Z</time>
      </trkpt>
      <trkpt lat="43.60679" lon="1.20371">
        <ele>210.60000610352</ele>
        <time>2015-01-18T10:06:37.000Z</time>
      </trkpt>
      <trkpt lat="43.60665" lon="1.20365">
        <ele>209.39999389648</ele>
        <time>2015-01-18T10:06:42.000Z</time>
      </trkpt>
      <trkpt lat="43.6065" lon="1.20353">
        <ele>208.60000610352</ele>
        <time>2015-01-18T10:06:48.000Z</time>
      </trkpt>
      <trkpt lat="43.60635" lon="1.20333">
        <ele>208.19999694824</ele>
        <time>2015-01-18T10:06:55.000Z</time>
      </trkpt>
      <trkpt lat="43.60623" lon="1.20317">
        <ele>207.80000305176</ele>
        <time>2015-01-18T10:07:01.000Z</time>
      </trkpt>
      <trkpt lat="43.6061" lon="1.20302">
        <ele>207.39999389648</ele>
        <time>2015-01-18T10:07:07.000Z</time>
      </trkpt>
      <trkpt lat="43.60598" lon="1.20285">
        <ele>207.60000610352</ele>
        <time>2015-01-18T10:07:13.000Z</time>
      </trkpt>
      <trkpt lat="43.60588" lon="1.20267">
        <ele>208.19999694824</ele>
        <time>2015-01-18T10:07:19.000Z</time>
      </trkpt>
      <trkpt lat="43.6058" lon="1.20254">
        <ele>208.60000610352</ele>
        <time>2015-01-18T10:07:24.000Z</time>
      </trkpt>
      <trkpt lat="43.60575" lon="1.20241">
        <ele>209.19999694824</ele>
        <time>2015-01-18T10:07:29.000Z</time>
      </trkpt>
      <trkpt lat="43.60567" lon="1.20223">
        <ele>209.60000610352</ele>
        <time>2015-01-18T10:07:35.000Z</time>
      </trkpt>
      <trkpt lat="43.6056" lon="1.20207">
        <ele>209.80000305176</ele>
        <time>2015-01-18T10:07:41.000Z</time>
      </trkpt>
      <trkpt lat="43.60559" lon="1.20204">
        <ele>209.80000305176</ele>
        <time>2015-01-18T10:07:42.000Z</time>
      </trkpt>
      <trkpt lat="43.60555" lon="1.20193">
        <ele>209.80000305176</ele>
        <time>2015-01-18T10:07:46.000Z</time>
      </trkpt>
      <trkpt lat="43.60549" lon="1.20173">
        <ele>210.19999694824</ele>
        <time>2015-01-18T10:07:53.000Z</time>
      </trkpt>
      <trkpt lat="43.60544" lon="1.20159">
        <ele>210.80000305176</ele>
        <time>2015-01-18T10:07:58.000Z</time>
      </trkpt>
      <trkpt lat="43.60536" lon="1.20137">
        <ele>211.60000610352</ele>
        <time>2015-01-18T10:08:05.000Z</time>
      </trkpt>
      <trkpt lat="43.60527" lon="1.20125">
        <ele>211.60000610352</ele>
        <time>2015-01-18T10:08:10.000Z</time>
      </trkpt>
      <trkpt lat="43.60518" lon="1.20114">
        <ele>211.60000610352</ele>
        <time>2015-01-18T10:08:15.000Z</time>
      </trkpt>
      <trkpt lat="43.60508" lon="1.20104">
        <ele>211.19999694824</ele>
        <time>2015-01-18T10:08:20.000Z</time>
      </trkpt>
      <trkpt lat="43.60497" lon="1.20088">
        <ele>211.19999694824</ele>
        <time>2015-01-18T10:08:26.000Z</time>
      </trkpt>
      <trkpt lat="43.60487" lon="1.20073">
        <ele>211.19999694824</ele>
        <time>2015-01-18T10:08:32.000Z</time>
      </trkpt>
      <trkpt lat="43.6048" lon="1.20064">
        <ele>211.19999694824</ele>
        <time>2015-01-18T10:08:36.000Z</time>
      </trkpt>
      <trkpt lat="43.6047" lon="1.20052">
        <ele>211</ele>
        <time>2015-01-18T10:08:42.000Z</time>
      </trkpt>
      <trkpt lat="43.60456" lon="1.20036">
        <ele>211</ele>
        <time>2015-01-18T10:08:49.000Z</time>
      </trkpt>
      <trkpt lat="43.60445" lon="1.20021">
        <ele>211</ele>
        <time>2015-01-18T10:08:55.000Z</time>
      </trkpt>
      <trkpt lat="43.60444" lon="1.20019">
        <ele>211.19999694824</ele>
        <time>2015-01-18T10:08:56.000Z</time>
      </trkpt>
      <trkpt lat="43.60433" lon="1.20005">
        <ele>211.19999694824</ele>
        <time>2015-01-18T10:09:01.000Z</time>
      </trkpt>
      <trkpt lat="43.60422" lon="1.19993">
        <ele>211.60000610352</ele>
        <time>2015-01-18T10:09:06.000Z</time>
      </trkpt>
      <trkpt lat="43.6041" lon="1.19979">
        <ele>211.80000305176</ele>
        <time>2015-01-18T10:09:12.000Z</time>
      </trkpt>
      <trkpt lat="43.60404" lon="1.19971">
        <ele>212</ele>
        <time>2015-01-18T10:09:15.000Z</time>
      </trkpt>
      <trkpt lat="43.60396" lon="1.19958">
        <ele>212.60000610352</ele>
        <time>2015-01-18T10:09:20.000Z</time>
      </trkpt>
      <trkpt lat="43.60383" lon="1.19941">
        <ele>213.19999694824</ele>
        <time>2015-01-18T10:09:26.000Z</time>
      </trkpt>
      <trkpt lat="43.60373" lon="1.19931">
        <ele>213.39999389648</ele>
        <time>2015-01-18T10:09:30.000Z</time>
      </trkpt>
      <trkpt lat="43.60364" lon="1.19924">
        <ele>213.19999694824</ele>
        <time>2015-01-18T10:09:34.000Z</time>
      </trkpt>
      <trkpt lat="43.60362" lon="1.19922">
        <ele>213.19999694824</ele>
        <time>2015-01-18T10:09:35.000Z</time>
      </trkpt>
      <trkpt lat="43.60352" lon="1.19916">
        <ele>213</ele>
        <time>2015-01-18T10:09:39.000Z</time>
      </trkpt>
      <trkpt lat="43.60341" lon="1.19905">
        <ele>213.19999694824</ele>
        <time>2015-01-18T10:09:44.000Z</time>
      </trkpt>
      <trkpt lat="43.60333" lon="1.19891">
        <ele>213.60000610352</ele>
        <time>2015-01-18T10:09:49.000Z</time>
      </trkpt>
      <trkpt lat="43.60327" lon="1.1987">
        <ele>214</ele>
        <time>2015-01-18T10:09:54.000Z</time>
      </trkpt>
      <trkpt lat="43.60325" lon="1.1985">
        <ele>215.39999389648</ele>
        <time>2015-01-18T10:09:59.000Z</time>
      </trkpt>
      <trkpt lat="43.60323" lon="1.19828">
        <ele>217.39999389648</ele>
        <time>2015-01-18T10:10:05.000Z</time>
      </trkpt>
      <trkpt lat="43.60324" lon="1.1981">
        <ele>219</ele>
        <time>2015-01-18T10:10:10.000Z</time>
      </trkpt>
      <trkpt lat="43.60325" lon="1.19805">
        <ele>219.19999694824</ele>
        <time>2015-01-18T10:10:12.000Z</time>
      </trkpt>
      <trkpt lat="43.60324" lon="1.19794">
        <ele>219.19999694824</ele>
        <time>2015-01-18T10:10:17.000Z</time>
      </trkpt>
      <trkpt lat="43.60325" lon="1.19791">
        <ele>219.39999389648</ele>
        <time>2015-01-18T10:10:18.000Z</time>
      </trkpt>
      <trkpt lat="43.60323" lon="1.19773">
        <ele>219.19999694824</ele>
        <time>2015-01-18T10:10:24.000Z</time>
      </trkpt>
      <trkpt lat="43.60322" lon="1.19753">
        <ele>219.19999694824</ele>
        <time>2015-01-18T10:10:29.000Z</time>
      </trkpt>
      <trkpt lat="43.60323" lon="1.19731">
        <ele>219.19999694824</ele>
        <time>2015-01-18T10:10:35.000Z</time>
      </trkpt>
      <trkpt lat="43.60324" lon="1.19708">
        <ele>219.39999389648</ele>
        <time>2015-01-18T10:10:41.000Z</time>
      </trkpt>
      <trkpt lat="43.60323" lon="1.19689">
        <ele>219.39999389648</ele>
        <time>2015-01-18T10:10:46.000Z</time>
      </trkpt>
      <trkpt lat="43.60323" lon="1.19669">
        <ele>219.60000610352</ele>
        <time>2015-01-18T10:10:52.000Z</time>
      </trkpt>
      <trkpt lat="43.60323" lon="1.19656">
        <ele>219.80000305176</ele>
        <time>2015-01-18T10:10:59.000Z</time>
      </trkpt>
      <trkpt lat="43.60324" lon="1.19642">
        <ele>220.19999694824</ele>
        <time>2015-01-18T10:11:06.000Z</time>
      </trkpt>
      <trkpt lat="43.60325" lon="1.19627">
        <ele>221</ele>
        <time>2015-01-18T10:11:13.000Z</time>
      </trkpt>
      <trkpt lat="43.60326" lon="1.19618">
        <ele>221.60000610352</ele>
        <time>2015-01-18T10:11:18.000Z</time>
      </trkpt>
      <trkpt lat="43.60329" lon="1.19611">
        <ele>222.19999694824</ele>
        <time>2015-01-18T10:11:22.000Z</time>
      </trkpt>
      <trkpt lat="43.6033" lon="1.19604">
        <ele>222.80000305176</ele>
        <time>2015-01-18T10:11:25.000Z</time>
      </trkpt>
      <trkpt lat="43.60332" lon="1.19581">
        <ele>224.19999694824</ele>
        <time>2015-01-18T10:11:32.000Z</time>
      </trkpt>
      <trkpt lat="43.60332" lon="1.19564">
        <ele>225</ele>
        <time>2015-01-18T10:11:37.000Z</time>
      </trkpt>
      <trkpt lat="43.60335" lon="1.19543">
        <ele>226</ele>
        <time>2015-01-18T10:11:43.000Z</time>
      </trkpt>
      <trkpt lat="43.6034" lon="1.19524">
        <ele>226.60000610352</ele>
        <time>2015-01-18T10:11:49.000Z</time>
      </trkpt>
      <trkpt lat="43.60343" lon="1.19504">
        <ele>227</ele>
        <time>2015-01-18T10:11:55.000Z</time>
      </trkpt>
      <trkpt lat="43.60345" lon="1.19488">
        <ele>227.19999694824</ele>
        <time>2015-01-18T10:12:00.000Z</time>
      </trkpt>
      <trkpt lat="43.60342" lon="1.1947">
        <ele>227</ele>
        <time>2015-01-18T10:12:06.000Z</time>
      </trkpt>
      <trkpt lat="43.60338" lon="1.1945">
        <ele>227</ele>
        <time>2015-01-18T10:12:12.000Z</time>
      </trkpt>
      <trkpt lat="43.60334" lon="1.19435">
        <ele>227</ele>
        <time>2015-01-18T10:12:17.000Z</time>
      </trkpt>
      <trkpt lat="43.60329" lon="1.19424">
        <ele>226.60000610352</ele>
        <time>2015-01-18T10:12:21.000Z</time>
      </trkpt>
      <trkpt lat="43.60323" lon="1.19415">
        <ele>226</ele>
        <time>2015-01-18T10:12:25.000Z</time>
      </trkpt>
      <trkpt lat="43.60316" lon="1.19403">
        <ele>225.60000610352</ele>
        <time>2015-01-18T10:12:30.000Z</time>
      </trkpt>
      <trkpt lat="43.60315" lon="1.19401">
        <ele>225.39999389648</ele>
        <time>2015-01-18T10:12:31.000Z</time>
      </trkpt>
      <trkpt lat="43.60305" lon="1.19385">
        <ele>225.80000305176</ele>
        <time>2015-01-18T10:12:38.000Z</time>
      </trkpt>
      <trkpt lat="43.60297" lon="1.19379">
        <ele>225.60000610352</ele>
        <time>2015-01-18T10:12:43.000Z</time>
      </trkpt>
      <trkpt lat="43.60289" lon="1.19371">
        <ele>225.60000610352</ele>
        <time>2015-01-18T10:12:48.000Z</time>
      </trkpt>
      <trkpt lat="43.60276" lon="1.19358">
        <ele>225.80000305176</ele>
        <time>2015-01-18T10:12:55.000Z</time>
      </trkpt>
      <trkpt lat="43.60267" lon="1.19346">
        <ele>226.39999389648</ele>
        <time>2015-01-18T10:13:01.000Z</time>
      </trkpt>
      <trkpt lat="43.60257" lon="1.19335">
        <ele>227</ele>
        <time>2015-01-18T10:13:06.000Z</time>
      </trkpt>
      <trkpt lat="43.60249" lon="1.19324">
        <ele>228</ele>
        <time>2015-01-18T10:13:11.000Z</time>
      </trkpt>
      <trkpt lat="43.60243" lon="1.19315">
        <ele>228.80000305176</ele>
        <time>2015-01-18T10:13:15.000Z</time>
      </trkpt>
      <trkpt lat="43.60236" lon="1.19301">
        <ele>229.19999694824</ele>
        <time>2015-01-18T10:13:20.000Z</time>
      </trkpt>
      <trkpt lat="43.60231" lon="1.19289">
        <ele>229.60000610352</ele>
        <time>2015-01-18T10:13:24.000Z</time>
      </trkpt>
      <trkpt lat="43.60227" lon="1.19276">
        <ele>230.19999694824</ele>
        <time>2015-01-18T10:13:28.000Z</time>
      </trkpt>
      <trkpt lat="43.60223" lon="1.19255">
        <ele>231</ele>
        <time>2015-01-18T10:13:34.000Z</time>
      </trkpt>
      <trkpt lat="43.60219" lon="1.19238">
        <ele>231.80000305176</ele>
        <time>2015-01-18T10:13:39.000Z</time>
      </trkpt>
      <trkpt lat="43.60214" lon="1.19215">
        <ele>233</ele>
        <time>2015-01-18T10:13:46.000Z</time>
      </trkpt>
      <trkpt lat="43.60204" lon="1.19194">
        <ele>233.80000305176</ele>
        <time>2015-01-18T10:13:53.000Z</time>
      </trkpt>
      <trkpt lat="43.60191" lon="1.19179">
        <ele>234</ele>
        <time>2015-01-18T10:14:00.000Z</time>
      </trkpt>
      <trkpt lat="43.60179" lon="1.19162">
        <ele>234.80000305176</ele>
        <time>2015-01-18T10:14:07.000Z</time>
      </trkpt>
      <trkpt lat="43.60171" lon="1.19152">
        <ele>235.60000610352</ele>
        <time>2015-01-18T10:14:11.000Z</time>
      </trkpt>
      <trkpt lat="43.60157" lon="1.19137">
        <ele>236.80000305176</ele>
        <time>2015-01-18T10:14:17.000Z</time>
      </trkpt>
      <trkpt lat="43.6015" lon="1.19131">
        <ele>237.39999389648</ele>
        <time>2015-01-18T10:14:21.000Z</time>
      </trkpt>
      <trkpt lat="43.60138" lon="1.1912">
        <ele>238.39999389648</ele>
        <time>2015-01-18T10:14:28.000Z</time>
      </trkpt>
      <trkpt lat="43.60129" lon="1.19111">
        <ele>239</ele>
        <time>2015-01-18T10:14:33.000Z</time>
      </trkpt>
      <trkpt lat="43.60121" lon="1.19103">
        <ele>239.80000305176</ele>
        <time>2015-01-18T10:14:39.000Z</time>
      </trkpt>
      <trkpt lat="43.60111" lon="1.19093">
        <ele>240.60000610352</ele>
        <time>2015-01-18T10:14:45.000Z</time>
      </trkpt>
      <trkpt lat="43.60102" lon="1.19085">
        <ele>241.39999389648</ele>
        <time>2015-01-18T10:14:51.000Z</time>
      </trkpt>
      <trkpt lat="43.60093" lon="1.19077">
        <ele>242.19999694824</ele>
        <time>2015-01-18T10:14:56.000Z</time>
      </trkpt>
      <trkpt lat="43.60092" lon="1.19076">
        <ele>242.39999389648</ele>
        <time>2015-01-18T10:14:57.000Z</time>
      </trkpt>
      <trkpt lat="43.60081" lon="1.19073">
        <ele>243</ele>
        <time>2015-01-18T10:15:02.000Z</time>
      </trkpt>
      <trkpt lat="43.60072" lon="1.19074">
        <ele>243.19999694824</ele>
        <time>2015-01-18T10:15:07.000Z</time>
      </trkpt>
      <trkpt lat="43.6007" lon="1.19074">
        <ele>243.19999694824</ele>
        <time>2015-01-18T10:15:08.000Z</time>
      </trkpt>
      <trkpt lat="43.60061" lon="1.19075">
        <ele>243.39999389648</ele>
        <time>2015-01-18T10:15:13.000Z</time>
      </trkpt>
      <trkpt lat="43.60059" lon="1.19076">
        <ele>243.60000610352</ele>
        <time>2015-01-18T10:15:14.000Z</time>
      </trkpt>
      <trkpt lat="43.60052" lon="1.19077">
        <ele>243.60000610352</ele>
        <time>2015-01-18T10:15:18.000Z</time>
      </trkpt>
      <trkpt lat="43.60044" lon="1.19082">
        <ele>243.60000610352</ele>
        <time>2015-01-18T10:15:23.000Z</time>
      </trkpt>
      <trkpt lat="43.60034" lon="1.19088">
        <ele>242.80000305176</ele>
        <time>2015-01-18T10:15:28.000Z</time>
      </trkpt>
      <trkpt lat="43.60027" lon="1.19092">
        <ele>242</ele>
        <time>2015-01-18T10:15:31.000Z</time>
      </trkpt>
      <trkpt lat="43.60016" lon="1.19096">
        <ele>241</ele>
        <time>2015-01-18T10:15:36.000Z</time>
      </trkpt>
      <trkpt lat="43.60002" lon="1.19099">
        <ele>239.39999389648</ele>
        <time>2015-01-18T10:15:43.000Z</time>
      </trkpt>
      <trkpt lat="43.59991" lon="1.19101">
        <ele>238.39999389648</ele>
        <time>2015-01-18T10:15:48.000Z</time>
      </trkpt>
      <trkpt lat="43.59982" lon="1.19099">
        <ele>238</ele>
        <time>2015-01-18T10:15:52.000Z</time>
      </trkpt>
      <trkpt lat="43.59975" lon="1.19098">
        <ele>237.60000610352</ele>
        <time>2015-01-18T10:15:56.000Z</time>
      </trkpt>
      <trkpt lat="43.59964" lon="1.19094">
        <ele>237.60000610352</ele>
        <time>2015-01-18T10:16:02.000Z</time>
      </trkpt>
      <trkpt lat="43.59955" lon="1.19091">
        <ele>237.39999389648</ele>
        <time>2015-01-18T10:16:06.000Z</time>
      </trkpt>
      <trkpt lat="43.59941" lon="1.19088">
        <ele>236.80000305176</ele>
        <time>2015-01-18T10:16:11.000Z</time>
      </trkpt>
      <trkpt lat="43.59936" lon="1.19087">
        <ele>236.60000610352</ele>
        <time>2015-01-18T10:16:13.000Z</time>
      </trkpt>
      <trkpt lat="43.59923" lon="1.19084">
        <ele>235.19999694824</ele>
        <time>2015-01-18T10:16:18.000Z</time>
      </trkpt>
      <trkpt lat="43.59907" lon="1.19083">
        <ele>233.19999694824</ele>
        <time>2015-01-18T10:16:24.000Z</time>
      </trkpt>
      <trkpt lat="43.5989" lon="1.19081">
        <ele>230.80000305176</ele>
        <time>2015-01-18T10:16:31.000Z</time>
      </trkpt>
      <trkpt lat="43.59877" lon="1.19081">
        <ele>229</ele>
        <time>2015-01-18T10:16:36.000Z</time>
      </trkpt>
      <trkpt lat="43.59871" lon="1.19079">
        <ele>228.60000610352</ele>
        <time>2015-01-18T10:16:39.000Z</time>
      </trkpt>
      <trkpt lat="43.59869" lon="1.19073">
        <ele>229</ele>
        <time>2015-01-18T10:16:40.000Z</time>
      </trkpt>
      <trkpt lat="43.59872" lon="1.19061">
        <ele>231</ele>
        <time>2015-01-18T10:16:45.000Z</time>
      </trkpt>
      <trkpt lat="43.59874" lon="1.19056">
        <ele>231.80000305176</ele>
        <time>2015-01-18T10:16:47.000Z</time>
      </trkpt>
      <trkpt lat="43.59881" lon="1.19042">
        <ele>234</ele>
        <time>2015-01-18T10:16:53.000Z</time>
      </trkpt>
      <trkpt lat="43.59884" lon="1.19031">
        <ele>235.60000610352</ele>
        <time>2015-01-18T10:16:57.000Z</time>
      </trkpt>
      <trkpt lat="43.5989" lon="1.19009">
        <ele>238.39999389648</ele>
        <time>2015-01-18T10:17:05.000Z</time>
      </trkpt>
      <trkpt lat="43.59896" lon="1.18994">
        <ele>239.80000305176</ele>
        <time>2015-01-18T10:17:10.000Z</time>
      </trkpt>
      <trkpt lat="43.59901" lon="1.18976">
        <ele>241.39999389648</ele>
        <time>2015-01-18T10:17:16.000Z</time>
      </trkpt>
      <trkpt lat="43.59908" lon="1.18961">
        <ele>243.60000610352</ele>
        <time>2015-01-18T10:17:22.000Z</time>
      </trkpt>
      <trkpt lat="43.59914" lon="1.18946">
        <ele>245.39999389648</ele>
        <time>2015-01-18T10:17:27.000Z</time>
      </trkpt>
      <trkpt lat="43.59915" lon="1.18943">
        <ele>245.80000305176</ele>
        <time>2015-01-18T10:17:28.000Z</time>
      </trkpt>
      <trkpt lat="43.59924" lon="1.18927">
        <ele>248.19999694824</ele>
        <time>2015-01-18T10:17:34.000Z</time>
      </trkpt>
      <trkpt lat="43.59933" lon="1.1891">
        <ele>250.60000610352</ele>
        <time>2015-01-18T10:17:41.000Z</time>
      </trkpt>
      <trkpt lat="43.59941" lon="1.18891">
        <ele>252.19999694824</ele>
        <time>2015-01-18T10:17:48.000Z</time>
      </trkpt>
      <trkpt lat="43.59949" lon="1.18869">
        <ele>253.19999694824</ele>
        <time>2015-01-18T10:17:57.000Z</time>
      </trkpt>
      <trkpt lat="43.59957" lon="1.1885">
        <ele>254.19999694824</ele>
        <time>2015-01-18T10:18:05.000Z</time>
      </trkpt>
      <trkpt lat="43.59964" lon="1.18833">
        <ele>254.80000305176</ele>
        <time>2015-01-18T10:18:12.000Z</time>
      </trkpt>
      <trkpt lat="43.59969" lon="1.18821">
        <ele>254.80000305176</ele>
        <time>2015-01-18T10:18:17.000Z</time>
      </trkpt>
      <trkpt lat="43.59976" lon="1.18804">
        <ele>255</ele>
        <time>2015-01-18T10:18:24.000Z</time>
      </trkpt>
      <trkpt lat="43.59981" lon="1.18794">
        <ele>254.80000305176</ele>
        <time>2015-01-18T10:18:30.000Z</time>
      </trkpt>
      <trkpt lat="43.59987" lon="1.18781">
        <ele>254.60000610352</ele>
        <time>2015-01-18T10:18:36.000Z</time>
      </trkpt>
      <trkpt lat="43.59996" lon="1.18763">
        <ele>255</ele>
        <time>2015-01-18T10:18:43.000Z</time>
      </trkpt>
      <trkpt lat="43.60001" lon="1.18749">
        <ele>255.39999389648</ele>
        <time>2015-01-18T10:18:49.000Z</time>
      </trkpt>
      <trkpt lat="43.6" lon="1.18746">
        <ele>255.39999389648</ele>
        <time>2015-01-18T10:18:50.000Z</time>
      </trkpt>
      <trkpt lat="43.59993" lon="1.18738">
        <ele>255.19999694824</ele>
        <time>2015-01-18T10:18:55.000Z</time>
      </trkpt>
      <trkpt lat="43.59985" lon="1.18731">
        <ele>255.19999694824</ele>
        <time>2015-01-18T10:19:00.000Z</time>
      </trkpt>
      <trkpt lat="43.59977" lon="1.18725">
        <ele>255</ele>
        <time>2015-01-18T10:19:04.000Z</time>
      </trkpt>
      <trkpt lat="43.59963" lon="1.18715">
        <ele>254.60000610352</ele>
        <time>2015-01-18T10:19:10.000Z</time>
      </trkpt>
      <trkpt lat="43.59952" lon="1.18708">
        <ele>254.39999389648</ele>
        <time>2015-01-18T10:19:14.000Z</time>
      </trkpt>
      <trkpt lat="43.59935" lon="1.18695">
        <ele>254</ele>
        <time>2015-01-18T10:19:21.000Z</time>
      </trkpt>
      <trkpt lat="43.5992" lon="1.18683">
        <ele>253.80000305176</ele>
        <time>2015-01-18T10:19:27.000Z</time>
      </trkpt>
      <trkpt lat="43.59904" lon="1.18672">
        <ele>253.60000610352</ele>
        <time>2015-01-18T10:19:34.000Z</time>
      </trkpt>
      <trkpt lat="43.5989" lon="1.18658">
        <ele>253.39999389648</ele>
        <time>2015-01-18T10:19:41.000Z</time>
      </trkpt>
      <trkpt lat="43.59869" lon="1.18659">
        <ele>253.19999694824</ele>
        <time>2015-01-18T10:19:53.000Z</time>
      </trkpt>
    </trkseg>
  </trk>
</gpx>